     2              OBSERVATION DATA    GPS                 RINEX VERSION / TYPE
TRRINEXO V2.4.6 UX                                          PGM / RUN BY / DATE
                                                            COMMENT
Original Marker Name: o225                                  COMMENT
Campaign Name: STRC 1995                                    COMMENT
4-Character Station Name: O225                              COMMENT
6-Character Antenna Code: TRMSST                            COMMENT
Vertical Measurement Point: TGP                             COMMENT
Vertical Offset to Rinex Ref. Point: 0.0629                 COMMENT
Radial Measurement Point: NGP                               COMMENT
Radial Offset to Rinex Ref. Point: 0.2334                   COMMENT
Antenna Height from Field Measurement: 1.6350 m             COMMENT
Original XYZ: -2333396.7877 -4842934.0661 3421265.3596      COMMENT
New XYZ position is based on association with SCEC monument COMMENT
E1C8U9K8+0011. Position of that monument is believed to be  COMMENT
valid to within 1 m horizontally; vertical accuracy         COMMENT
should be no worse than 3-times this value.                 COMMENT
                                                            COMMENT
Revised Rinex header created by UCSD GPS archive for        COMMENT
GSAC on 10-Apr-1999 (1999:100) 04:37:54 GMT                 COMMENT
For assistance contact dagnew@ucsd.edu or hjohnson@ucsd.edu COMMENT
                                                            COMMENT
OFFSET 225 1934                                             MARKER NAME
OFFSET 225                                                  MARKER NUMBER
B. Matthews UNAVCO                                          OBSERVER / AGENCY
1050 TRIMBLE 4000 SST 4.81                                  REC # / TYPE / VERS
124 TR 4000SST L1/L2 GEO                                    ANT # / TYPE
 -2333373.0000 -4842881.0000  3421208.0000                  APPROX POSITION XYZ
        1.5554        0.0000        0.0000                  ANTENNA: DELTA H/E/N
     1     2     0                                          WAVELENGTH FACT L1/2
     3    C1    L1    L2                                    # / TYPES OF OBSERV
    30                                                      INTERVAL
  1995     2    19    16     0   30.000000                  TIME OF FIRST OBS
  1995     2    19    23    59   30.000000                  TIME OF LAST OBS
     0                                                      # OF SATELLITES
                                                            END OF HEADER
 95  2 19 16  0 30.0000000  0  6 25  1 14 15 22 29
  21405495.867          -0.53417
  24631493.234          -0.16515
  21285527.805          -0.85117
  21726905.352          -0.40016
  22536677.047          -0.05416
  23000572.180          -0.32116
 95  2 19 16  1  0.0000000  0  6 25  1 14 15 22 29
  21413540.164       42294.985 7        -0.41119
  24641049.188       50235.899 5
  21268875.070      -87512.721 7        -0.33318
  21735970.156       47609.948 6        -0.38617
  22517567.648     -100370.115 6        -0.14416
  22985899.328      -77113.761 6        -0.40316
 95  2 19 16  1 30.0000000  0  6 25  1 14 15 22 29
  21421653.422       84925.571 7     33218.210 9
  24650605.273      100482.638 4        -0.42213
  21252279.031     -174733.882 7    -67964.881 8
  21745108.000       95654.452 6     37436.849 7
  22498514.523     -200453.619 6    -77987.251 6
  22971232.906     -154175.389 6    -60048.409 5
 95  2 19 16  2  0.0000000  0  6 25  1 14 15 22 29
  21429833.953      127907.139 7     66710.314 9
  24660172.789      150733.370 5     39155.929 4
  21235733.188     -261671.164 7   -135708.220 8
  21754335.266      144125.556 6     75206.497 7
  22479526.328     -300254.618 6   -155754.227 6
  22956579.352     -231180.645 6   -120052.486 5
 95  2 19 16  2 30.0000000  0  6 25  1 14 15 22 29
  21438081.273      171250.001 7    100483.950 9
  24669734.227      200979.999 5     78309.035 2
  21219248.984     -348304.499 7   -203214.716 8
  21763638.797      193026.700 6    113311.242 7
  22460591.258     -399779.902 6   -233306.366 6
  22941939.109     -308104.365 6   -179993.036 5
 95  2 19 16  3  0.0000000  0  6 25  1 14 15 22 29
  21446395.477      214939.106 7    134527.377 9
  24679290.633      251216.870 5    117454.608 2
  21202821.930     -434628.894 7   -270480.485 8
  21773023.633      242348.034 6    151743.412 6
  22441702.883     -499046.323 6   -310656.791 6
  22927320.086     -384937.967 6   -239863.351 6
 95  2 19 16  3 30.0000000  0  6 25  1 14 15 22 29
  21454773.891      258971.029 7    168837.943 9
  24688847.062      301445.658 5    156593.822 1
  21186455.602     -520638.500 7   -337500.957 8
  21782493.633      292088.845 6    190502.447 7
  22422860.305     -598059.753 6   -387810.081 5
  22912718.414     -461659.882 6   -299646.643 5
 95  2 19 16  4  0.0000000  0  6 25  1 14 15 22 29
  21463216.234      303330.440 7    203403.694 9
  24698408.180      351655.835 5
  21170143.680     -606349.434 7   -404288.703 8
  21792033.453      342233.682 6
  22404057.453     -696826.788 6   -464771.384 6
  22898135.914     -538290.106 6   -359358.490 5
 95  2 19 16  4 30.0000000  0  6 25  1 14 15 22 29
  21471718.492      348012.054 7    238220.511 9
  24707969.344      401878.091 4    234852.674 2
  21153893.359     -691742.796 7   -470828.992 8
  21801651.828      392796.819 6    268976.107 7
  22385315.469     -795315.466 6   -541515.781 6
  22883574.758     -614826.945 6   -418997.567 6
 95  2 19 16  4 59.9990000  0  6 25  1 14 15 22 29
  21480287.128      393021.679 7    273292.925 9
  24717523.440      452128.622 4    274008.778 2
  21137705.683     -776822.113 7   -537124.568 8
  21811354.003      443777.021 6    308700.899 7
  22366637.347     -893484.681 6   -618011.245 6
  22869026.394     -691282.919 6   -478573.648 5
 95  2 19 16  5 29.9990000  0  6 25  1 14 15 22 29
  21488913.886      438361.716 7    308622.799 9
  24727090.573      502403.429 3
  21121567.956     -861611.511 7   -603194.231 8
  21821134.104      495166.957 6    348744.960 6
  22348024.300     -991325.182 6   -694250.591 6
  22854484.198     -767690.606 6   -538112.095 5
 95  2 19 16  5 59.9990000  0  6 25  1 14 15 22 29
  21497599.253      484015.751 7    344197.346 9
  24736661.183      552703.550 3        -0.27313
  21105491.073     -946108.350 7   -669035.930 8
  21830991.237      546966.721 6    389108.372 6
  22329477.253    -1088811.281 6   -770213.775 6
  22839951.245     -844044.510 6   -597608.626 5
 95  2 19 16  6 29.9990000  0  6 25  1 14 15 22 29
  21506346.909      529977.350 7    380011.553 9
  24746241.159      603021.541 5     39208.475 2
  21089467.831    -1030308.276 7   -734646.267 8
  21840925.800      599174.077 6    429789.383 6
  22310989.745    -1185939.044 6   -845897.732 6
  22825436.698     -920322.075 6   -657045.688 6
 95  2 19 16  6 59.9990000  0  5 25 14 15 22 29
  21515151.886      576251.647 7    416069.426 9
  21073502.401    -1114210.880 7   -800024.923 9
  21850937.722      651786.156 6    470785.757 6
  22292565.050    -1282721.378 6   -921312.531 6
  22810941.151     -996507.577 6   -716411.002 6
 95  2 19 16  7 29.9990000  0  5 25 14 15 22 29
  21524014.073      622826.244 7    452361.295 9
  21057597.495    -1197793.958 7   -865154.597 9
  21861028.026      704808.338 6    512101.698 6
  22274212.519    -1379172.578 6   -996469.307 6
  22796464.542    -1072581.073 6   -775689.041 6
 95  2 19 16  7 59.9990000  0  5 25 14 15 22 29
  21532929.729      669694.346 7    488881.870 9
  21041755.472    -1281030.882 7   -930014.549 9
  21871199.479      758241.111 6    553737.587 6
  22255931.058    -1475308.056 6  -1071380.067 6
  22782016.214    -1148524.618 6   -834865.819 6
 95  2 19 16  8 29.9990000  0  5 25 14 15 22 29
  21541906.042      716853.277 7    525629.064 8
  21025984.104    -1363921.893 7   -994604.954 9
  21881437.331      812063.223 6    595676.850 6
  22237685.315    -1571157.538 6  -1146067.976 6
  22767582.222    -1224360.265 6   -893958.518 6
 95  2 19 16  8 59.9990000  0  5 25 14 15 22 29
  21550938.698      764313.738 7    562611.222 8
  21010276.011    -1446459.218 7  -1058919.752 9
  21891756.370      866281.455 6    637924.769 6
  22219496.628    -1666714.648 6  -1220528.066 6
  22753170.979    -1300101.207 6   -952977.419 6
 95  2 19 16  9 29.9990000  0  5 25 14 15 22 29
  21560027.284      812072.068 7    599825.476 8
  20994636.808    -1528650.542 7  -1122964.953 9
  21902146.651      920889.165 6    680476.180 6
  22201379.120    -1761964.796 6  -1294748.967 6
  22738768.183    -1375770.930 6  -1011940.837 6
 95  2 19 16  9 59.9990000  0  5 25 14 15 22 29
  21569174.065      860141.861 7    637282.437 8
  20979057.901    -1610515.221 7  -1186755.618 9
  21912610.800      975877.695 6    723324.343 6
  22183306.112    -1856897.405 6  -1368722.432 6
  22724378.823    -1451384.365 6  -1070860.396 6
 95  2 19 16 10 29.9990000  0  5 25 14 15 22 29
  21578381.534      908528.389 7    674986.211 8
  20963537.761    -1692070.668 7  -1250305.324 9
  21923148.909     1031241.125 6    766464.625 6
  22165305.612    -1951494.426 6  -1442434.401 6
  22710000.745    -1526951.021 6  -1129743.491 6
 95  2 19 16 10 59.9990000  0  5 25 14 15 22 29
  21587647.573      957223.223 7    712930.209 8
  20948074.948    -1773328.681 7  -1313623.256 9
  21933752.237     1086977.464 6    809895.495 6
  22147374.050    -2045739.805 6  -1515872.358 6
  22695631.534    -1602471.096 6  -1188590.286 6
 95  2 19 16 11 29.9990000  0  5 25 14 15 22 29
  21596972.894     1006231.600 7    751118.532 8
  20932673.190    -1854271.040 7  -1376695.233 9
  21944430.753     1143086.881 6    853617.065 6
  22129512.245    -2139619.363 6  -1589025.255 6
  22681269.479    -1677927.137 6  -1247387.201 6
 95  2 19 16 11 59.9990000  0  5 25 14 15 22 29
  21606358.901     1055555.729 7    789552.897 8
  20917333.034    -1934880.215 7  -1439507.573 9
  21955180.745     1199573.496 6    897632.562 6
  22111717.495    -2233129.715 6  -1661890.459 6
  22666930.362    -1753297.135 6  -1306117.063 6
 95  2 19 16 12 29.9990000  0  5 25 14 15 22 29
  21615801.112     1105164.824 7    828209.314 8
  20902055.526    -2015164.303 7  -1502066.605 9
  21965999.448     1256422.277 6    941930.270 6
  22093987.472    -2326293.665 6  -1734485.735 6
  22652603.956    -1828588.239 6  -1364785.455 6
 95  2 19 16 12 59.9990000  0  5 25 14 15 22 29
  21625293.565     1155054.306 7    867084.214 8
  20886843.284    -2095108.916 7  -1564361.116 9
  21976885.058     1313640.491 6    986515.850 6
  22076323.011    -2419117.029 6  -1806815.605 6
  22638290.948    -1903785.167 6  -1423380.466 6
 95  2 19 16 13 29.9990000  0  5 25 14 15 22 29
  21634842.448     1205224.400 7    906177.770 8
  20871698.909    -2174695.489 7  -1626376.628 9
  21987843.839     1371229.984 6   1031390.735 6
  22058720.862    -2511608.534 6  -1878886.883 6
  22624002.159    -1978880.345 6  -1481896.183 6
 95  2 19 16 13 59.9990000  0  5 25 14 15 22 29
  21644437.292     1255658.974 7    945477.411 8
  20856616.776    -2253939.497 7  -1688125.206 9
  21998874.276     1429178.166 6   1076545.113 6
  22041180.909    -2603785.317 6  -1950712.924 6
  22609732.464    -2053879.165 6  -1540336.818 6
 95  2 19 16 14 29.9990000  0  5 25 14 15 22 29
  21654085.230     1306354.590 7    984980.459 8
  20841606.511    -2332838.225 7  -1749604.741 9
  22009967.995     1487478.966 6   1121974.263 6
  22023698.190    -2695648.958 6  -2022294.940 6
  22595475.433    -2128783.770 6  -1598704.038 6
 95  2 19 16 14 59.9990000  0  5 25 14 15 22 29
  21663785.620     1357328.050 7   1024700.016 8
  20826660.815    -2411360.746 7  -1810791.127 9
  22021129.183     1546133.320 6   1167678.909 6
  22006286.925    -2787171.310 6  -2093611.019 6
  22581243.628    -2203592.247 6  -1656996.350 6
 95  2 19 16 15 29.9990000  0  5 25 14 15 22 29
  21673537.370     1408574.085 7   1064631.962 8
  20811791.222    -2489510.190 7  -1871686.801 9
  22032357.347     1605127.955 6   1213648.707 6
  21988937.722    -2878323.816 6  -2164638.902 6
  22567020.503    -2278318.637 6  -1715224.699 6
 95  2 19 16 15 59.9990000  0  5 25 14 15 22 29
  21683339.354     1460101.996 7   1104783.547 8
  20796989.956    -2567288.894 7  -1932293.590 9
  22043643.964     1664467.051 6   1259886.925 6
  21971671.339    -2969069.769 6  -2235349.985 6
  22552818.034    -2352966.444 6  -1773391.809 6
 95  2 19 16 16 29.9990000  0  5 25 14 15 22 29
  21693204.839     1511913.425 7   1145156.062 8
  20782260.808    -2644683.513 7  -1992601.094 9
  22055002.487     1724152.386 6   1306394.934 6
  21954481.667    -3059392.587 6  -2305731.364 6
  22538627.847    -2427538.619 6  -1831499.992 6
 95  2 19 16 16 59.9990000  0  5 25 14 15 22 29
  21703115.604     1564004.234 7   1185746.264 8
  20767605.675    -2721710.003 7  -2052621.740 9
  22066425.261     1784177.023 6   1353167.337 6
  21937374.894    -3149291.148 6  -2375782.151 6
  22524447.808    -2502044.512 6  -1889556.519 6
 95  2 19 16 17 29.9990000  0  5 25 14 15 22 29
  21713077.534     1616367.322 7   1226548.637 8
  20753012.440    -2798386.877 7  -2112369.959 9
  22077913.917     1844547.476 6   1400209.201 6
  21920350.159    -3238776.155 6  -2445510.686 6
  22510283.980    -2576481.620 6  -1947559.452 6
 95  2 19 16 17 59.9990000  0  5 25 14 15 22 29
  21723092.183     1668996.830 7   1267558.609 8
  20738487.737    -2874721.111 7  -2171851.193 9
  22089467.769     1905249.830 6   1447509.698 6
  21903391.308    -3327900.006 6  -2514957.813 6
  22496126.714    -2650855.329 6  -2005512.981 6
 95  2 19 16 18 29.9990000  0  5 25 14 15 22 29
  21733159.456     1721886.756 7   1308771.503 8
  20724031.292    -2950704.969 7  -2231059.400 9
  22101079.808     1966276.275 6   1495062.727 6
  21886488.198    -3416687.525 6  -2584142.855 6
  22481989.472    -2725152.807 6  -2063407.111 6
 95  2 19 16 18 59.9990000  0  5 25 14 15 22 29
  21743279.487     1775051.354 7   1350198.431 8
  20709638.737    -3026324.888 7  -2289984.019 9
  22112754.706     2027640.192 6   1542878.715 6
  21869665.886    -3505119.924 6  -2653051.190 6
  22467869.620    -2799366.084 6  -2121235.630 6
 95  2 19 16 19 29.9990000  0  5 25 14 15 22 29
  21753439.651     1828471.680 7   1391824.629 8
  20695317.495    -3101577.096 7  -2348622.116 9
  22124494.776     2089321.137 6   1590941.744 6
  21852902.058    -3593212.674 6  -2721694.864 6
  22453762.136    -2873505.564 6  -2179006.639 6
 95  2 19 16 19 59.9990000  0  5 25 14 15 22 29
  21763658.253     1882163.063 7   1433662.040 8
  20681074.612    -3176435.525 7  -2406953.370 9
  22136293.175     2151325.062 6   1639256.447 6
  21836202.823    -3680939.839 6  -2790053.679 6
  22439669.698    -2947554.201 6  -2236706.874 6
 95  2 19 16 20 29.9990000  0  5 25 14 15 22 29
  21773921.769     1936101.364 7   1475691.853 8
  20666899.417    -3250910.154 7  -2464985.556 9
  22148149.815     2213643.166 6   1687815.959 6
  21819590.433    -3768271.884 6  -2858104.602 6
  22425593.472    -3021529.179 6  -2294349.698 6
 95  2 19 16 20 59.9990000  0  5 25 14 15 22 29
  21784231.659     1990285.771 7   1517913.436 8
  20652803.526    -3324990.433 7
  22160072.651     2276279.905 6   1736623.765 6
  21803047.190    -3855183.234 6  -2925827.723 6
  22411530.394    -3095435.641 6
 95  2 19 16 21 29.9990000  0  5 25 14 15 22 29
  21794589.745     2044709.651 7   1560321.621 8
  20638783.183    -3398675.392 7  -2580127.326 9
  22172051.417     2339231.234 6   1785676.704 6
  21786592.104    -3941674.337 6  -2993223.380 6
  22397482.542    -3169262.166 6  -2409466.292 6
 95  2 19 16 21 59.9990000  0  5 25 14 15 22 29
  21804990.800     2099367.947 7   1602912.474 8
  20624832.831    -3471979.443 7  -2637247.379 9
  22184086.683     2402489.447 6   1834968.770 6
  21770209.956    -4027736.189 6  -3060284.555 6
  22383444.729    -3243019.169 6  -2466939.271 6
 95  2 19 16 22 29.9990000  0  5 25 14 15 22 29
  21815434.933     2154256.505 7   1645682.751 8
  20610954.394    -3544909.400 7  -2694075.933 9
  22196184.394     2466045.479 6   1884492.910 6
  21753919.503    -4113375.685 6  -3127016.620 6
  22369422.722    -3316708.849 6  -2524359.793 6
 95  2 19 16 22 59.9990000  0  5 25 14 15 22 29
  21825931.636     2209401.339 7   1688652.723 8
  20597152.198    -3617451.897 7  -2750602.555 9
  22208334.065     2529908.131 6   1934255.960 6
  21737700.597    -4198594.956 6  -3193421.234 6
  22355414.659    -3390306.913 6  -2581708.922 6
 95  2 19 16 23 29.9990000  0  5 25 14 15 22 29
  21836472.409     2264805.885 7   1731825.065 8
  20583419.097    -3689619.103 7  -2806836.753 9
  22220542.456     2594066.303 6   1984249.297 6
  21721557.401    -4283409.646 6  -3259510.591 6
  22341430.354    -3463817.879 6  -2638990.184 6
 95  2 19 16 23 59.9990000  0  5 25 14 15 22 29
  21847066.019     2320481.252 7   1775208.431 8
  20569761.667    -3761391.657 7  -2862763.418 9
  22232812.440     2658526.948 6   2034478.322 6
  21705499.698    -4367803.379 6  -3325271.936 6
  22327458.448    -3537236.534 6  -2696199.514 6
 95  2 19 16 24 29.9990000  0  5 25 14 15 22 29
  21857710.112     2376410.064 7   1818789.292 7
  20556176.808    -3832769.106 7  -2918382.211 9
  22245133.628     2723277.168 6   2084932.985 6
  21689518.534    -4451794.309 6  -3390719.414 6
  22313500.737    -3610569.699 6  -2753342.236 6
 95  2 19 16 24 59.9990000  0  5 25 14 15 22 29
  21868402.089     2432587.785 7   1862564.103 8
  20542670.909    -3903742.345 7  -2973686.039 9
  22257505.901     2788316.751 6   2135613.135 6
  21673615.136    -4535368.711 6  -3455842.307 7
  22299564.839    -3683819.987 6  -2810420.380 6
 95  2 19 16 25 29.9990000  0  5 25 14 15 22 29
  21879134.519     2488995.730 7   1906518.306 7
  20529244.214    -3974303.505 7  -3028668.765 9
  22269938.769     2853639.431 6   2186513.885 6
  21657790.948    -4618522.823 6  -3520637.708 7
  22285641.683    -3756990.428 6  -2867436.302 6
 95  2 19 16 25 59.9990000  0  5 25 14 15 22 29
  21889908.558     2545607.198 7   1950631.108 7
  20515894.698    -4044460.037 7  -3083336.193 9
  22282421.159     2919230.769 6   2237623.973 6
  21642044.761    -4701264.548 6  -3585111.771 7
  22271727.323    -3830090.496 6  -2924397.402 6
 95  2 19 16 26 29.9990000  0  5 25 14 15 22 29
  21900723.034     2602440.759 7   1994916.965 7
  20502624.550    -4114197.694 7  -3137677.227 9
  22294958.315     2985108.586 6   2288957.287 6
  21626380.565    -4783571.982 6  -3649247.415 7
  22257836.683    -3903095.614 6  -2981284.505 6
 95  2 19 16 26 59.9990000  0  5 25 14 15 22 29
  21911578.440     2659492.761 7   2039373.028 7
  20489430.636    -4183528.819 7  -3191701.487 9
  22307547.198     3051266.207 6   2340508.633 6
  21610805.323    -4865448.893 6  -3713047.593 7
  22243960.284    -3976018.592 6  -3038107.601 6
 95  2 19 16 27 29.9990000  0  5 25 14 15 22 29
  21922477.886     2716763.440 7   2083999.493 7
  20476315.042    -4252451.063 7  -3245407.134 9
  22320188.097     3117700.522 6   2392275.582 6
  21595304.050    -4946890.770 6  -3776508.774 7
  22230100.276    -4048853.567 6  -3094862.122 6
 95  2 19 16 27 59.9990000  0  5 25 14 15 22 29
  21933419.081     2774254.973 7   2128798.038 7
  20463274.378    -4320975.113 7  -3298802.501 9
  22332883.597     3184401.484 6   2444250.312 6
  21579890.870    -5027887.992 6  -3839623.477 7
  22216251.956    -4121612.954 6  -3151557.750 6
 95  2 19 16 28 29.9990000  0  5 25 14 15 22 29
  21944401.026     2831970.328 7   2173771.009 7
  20450309.628    -4389107.295 7  -3351892.516 9
  22345624.675     3251359.104 6   2496425.031 6
  21564564.659    -5108434.934 6  -3902387.315 7
  22202419.394    -4194301.555 6  -3208198.214 6
 95  2 19 16 28 59.9990000  0  5 25 14 15 22 29
  21955427.401     2889918.098 7   2218925.069 7
  20437422.675    -4456825.737 7  -3404660.137 9
  22358415.714     3318583.990 6   2548808.000 6
  21549323.987    -5188519.343 6  -3964790.736 7
  22188604.714    -4266900.613 6  -3264768.910 6
 95  2 19 16 29 29.9990000  0  5 25 14 15 22 29
  21966497.542     2948084.996 7   2264249.882 7
  20424616.003    -4524122.730 7  -3457099.362 9
  22371256.948     3386062.963 6   2601388.971 6
  21534170.097    -5268144.603 6  -4026836.380 7
  22174809.862    -4339418.090 6  -3321276.025 6
 95  2 19 16 29 59.9990000  0  5 25 14 15 22 29
  21977607.058     3006466.263 7   2309741.737 7
  20411891.784    -4590991.873 7  -3509205.181 9
  22384146.604     3453794.249 6   2654166.541 6
  21519105.269    -5347324.615 6  -4088535.080 7
  22161019.183    -4411867.624 6  -3377730.206 6
 95  2 19 16 30 29.9990000  0  5 25 14 15 22 29
  21988753.409     3065046.528 7   2355388.649 7
  20399251.229    -4657421.790 7  -3560968.759 9
  22397083.206     3521780.056 6   2707142.438 6
  21504118.284    -5426076.904 6  -4149900.491 7
  22147245.729    -4484242.775 6  -3434126.424 6
 95  2 19 16 30 59.9990000  0  5 25 14 15 22 29
  21999936.737     3123812.799 7   2401180.506 7
  20386692.933    -4723416.934 7  -3612393.552 9
  22410064.886     3590011.467 6   2760309.720 6
  21489210.253    -5504418.249 6  -4210945.686 7
  22133484.534    -4556555.321 6  -3490473.865 6
 95  2 19 16 31 29.9990000  0  5 25 14 15 22 29
  22011158.792     3182780.880 7   2447129.613 7
  20374214.894    -4788974.565 7  -3663477.429 9
  22423096.933     3658488.292 6   2813668.228 6
  21474381.933    -5582337.302 6  -4271661.823 7
  22119740.144    -4628810.442 6  -3546776.553 6
 95  2 19 16 31 59.9990000  0  5 25 14 15 22 29
  22022415.979     3241942.889 7   2493229.835 7
  20361821.550    -4854116.615 7  -3714237.476 9
  22436170.823     3727197.175 6   2867207.557 6
  21459634.167    -5659841.873 6  -4332054.991 7
  22105997.003    -4701002.424 6  -3603030.045 6
 95  2 19 16 32 29.9990000  0  5 25 14 15 22 29
  22033712.925     3301326.074 7   2539502.401 7
  20349503.636    -4918846.392 7  -3764676.272 9
  22449291.589     3796144.073 6   2920932.357 6
  21444973.292    -5736900.556 6  -4392100.714 7
  22092275.940    -4773105.911 6  -3659214.571 6
 95  2 19 16 32 59.9990000  0  5 25 14 15 22 29
  22045065.761     3360961.335 7   2585971.391 7
  20337265.167    -4983152.908 7  -3814785.255 9
  22462457.261     3865337.137 6   2974848.966 6
  21430397.854    -5813474.273 7  -4451768.534 7
  22078576.565    -4845104.218 6  -3715317.159 6
 95  2 19 16 33 29.9990000  0  5 25 14 15 22 29
  22056456.870     3420813.965 7   2632609.755 7
  20325109.308    -5047041.761 7  -3864568.781 9
  22475668.284     3934752.327 6   3028938.667 5
  21415922.581    -5889563.704 6  -4511058.995 7
  22064891.058    -4917015.914 6  -3771352.238 6
 95  2 19 16 33 59.9990000  0  5 25 14 15 22 29
  22067885.026     3480870.683 7   2679407.152 7
  20313032.222    -5110497.880 7  -3914015.122 8
  22488920.769     4004394.791 6   3083205.446 6
  21401534.870    -5965161.334 7  -4569966.234 7
  22051229.761    -4988834.433 6  -3827314.719 6
 95  2 19 16 34 29.9990000  0  5 25 14 15 22 29
  22079349.487     3541125.838 7   2726359.175 7
  20301046.425    -5173498.200 7  -3963106.291 9
  22502216.464     4074269.416 5   3137653.145 5
  21387243.245    -6040252.463 7  -4628478.792 7
  22037576.487    -5060568.285 6  -3883211.230 6
 95  2 19 16 34 59.9990000  0  5 25 14 15 22 29
  22090846.167     3601547.175 7   2773440.689 7
  20289151.651    -5236012.880 7  -4011819.041 8
  22515562.003     4144377.523 6   3192282.778 5
  21373048.019    -6114845.128 7  -4686602.936 7
  22023937.190    -5132230.721 6  -3939052.085 6
 95  2 19 16 35 29.9990000  0  6 25 18 14 15 22 29
  22102372.534     3662107.969 7   2820630.861 7
  24395719.136          -0.55513
  20277346.854    -5298047.412 7  -4060157.650 8
  22528942.620     4214703.642 5   3247082.281 5
  21358942.409    -6188971.320 7  -4744363.599 7
  22010309.417    -5203853.848 6  -3994862.313 6
 95  2 19 16 35 59.9990000  0  6 25 18 14 15 22 29
  22113922.995     3722815.375 7   2867935.289 7
  24377217.589      -97284.320 3
  20265627.495    -5359622.295 7  -4108138.094 8
  22542366.847     4285240.328 6   3302045.869 5
  21344920.144    -6262653.542 7  -4801778.299 7
  21996688.690    -5275436.773 6  -4050641.211 6
 95  2 19 16 36 29.9990000  0  6 25 18 14 15 22 29
  22125506.159     3783679.852 7   2915362.105 7
  24358704.128     -194563.212 3
  20253994.972    -5420738.779 7  -4155761.339 8
  22555830.190     4355990.084 6   3357175.477 5
  21330989.276    -6335875.248 7  -4858834.157 7
  21983079.706    -5346968.418 6  -4106380.149 6
 95  2 19 16 36 59.9990000  0  6 25 18 14 15 22 29
  22137122.339     3844720.841 7   2962926.463 7
  24340193.737     -291811.730 3        -0.14111
  20242449.276    -5481407.494 7  -4203035.680 8
  22569331.128     4426954.824 5   3412472.603 5
  21317147.565    -6408619.498 7  -4915517.971 7
  21969480.058    -5418435.079 6  -4162068.453 6
 95  2 19 16 37 29.9990000  0  6 25 18 14 15 22 29
  22148775.839     3905962.502 7   3010647.188 7
  24321700.354     -389034.592 3    -75758.237 1
  20230990.034    -5541642.753 7  -4249972.258 8
  22582874.323     4498131.258 5   3467934.687 5
  21303399.128    -6480864.033 7  -4971812.383 7
  21955895.003    -5489807.170 6  -4217683.068 7
 95  2 19 16 37 59.9990000  0  6 25 18 14 15 22 29
  22160469.081     3967390.687 7   3058513.250 7
  24303191.558     -486244.424 3
  20219608.776    -5601468.443 7  -4296589.692 9
  22596454.378     4569499.086 5   3523545.911 5
  21289746.745    -6552598.079 7  -5027709.025 7
  21942331.347    -5561075.899 6  -4273217.132 7
 95  2 19 16 38 29.9990000  0  6 25 18 14 15 22 29
  22172190.534     4029011.867 6   3106529.700 7
  24284696.714     -583444.064 3        -0.14711
  20208302.097    -5660867.570 7  -4342874.738 8
  22610076.464     4641059.739 5   3579307.390 5
  21276202.058    -6623788.993 7  -5083182.440 7
  21928786.776    -5632251.780 6  -4328678.858 7
 95  2 19 16 38 59.9990000  0  6 25 18 14 15 22 29
  22183959.823     4090849.846 6   3154715.075 7
  24266207.472     -680624.970 4    -75725.555 1
  20197086.495    -5719804.142 7  -4388799.350 8
  22623732.347     4712829.555 5   3635231.850 5
  21262756.956    -6694430.862 7  -5138228.027 7
  21915265.792    -5703311.227 6  -4384049.856 7
 95  2 19 16 39 29.9990000  0  6 25 18 14 15 22 29
  22195763.355     4152879.474 6   3203049.792 7
  24247708.690     -777828.677 3   -151468.726 1
  20185959.870    -5778285.525 7  -4434369.270 8
  22637428.081     4784789.223 5   3691304.250 5
  21249410.136    -6764565.667 7  -5192878.499 7
  21901762.183    -5774274.229 6  -4439345.698 7
 95  2 19 16 39 59.9990000  0  6 25 18 14 15 22 29
  22207600.761     4215089.732 6   3251525.255 7
  24229212.542     -875058.072 4
  20174915.354    -5836316.991 7  -4479588.605 8
  22651155.667     4856928.381 5   3747516.505 5
  21236157.159    -6834219.343 7  -5247154.070 7
  21888273.339    -5845166.284 6  -4494586.256 7
 95  2 19 16 40 29.9990000  0  6 25 18 14 15 22 29
  22219474.714     4277489.453 6   3300148.360 6
  24210710.448     -972287.652 4
  20163965.003    -5893868.786 7  -4524434.170 8
  22664919.769     4929261.921 5   3803880.229 5
  21222990.042    -6903388.246 7  -5301051.887 7
  21874798.831    -5915979.234 6  -4549765.171 7
 95  2 19 16 40 59.9990000  0  6 25 18 14 15 22 29
  22231383.144     4340057.212 6   3348902.389 6
  24192202.198    -1069503.290 3
  20153098.323    -5950951.399 7  -4568914.140 8
  22678722.425     5001783.285 5   3860390.302 5
  21209919.222    -6972099.852 7  -5354593.376 7
  21861339.854    -5986700.362 6  -4604872.538 7
 95  2 19 16 41 29.9990000  0  6 25 18 14 15 22 29
  22243318.058     4402784.901 6   3397781.052 6
  24173709.776    -1166703.600 4
  20142330.261    -6007561.665 7  -4613026.045 8
  22692555.933     5074488.608 5   3917043.731 5
  21196930.229    -7040335.532 7  -5407764.016 7
  21847899.808    -6057334.585 6  -4659912.197 7
 95  2 19 16 41 59.9990000  0  6 25 18 14 15 22 29
  22255285.214     4465667.520 6   3446780.429 6
  24155213.995    -1263869.076 4        -0.46611
  20131649.800    -6063681.063 7  -4656755.456 8
  22706423.409     5147377.920 5   3973840.523 5
  21184048.120    -7108062.277 7  -5460538.082 7
  21834472.003    -6127883.628 6  -4714885.475 7
 95  2 19 16 42 29.9990000  0  6 25 18 14 15 22 29
  22267276.237     4528687.320 6   3495886.706 6
  24136742.722    -1361001.491 4    -75688.066 1
  20121067.339    -6119293.657 7  -4700089.958 8
  22720328.854     5220445.488 5   4030776.214 5
  21171253.315    -7175278.683 7  -5512914.482 7
  21821067.854    -6198348.435 6  -4769793.122 7
 95  2 19 16 42 59.9990000  0  6 25 18 14 15 22 29
  22279295.753     4591842.777 6   3545098.689 6
  24118250.714    -1458118.348 3   -151363.537 1
  20110578.159    -6174403.453 7  -4743032.669 8
  22734265.597     5293682.868 5   4087844.215 5
  21158560.464    -7241990.556 7  -5564897.746 7
  21807670.526    -6268734.173 6  -4824639.148 7
 95  2 19 16 43 29.9990000  0  6 25 18 14 15 22 29
  22291340.737     4655143.090 6   3594423.540 6
  24099775.644    -1555229.576 3   -227034.632 1
  20100190.378    -6229007.093 7  -4785580.971 8
  22748234.964     5367086.544 5   4145041.799 5
  21145961.690    -7308177.056 7  -5616471.627 7
  21794291.839    -6339044.549 6  -4879426.453 7
 95  2 19 16 43 59.9990000  0  6 25 18 14 15 22 29
  22303414.862     4718582.547 6   3643856.824 6
  24081302.112    -1652334.847 3   -302701.062 1
  20089888.058    -6283133.143 7  -4827757.122 8
  22762234.526     5440643.721 5   4202358.993 5
  21133464.940    -7373855.294 7  -5667649.458 8
  21780927.253    -6409283.888 6  -4934158.413 7
 95  2 19 16 44 29.9980000  0  6 25 18 14 15 22 29
  22315512.553     4782167.694 6   3693403.638 6
  24062821.029    -1749432.109 3   -378361.241 3
  20079679.623    -6336792.664 7  -4869569.747 8
  22776260.303     5514349.447 5   4259791.947 5
  21121064.397    -7439031.260 7  -5718435.914 8
  21767574.100    -6479440.524 6  -4988825.921 7
 95  2 19 16 44 59.9980000  0  6 25 18 14 15 22 29
  22327650.451     4845950.260 6   3743104.278 6
  24044348.209    -1846498.783 3   -453997.590 1
  20069555.990    -6389984.386 7  -4911017.854 9
  22790316.740     5588228.417 5   4317359.896 5
  21108767.271    -7503660.138 7  -5768796.066 8
  21754241.779    -6549491.381 6  -5043411.004 7
 95  2 19 16 45 29.9980000  0  6 25 18 14 15 22 29
  22339821.795     4909914.997 6   3792946.869 6
  24025881.123    -1943545.528 3   -529618.427 2
  20059521.795    -6442728.437 7  -4952117.122 8
  22804405.318     5662260.010 5   4375046.768 5
  21096569.912    -7567745.299 7  -5818732.543 8
  21740928.373    -6619451.706 6  -5097925.545 7
 95  2 19 16 45 59.9980000  0  6 25 18 14 15 22 29
  22352030.162     4974058.057 6   3842928.411 6
  24007421.811    -2040564.417 3   -605217.554 1
  20049570.607    -6495001.710 7  -4992849.558 8
  22818523.615     5736449.694 5   4432856.828 5
  21084481.873    -7631284.519 7  -5868243.617 8
  21727635.834    -6689319.535 7  -5152368.009 7
 95  2 19 16 46 29.9980000  0  6 25 18 14 15 22 29
  22364263.521     5038351.935 6   3893027.476 6
  23988956.623    -2137583.740 3   -680817.002 1
  20039713.232    -6546796.788 7  -5033209.365 8
  22832667.529     5810782.940 5   4490778.739 5
  21072492.506    -7694287.018 7  -5917336.461 8
  21714357.732    -6759114.745 7  -5206753.886 7
 95  2 19 16 46 59.9980000  0  6 25 18 14 15 22 29
  22376523.107     5102782.199 6   3943232.819 6
  23970495.662    -2234617.350 3   -756427.565 2
  20029954.732    -6598097.367 7  -5073183.853 9
  22846838.256     5885254.343 5   4548808.329 5
  21060599.975    -7756763.905 7  -5966019.745 8
  21701085.068    -6828842.330 7  -5261087.075 7
 95  2 19 16 47 29.9980000  0  6 25 18 14 15 22 29
  22388807.342     5167328.257 6   3993528.386 6
  23952020.545    -2331667.761 3   -832051.264 3
  20020291.951    -6648875.541 7  -5112751.270 8
  22861039.631     5959869.862 5   4606950.199 5
  21048811.146    -7818726.672 7  -6014302.415 8
  21687834.178    -6898486.821 7  -5315355.503 7
 95  2 19 16 47 59.9980000  0  6 25 18 14 15 22 29
  22401108.748     5231989.446 6   4043913.669 6
  23933552.865    -2428714.109 3   -907671.778 1
  20010730.857    -6699110.348 7  -5151895.288 8
  22875262.428     6034630.454 5   4665205.131 5
  21037120.365    -7880166.769 7  -6062177.815 8
  21674599.154    -6968028.368 7  -5369543.735 7
 95  2 19 16 48 29.9980000  0  6 25 18 14 15 22 29
  22413439.639     5296764.672 6   4094387.799 6
  23915091.842    -2525761.679 3   -983293.242 2
  20001269.045    -6748829.807 7  -5190637.733 8
  22889510.084     6109516.147 5   4723557.539 5
  21025526.264    -7941096.682 7  -6109655.666 8
  21661382.670    -7037472.231 7  -5423655.836 7
 95  2 19 16 48 59.9980000  0  6 25 18 14 15 22 29
  22425790.162     5361667.247 6   4144961.159 6
  23896622.764    -2622796.602 3  -1058904.839 4
  19991905.326    -6798054.108 7  -5228994.343 8
  22903785.928     6184516.730 5   4781999.469 5
  21014026.365    -8001509.278 7  -6156730.406 8
  21648184.529    -7106821.522 7  -5477694.243 7
 95  2 19 16 49 29.9980000  0  6 25 18 14 15 22 29
  22438165.084     5426707.269 6   4195641.634 6
  23878163.295    -2719801.600 3  -1134493.133 2
  19982629.326    -6846793.579 7  -5266973.165 8
  22918080.803     6259636.424 5   4840534.217 5
  21002635.248    -8061376.911 7  -6203380.507 7
  21635008.045    -7176071.738 7  -5531655.457 7
 95  2 19 16 49 59.9980000  0  6 25 18 14 15 22 29
  22450570.209     5491891.309 6   4246434.329 6
  23859712.990    -2816770.982 3  -1210053.664 2
  19973443.100    -6895061.980 7  -5304584.911 8
  22932398.537     6334872.263 5   4899159.464 5
  20991348.029    -8120697.275 7  -6249604.160 7
  21621846.670    -7245242.806 7  -5585554.994 7
 95  2 19 16 50 29.9980000  0  6 25 18 14 15 22 29
  22463002.092     5557230.723 6   4297348.070 6
  23841265.475    -2913710.303 3  -1285590.751 3
  19964344.248    -6942863.048 7  -5341832.513 8
  22946735.850     6410231.872 5   4957881.152 5
  20980167.998    -8179462.184 7  -6295394.994 8
  21608696.209    -7314344.367 7  -5639400.363 7
 95  2 19 16 50 59.9980000  0  6 25 18 14 15 22 29
  22475457.920     5622684.855 6   4348351.228 6
  23822817.920    -3010653.975 4  -1361131.234 4
  19955336.396    -6990202.452 7  -5378720.373 8
  22961097.646     6485695.068 5   5016683.547 5
  20969086.982    -8237694.560 7  -6340770.869 8
  21595554.639    -7383403.050 6  -5693212.321 7
 95  2 19 16 51 29.9980000  0  6 25 18 14 15 22 29
  22487933.818     5688245.119 6   4399437.078 6
  23804374.795    -3107613.309 4  -1436683.928 1
  19946420.998    -7037061.943 7  -5415234.272 8
  22975476.600     6561263.257 5   5075567.769 5
  20958104.459    -8295397.567 7  -6385734.251 8
  21582423.842    -7452410.252 7  -5746984.170 7
 95  2 19 16 51 59.9980000  0  6 25 18 14 15 22 29
  22500428.357     5753907.234 6   4450602.293 6
  23785911.920    -3204599.639 4  -1512257.653 2
  19937595.811    -7083431.931 7  -5451366.743 8
  22989879.146     6636927.762 5   5134527.036 5
  20947226.912    -8352577.874 7  -6430290.333 7
  21569299.553    -7521367.541 7  -5800717.120 7
 95  2 19 16 52 29.9980000  0  6 25 18 14 15 22 29
  22512946.100     5819686.047 6   4501858.423 6
  23767451.990    -3301602.004 4  -1587843.872 2
  19928871.068    -7129280.610 7  -5487093.003 8
  23004296.670     6712703.821 5   5193573.220 5
  20936450.865    -8409202.612 7  -6474413.510 8
  21556192.490    -7590243.210 7  -5854386.474 7
 95  2 19 16 52 59.9980000  0  6 25 18 14 15 22 29
  22525487.623     5885580.193 6   4553204.434 6
  23748993.365    -3398605.322 4  -1663430.855 2
  19920248.764    -7174596.477 7  -5522404.082 8
  23018736.975     6788594.257 5   5252708.511 4
  20925782.225    -8465260.258 7  -6518094.800 8
  21543105.521    -7659018.976 7  -5907977.979 7
 95  2 19 16 53 29.9980000  0  6 25 18 14 15 22 29
  22538047.693     5951593.728 6   4604643.484 6
  23730537.889    -3495604.172 5  -1739014.346 2
  19911720.740    -7219398.303 7  -5557314.612 8
  23033201.967     6864585.502 5   5311922.375 5
  20915223.451    -8520747.395 7  -6561331.524 8
  21530040.123    -7727702.905 7  -5961497.920 7
 95  2 19 16 53 59.9980000  0  6 25 18 14 15 22 29
  22550632.076     6017712.120 6   4656164.230 6
  23712080.021    -3592594.468 5  -1814591.165 2
  19903293.873    -7263693.032 7  -5591830.004 8
  23047675.654     6940662.260 5   5371202.855 5
  20904767.467    -8575678.170 7  -6604134.732 8
  21516982.787    -7796310.591 7  -6014958.458 7
 95  2 19 16 54 29.9980000  0  6 25 18 14 15 22 29
  22563231.818     6083928.574 6   4707761.403 6
  23693623.271    -3689573.213 5  -1890158.984 3
  19894960.264    -7307489.553 7  -5625957.180 8
  23062164.178     7016815.109 5   5430542.648 5
  20894420.967    -8630062.091 7  -6646511.811 8
  21503940.529    -7864845.027 7  -6068361.914 7
 95  2 19 16 54 59.9980000  0  6 25 18 14 15 22 29
  22575851.381     6150253.779 6   4759443.318 6
  23675177.951    -3786523.141 5  -1965704.369 2
  19886725.975    -7350770.227 7  -5659682.392 8
  23076676.232     7093052.488 5   5489948.303 5
  20884171.873    -8683891.849 7  -6688457.073 8
  21490917.154    -7933296.834 7  -6121700.987 7
 95  2 19 16 55 29.9980000  0  6 25 18 14 15 22 29
  22588491.826     6216691.385 6   4811212.822 6
  23656729.389    -3883455.904 5  -2041236.346 2
  19878590.084    -7393526.877 7  -5692999.278 8
  23091201.389     7169370.951 5   5549417.142 5
  20874035.006    -8737173.680 7  -6729975.385 8
  21477904.498    -8001665.454 7  -6174975.228 7
 95  2 19 16 55 59.9980000  0  6 25 18 14 15 22 29
  22601153.193     6283226.676 6   4863058.428 6
  23638287.678    -3980386.117 5  -2116766.388 2
  19870552.537    -7435756.427 7  -5725905.442 8
  23105738.092     7245767.913 5   5608947.157 5
  20863999.279    -8789912.569 7  -6771070.620 8
  21464910.459    -8069943.988 7  -6228179.278 7
 95  2 19 16 56 29.9980000  0  6 25 18 14 15 22 29
  22613831.756     6349843.155 6   4914967.312 6
  23619833.740    -4077344.683 5  -2192318.482 1
  19862611.146    -7477477.704 7  -5758415.532 8
  23120288.975     7322230.755 5   5668528.507 5
  20854066.654    -8842113.911 7  -6811746.994 8
  21451937.482    -8138136.925 7  -6281316.628 7
 95  2 19 16 56 59.9980000  0  6 25 18 14 15 22 29
  22626527.740     6416543.305 6   4966941.397 6
  23601377.881    -4174315.463 4  -2267880.091 2
  19854771.881    -7518680.306 7  -5790521.462 8
  23134852.389     7398770.620 5   5728169.852 5
  20844240.443    -8893759.486 7  -6851990.295 8
  21438976.693    -8206231.001 7  -6334376.953 7
 95  2 19 16 57 29.9980000  0  6 25 18 14 15 22 29
  22639235.459     6483332.358 6   5018984.748 6
  23582922.576    -4271293.360 4  -2343447.283 2
  19847028.732    -7559381.455 7  -5822236.650 8
  23149435.068     7475383.138 5   5787867.817 5
  20834514.740    -8944849.724 7  -6891800.864 8
  21426039.662    -8274226.317 7  -6387360.316 7
 95  2 19 16 57 59.9980000  0  6 25 18 14 15 22 29
  22651960.529     6550203.529 6   5071092.085 6
  23564474.990    -4368260.461 4  -2419006.034 2
  19839377.123    -7599581.180 7  -5853561.122 8
  23164024.482     7552063.509 5   5847618.666 5
  20824899.334    -8995378.783 7  -6931174.153 8
  21413117.584    -8342140.781 7  -6440280.676 7
 95  2 19 16 58 29.9980000  0  6 25 18 14 15 22 29
  22664702.365     6617153.983 6   5123261.200 6
  23546029.146    -4465196.224 4  -2494540.371 2
  19831822.771    -7639272.897 7  -5884489.744 8
  23178625.053     7628803.508 5   5907415.971 5
  20815397.670    -9045337.141 7  -6970102.745 8
  21400201.936    -8409986.985 7  -6493147.847 7
 95  2 19 16 58 59.9980000  0  6 25 18 14 15 22 29
  22677460.225     6684191.009 6   5175497.786 6
  23527590.740    -4562085.699 4  -2570038.662 1
  19824369.178    -7678453.485 7  -5915020.089 8
  23193238.217     7705593.863 5   5967252.515 4
  20805996.045    -9094725.599 7  -7008587.250 8
  21387303.615    -8477780.265 7  -6545973.776 7
 95  2 19 16 59 29.9980000  0  6 25 18 14 15 22 29
  22690230.475     6751323.583 6   5227808.826 6
  23509162.068    -4658928.959 4  -2645500.914 2
  19817012.865    -7717101.711 7  -5945135.601 8
  23207861.584     7782436.715 5   6027129.964 5
  20796706.350    -9143543.510 7  -7046627.178 8
  21374414.756    -8545519.503 7  -6598757.598 7
 95  2 19 16 59 59.9980000  0  6 25 18 14 15 22 29
  22703023.670     6818539.335 6   5280184.671 6
  23490743.068    -4755734.212 4  -2720933.543 2
  19809761.303    -7755204.879 7  -5974826.393 8
  23222494.506     7859330.232 5   6087046.908 5
  20787527.600    -9191787.520 7  -7084219.910 8
  21361535.717    -8613193.510 7  -6651490.589 7
 95  2 19 17  0 29.9980000  0  6 25 18 14 15 22 29
  22715826.162     6885826.983 6   5332616.534 6
  23472313.365    -4852544.694 4  -2796370.274 3
  19802614.943    -7792784.148 7  -6004108.948 8
  23237134.771     7936255.157 5   6146988.325 4
  20778449.982    -9239475.419 7  -7121379.307 8
  21348667.967    -8680793.855 7  -6704166.181 8
 95  2 19 17  0 59.9980000  0  6 25 18 14 15 22 29
  22728650.928     6953212.989 6   5385125.030 6
  23453894.186    -4949372.737 4  -2871820.657 2
  19795561.014    -7829832.183 7  -6032977.563 8
  23251783.451     8013224.500 5   6206964.351 4
  20769483.365    -9286613.733 7  -7158110.454 8
  21335823.615    -8748301.404 7  -6756769.472 7
 95  2 19 17  1 29.9980000  0  6 25 18 14 15 22 29
  22741492.092     7020687.644 6   5437702.599 6
  23435461.990    -5046227.120 4  -2947291.568 2
  19788616.654    -7866342.022 7  -6061426.802 8
  23266441.232     8090246.189 5   6266981.154 3
  20760616.256    -9333185.857 7  -7194400.418 8
  21323000.912    -8815693.713 7  -6809282.959 7
 95  2 19 17  1 59.9980000  0  6 25 18 14 15 22 29
  22754344.412     7088237.838 6   5490339.041 5
  23417024.271    -5143122.635 4  -3022794.545 2
  19781765.725    -7902329.063 7  -6089468.667 8
  23281103.881     8167303.813 5   6327025.957 4
  20751867.053    -9379183.983 7  -7230243.111 8
  21310199.084    -8882972.816 7  -6861708.234 7
 95  2 19 17  2 29.9980000  0  6 25 18 14 15 22 29
  22767219.553     7155876.848 6   5543044.705 6
  23398574.678    -5240045.681 4  -3098318.952 3
  19775021.850    -7937783.466 7  -6117095.489 8
  23295772.084     8244399.546 5   6387100.461 3
  20743219.529    -9424603.089 7  -7265634.617 8
  21297415.576    -8950144.658 7  -6914049.931 8
 95  2 19 17  2 59.9980000  0  6 25 18 14 15 22 29
  22780103.404     7223589.117 6   5595807.449 6
  23380132.209    -5336980.939 4  -3173852.909 3
  19768372.303    -7972707.606 7  -6144309.116 8
  23310451.061     8321524.092 5   6447197.415 3
  20734694.068    -9469438.002 7  -7300570.914 8
  21284647.771    -9017228.825 7  -6966323.305 8
 95  2 19 17  3 29.9980000  0  6 25 18 14 15 22 29
  22792996.264     7291366.803 6   5648621.167 6
  23361693.209    -5433909.347 5  -3249381.505 4
  19761832.014    -8007092.904 7  -6171102.876 8
  23325129.896     8398674.746 5   6507314.716 2
  20726276.553    -9513665.881 7  -7335034.190 8
  21271899.865    -9084213.206 7  -7018518.931 8
 95  2 19 17  3 59.9980000  0  6 25 18 14 15 22 29
  22805912.311     7359225.131 6   5701497.712 6
  23343247.318    -5530815.964 4  -3324893.135 3
  19755390.568    -8040946.457 7  -6197482.286 8
  23339811.506     8475846.690 4   6567448.608 2
  20717970.928    -9557295.688 7  -7369031.436 8
  21259173.248    -9151103.419 7  -7070641.178 7
 95  2 19 17  4 29.9980000  0  6 25 18 14 15 22 29
  22818841.514     7427161.776 6   5754435.278 6
  23324808.975    -5627696.911 5  -3400384.753 3
  19749046.420    -8074276.504 7  -6223453.761 8
  23354506.670     8553040.954 4   6627599.893 4
  20709783.084    -9600340.007 7  -7402572.459 8
  21246462.271    -9217906.965 7  -7122695.897 7
 95  2 19 17  4 59.9980000  0  6 25 18 14 15 22 29
  22831782.732     7495163.761 6   5807423.755 6
  23306383.139    -5724554.339 5  -3475858.044 4
  19742803.115    -8107081.179 7  -6249015.859 8
  23369196.209     8630256.391 4   6687767.678 2
  20701703.334    -9642795.962 7  -7435655.020 8
  21233767.842    -9284609.088 7  -7174671.580 8
 95  2 19 17  5 29.9980000  0  6 25 18 14 15 22 29
  22844732.990     7563231.991 6   5860463.870 6
  23287950.123    -5821396.663 5  -3551319.571 4
  19736662.936    -8139361.955 7  -6274169.723 8
  23383894.576     8707488.568 4   6747948.496 4
  20693730.475    -9684682.999 7  -7468294.268 8
  21221096.818    -9351206.562 7  -7226565.724 8
 95  2 19 17  5 59.9980000  0  6 25 18 14 15 22 29
  22857696.373     7631351.724 6   5913544.111 6
  23269524.701    -5918238.928 5  -3626781.072 4
  19730619.139    -8171127.183 7  -6298921.866 8
  23398588.381     8784724.559 4   6808132.295 4
  20685864.178    -9726020.072 7  -7500504.969 8
  21208438.701    -9417724.157 7  -7278397.622 7
 95  2 19 17  6 29.9980000  0  6 25 18 14 15 22 29
  22870670.936     7699522.790 6   5966664.365 6
  23251093.240    -6015077.384 5  -3702239.578 4
  19724673.592    -8202350.184 7  -6323251.489 8
  23413293.037     8861972.297 4   6868325.220 4
  20678107.279    -9766793.229 7  -7532276.253 8
  21195798.131    -9484147.701 7  -7330156.234 8
 95  2 19 17  6 59.9980000  0  6 25 18 14 15 22 29
  22883655.975     7767758.895 6   6019835.286 6
  23232664.748    -6111900.419 5  -3777686.071 5
  19718838.193    -8233016.812 7  -6347147.584 8
  23427993.693     8939231.567 4   6928527.125 4
  20670461.678    -9806989.162 7  -7563597.758 8
  21183176.131    -9550473.732 7  -7381838.863 8
 95  2 19 17  7 29.9980000  0  7 25 18 14 15 22 29 19
  22896650.318     7836056.804 6   6073054.376 5
  23214246.873    -6208715.118 5  -3853126.081 4
  19713104.053    -8263141.500 7  -6370621.378 8
  23442697.725     9016485.956 4   6988725.248 4
  20662917.904    -9846605.086 7  -7594467.310 8
  21170569.217    -9616737.720 7  -7433473.147 8
  24142595.146     -110318.069 3
 95  2 19 17  7 59.9980000  0  7 25 18 14 15 22 29 19
  22909662.107     7904427.399 6   6126330.078 5
  23195827.209    -6305506.844 5  -3928548.177 4
  19707481.264    -8292703.773 7  -6393656.930 8
  23457395.412     9093749.864 4   7048930.784 4
  20655498.107    -9885599.996 7  -7624852.954 8
  21157969.529    -9682928.195 7  -7485050.143 8
  24121635.115     -220484.272 3        -0.14911
 95  2 19 17  8 29.9980000  0  7 25 18 14 15 22 29 19
  22922681.006     7972855.007 6   6179650.248 5
  23177409.014    -6402290.251 5  -4003963.799 3
  19701961.256    -8321718.802 7  -6416266.059 8
  23472100.084     9171007.017 5   7109131.055 4
  20648191.295    -9923985.066 7  -7654763.393 8
  21145387.717    -9749055.180 7  -7536577.669 8
  24100695.021     -330517.098 3    -85739.995 1
 95  2 19 17  8 59.9980000  0  7 25 18 14 15 22 29 19
  22935716.279     8041338.105 6   6233013.646 6
  23158995.498    -6499055.087 5  -4079364.935 4
  19696544.764    -8350180.806 7  -6438444.262 7
  23486801.428     9248262.656 5   7169330.149 5
  20641002.381    -9961761.205 7  -7684199.346 8
  21132818.811    -9815117.356 7  -7588054.686 8
  24079779.951     -440415.221 3   -171374.879 1
 95  2 19 17  9 29.9980000  0  7 25 18 14 15 22 29 19
  22948751.600     8109851.406 6   6286400.577 5
  23140582.014    -6595830.733 5  -4154774.490 3
  19691232.178    -8378099.755 7  -6460199.300 7
  23501497.412     9325500.945 5   7229515.719 4
  20633926.146    -9998948.117 7  -7713176.160 8
  21120258.428    -9881115.466 7  -7639481.783 8
  24058885.201     -550193.542 4   -256916.395 1
 95  2 19 17  9 59.9980000  0  7 25 18 14 15 22 29 19
  22961801.115     8178407.266 6   6339820.655 5
  23122163.154    -6692612.270 5  -4230188.646 3
  19686025.396    -8405466.261 7  -6481523.866 8
  23516195.006     9402730.051 5   7289694.125 4
  20626960.639   -10035554.536 7  -7741700.643 8
  21107717.717    -9947017.144 7  -7690833.742 8
  24038022.123     -659849.046 3   -342362.205 2
 95  2 19 17 10 29.9980000  0  7 25 18 14 15 22 29 19
  22974853.787     8246996.745 6   6393266.932 5
  23103743.920    -6789396.865 5  -4305605.185 4
  19680920.232    -8432292.893 7  -6502427.749 7
  23530889.186     9479936.816 5   7349855.125 5
  20620097.475   -10071607.083 7  -7769793.529 8
  21095195.404   -10012822.089 7  -7742110.321 8
  24017183.006     -769372.190 3   -427704.911 1
 95  2 19 17 10 59.9980000  0  7 25 18 14 15 22 29 19
  22987911.037     8315633.013 5   6446749.686 5
  23085331.787    -6886166.041 5  -4381009.703 3
  19675919.904    -8458566.721 7  -6522900.869 7
  23545574.889     9557131.231 5   7410006.517 3
  20613349.717   -10107090.245 7  -7797442.744 8
  21082694.709   -10078507.362 7  -7793293.649 8
  23996362.897     -878744.460 3   -512930.023 1
 95  2 19 17 11 29.9980000  0  7 25 18 14 15 22 29 19
  23000983.967     8384326.958 6   6500277.387 5
  23066920.146    -6982921.405 5  -4456403.486 3
  19671024.420    -8484292.424 7  -6542946.888 8
  23560258.959     9634305.774 5   7470142.426 4
  20606707.467   -10141993.495 7  -7824640.075 8
  21070216.303   -10144074.298 7  -7844384.764 8
  23975584.654     -987960.672 3   -598033.579 1
 95  2 19 17 11 59.9980000  0  7 25 18 14 15 22 29 19
  23014067.623     8453070.764 6   6553843.921 5
  23048512.646    -7079652.543 5  -4531778.378 4
  19666228.381    -8509484.493 7  -6562577.086 8
  23574942.647     9711448.764 5   7530253.737 3
  20600174.396   -10176324.299 7  -7851391.348 8
  21057760.990   -10209543.490 7  -7895399.724 8
  23954829.022    -1097009.352 3   -683006.566 2
 95  2 19 17 12 29.9980000  0  7 25 18 14 15 22 29 19
  23027155.100     8521856.844 6   6607443.391 5
  23030111.029    -7176356.372 5  -4607131.968 3
  19661538.600    -8534128.225 7  -6581780.008 8
  23589620.186     9788563.397 5   7590342.938 3
  20593755.779   -10210063.760 7  -7877681.835 8
  21045317.936   -10274919.103 7  -7946341.753 8
  23934115.490    -1205870.413 3   -767833.351 1
 95  2 19 17 12 59.9980000  0  7 25 18 14 15 22 29 19
  23040253.350     8590686.532 5   6661076.847 5
  23011713.068    -7273043.432 5  -4682472.523 3
  19656952.982    -8558219.252 7  -6600552.252 8
  23604290.381     9865649.008 5   7650409.528 3
  20587450.506   -10243196.539 7  -7903499.578 8
  21032894.865   -10340212.502 7  -7997219.726 8
  23913437.787    -1314551.473 3   -852519.880 2
 95  2 19 17 13 29.9980000  0  7 25 18 14 15 22 29 19
  23053357.998     8659550.443 6   6714736.990 5
  22993313.115    -7369722.596 5  -4757806.904 3
  19652472.146    -8581762.580 7  -6618897.719 7
  23618948.295     9942693.257 4   7710443.904 3
  20581261.639   -10275723.831 7  -7928845.515 8
  21020480.561   -10405442.804 7  -8048048.533 8
  23892792.670    -1423064.758 3   -937075.679 2
 95  2 19 17 13 59.9980000  0  7 25 18 14 15 22 29 19
  23066464.037     8728425.677 6   6768405.947 5
  22974916.412    -7466401.162 5  -4833140.826 4
  19648099.475    -8604763.702 7  -6636820.685 8
  23633603.334    10019689.421 4   7770440.810 4
  20575183.451   -10307650.400 7  -7953723.363 8
  21008081.295   -10470608.772 7  -8098827.205 8
  23872163.053    -1531422.697 3  -1021510.412 2
 95  2 19 17 14 29.9980000  0  7 25 18 14 15 22 29 19
  23079575.045     8797323.042 6   6822092.125 5
  22956520.232    -7563076.702 5  -4908472.409 4
  19643831.514    -8627196.286 7  -6654300.640 8
  23648248.146    10096646.598 5   7830407.320 1
  20569222.311   -10338964.939 7  -7978124.294 8
  20995698.311   -10535685.628 7  -8149536.445 8
  23851577.139    -1639629.466 3  -1105827.364 2
 95  2 19 17 14 59.9980000  0  7 25 18 14 15 22 29 19
  23092691.764     8866245.444 5   6875797.844 5
  22938122.475    -7659745.239 5  -4983798.496 3
  19639666.256    -8649070.053 7  -6671345.156 8
  23662884.842    10173550.367 4   7890332.234 2
  20563376.897   -10369693.036 7  -8002068.265 8
  20983331.654   -10600672.341 7  -8200175.445 8
  23831010.201    -1747691.040 3  -1190031.142 2
 95  2 19 17 15 29.9980000  0  7 25 18 14 15 22 29 19
  23105810.592     8935194.491 5   6929524.327 5
  22919729.865    -7756402.716 5  -5059115.989 3
  19635609.639    -8670385.750 7  -6687954.804 7
  23677498.904    10250399.493 3   7950214.555 2
  20557644.514   -10399838.775 7  -8025558.449 9
  20970984.951   -10665549.362 7  -8250728.965 8
  23810483.982    -1855601.287 3  -1274117.027 4
 95  2 19 17 15 59.9980000  0  7 25 18 14 15 22 29 19
  23118933.990     9004161.013 5   6983264.408 5
  22901340.506    -7853062.161 5  -5134435.009 3
  19631658.600    -8691154.920 7  -6704138.598 8
  23692118.779    10327187.967 3   8010049.610 3
  20552013.584   -10429413.244 7  -8048603.482 8
  20958661.396   -10730311.502 7  -8301192.978 8
  23789973.436    -1963358.668 3  -1358083.776 4
 95  2 19 17 16 29.9980000  0  7 25 18 14 15 22 29 19
  23132065.693     9073159.252 5   7037029.176 5
  22882946.061    -7949716.551 5  -5209750.106 4
  19627811.850    -8711373.114 7  -6719893.052 8
  23706715.420    10403917.949 3   8069839.109 1
  20546493.006   -10458415.590 7  -8071202.711 8
  20946361.717   -10794948.797 7  -8351559.705 8
  23769494.232    -2070954.853 3  -1441924.905 4
 95  2 19 17 16 59.9980000  0  7 25 18 14 15 22 29 19
  23145197.412     9142173.043 5   7090806.113 5
  22864551.850    -8046376.711 5  -5285069.675 5
  19624059.834    -8731073.166 7  -6735243.766 8
  23721308.506    10480575.194 3   8129571.913 2
  20541086.857   -10486840.254 7  -8093351.799 9
  20934081.654   -10859478.779 7  -8401842.814 8
  23749050.498    -2178401.075 3  -1525649.186 4
 95  2 19 17 17 29.9980000  0  7 25 18 14 15 22 29 19
  23158334.529     9211203.353 5   7144595.898 5
  22846158.826    -8143042.544 5  -5360393.681 4
  19620415.311    -8750246.777 7  -6750184.262 8
  23735878.826    10557168.158 3   8189254.616 2
  20535790.256   -10514654.648 7  -8115025.352 9
  20921822.764   -10923899.514 7  -8452040.783 8
  23728634.201    -2285705.448 3  -1609262.942 4
 95  2 19 17 17 59.9980000  0  7 25 18 14 15 22 29 19
  23171477.662     9280261.416 6   7198407.249 5
  22827763.311    -8239704.852 5  -5435714.927 4
  19616867.123    -8768879.908 7  -6764703.603 8
  23750444.389    10633694.749 4   8248885.590 1
  20530612.646   -10541866.037 7  -8136229.030 9
  20909582.670   -10988223.933 7  -8502163.718 8
  23708236.662    -2392864.505 3  -1692763.445 3
 95  2 19 17 18 29.9980000  0  7 25 18 14 15 22 29 19
  23184620.475     9349334.558 6   7252230.405 5
  22809369.490    -8336368.122 5  -5511036.925 5
  19613422.928    -8786983.017 7  -6778809.940 8
  23764984.912    10710134.858 3   8308449.243 1
  20525547.521   -10568492.106 7  -8156976.609 9
  20897354.990   -11052475.470 7  -8552229.849 8
  23687877.529    -2499896.631 4  -1776165.042 3
 95  2 19 17 18 59.9980000  0  7 25 18 14 15 22 29 19
  23197768.521     9418431.814 5   7306072.358 5
  22790973.061    -8433024.535 5  -5586353.583 4
  19610081.365    -8804542.484 7  -6792492.659 8
  23779515.553    10786494.038 3   8367949.777 1
  20520595.076   -10594517.521 7  -8177256.153 9
  20885141.764   -11116653.613 7  -8602238.792 8
  23667526.740    -2606792.289 3  -1859460.288 4
 95  2 19 17 19 29.9980000  0  7 25 18 14 15 22 29 19
  23210925.100     9487573.829 5   7359949.154 5
  22772586.936    -8529650.585 5  -5661646.584 5
  19606850.928    -8821521.967 7  -6805723.441 8
  23794036.232    10862787.759 3   8427399.352 2
  20515754.928   -10619941.427 7  -8197066.990 9
  20872947.748   -11180735.083 7  -8652172.409 8
  23647213.709    -2713531.810 3  -1942633.876 3
 95  2 19 17 19 59.9980000  0  7 25 18 14 15 22 29 19
  23224085.521     9556737.731 5   7413843.107 5
  22754205.896    -8626252.605 5  -5736920.861 5
  19603726.490    -8837933.934 7  -6818512.008 7
  23808544.396    10939004.653 4   8486789.004 2
  20511032.037   -10644774.419 7  -8216417.369 8
  20860773.436   -11244714.299 7  -8702026.344 8
  23626937.420    -2820102.284 3  -2025675.754 4
 95  2 19 17 20 29.9980000  0  7 25 18 14 15 22 29 19
  23237247.717     9625898.957 5   7467734.879 4
  22735824.061    -8722839.471 5  -5812183.319 5
  19600711.725    -8853787.539 7  -6830865.486 7
  23823028.600    11015139.361 3   8546114.639 1
  20506421.857   -10669003.404 7  -8235297.092 9
  20848619.756   -11308582.213 7  -8751793.548 8
  23606689.514    -2926506.461 4  -2108588.047 5
 95  2 19 17 20 59.9980000  0  7 25 18 14 15 22 29 19
  23250408.943     9695045.522 5   7521615.174 5
  22717445.482    -8819425.901 5  -5887445.455 5
  19597798.209    -8869083.076 7  -6842784.106 7
  23837495.264    11091183.704 3   8605369.890 2
  20501926.279   -10692636.738 7  -8253712.674 9
  20836485.693   -11372343.720 7  -8801477.843 8
  23586474.826    -3032741.369 4  -2191368.457 2
 95  2 19 17 21 29.9980000  0  7 25 18 14 15 22 29 19
  23263558.951     9764153.869 5   7575465.819 5
  22699062.186    -8916033.949 5  -5962724.422 5
  19594995.920    -8883830.634 7  -6854275.721 7
  23851951.318    11167121.302 4   8664541.920 1
  20497532.568   -10715693.029 7  -8271678.610 9
  20824369.373   -11436019.399 7  -8851095.258 8
  23566289.936    -3138809.580 3  -2274018.960 3
 95  2 19 17 21 59.9980000  0  7 25 18 14 15 22 29 19
  23276705.584     9833253.581 5   7629309.646 4
  22680676.318    -9012640.851 5  -6038002.499 5
  19592294.123    -8898010.169 7  -6865324.720 8
  23866382.271    11242973.529 3   8723647.482 2
  20493266.412   -10738139.131 7  -8289169.071 9
  20812269.381   -11499602.277 7  -8900640.356 8
  23546147.693    -3244679.885 4  -2356515.247 2
 95  2 19 17 22 29.9980000  0  7 25 18 14 15 22 29 19
  23289852.857     9902341.392 5   7683144.280 5
  22662293.631    -9109254.574 5  -6113285.896 5
  19589702.498    -8911630.781 7  -6875938.192 8
  23880801.943    11318725.461 4   8782674.853 2
  20489106.373   -10760003.083 7  -8306205.920 9
  20800183.084   -11563117.735 7  -8950132.920 8
  23526026.803    -3350377.992 4  -2438877.358 3
 95  2 19 17 22 59.9980000  0  7 25 18 14 15 22 29 19
  23303002.506     9971433.549 5   7736982.271 4
  22643906.389    -9205862.578 5  -6188564.842 5
  19587222.068    -8924687.508 7  -6886112.279 7
  23895194.615    11394385.656 3   8841630.737 2
  20485051.998   -10781277.476 7  -8322783.375 9
  20788110.896   -11626558.533 7  -8999567.317 8
  23505954.420    -3455896.575 4  -2521099.588 3
 95  2 19 17 23 29.9980000  0  7 25 18 14 15 22 29 19
  23316150.850    10040525.531 5   7790820.010 5
  22625527.662    -9302458.511 5  -6263834.361 5
  19584839.615    -8937189.147 7  -6895853.834 8
  23909573.318    11469947.913 4   8900510.335 3
  20481123.225   -10801951.809 7  -8338893.250 9
  20776053.732   -11689919.062 7  -9048939.160 8
  23485902.154    -3561248.605 4  -2603192.052 3
 95  2 19 17 23 59.9970000  0  7 25 18 14 15 22 29 19
  23329293.251    10109606.684 5   7844649.508 5
  22607149.134    -9399026.025 5  -6339081.760 5
  19582562.493    -8949148.788 7  -6905173.051 8
  23923935.532    11545402.637 4   8959306.105 2
  20477304.439   -10822033.144 7  -8354541.046 9
  20764016.259   -11753178.610 7  -9098232.319 8
  23465886.478    -3666444.697 4  -2685163.000 2
 95  2 19 17 24 29.9970000  0  7 25 18 14 15 22 29 19
  23342438.212    10178682.837 5   7898474.993 1
  22588780.759    -9495564.991 5  -6414306.901 5
  19580395.743    -8960547.367 7  -6914055.079 8
  23938279.751    11620767.859 4   9018032.141 3
  20473594.204   -10841507.706 7  -8369716.032 9
  20752005.095   -11816303.251 7  -9147420.351 8
  23445893.345    -3771471.358 3  -2767001.923 2
 95  2 19 17 24 59.9970000  0  7 25 18 14 15 22 29 19
  23355582.829    10247739.270 5   7952285.148 5
  22570410.923    -9592091.352 5  -6489522.216 5
  19578334.884    -8971384.973 7  -6922499.984 7
  23952589.946    11696019.390 3   9076669.640 2
  20470000.923   -10860374.595 7  -8384417.508 9
  20740014.540   -11879308.948 7  -9196515.698 8
  23425946.767    -3876331.062 4  -2848710.756 3
 95  2 19 17 25 29.9970000  0  7 25 18 14 15 22 29 19
  23368724.337    10316800.624 5   8006099.093 2
  22552050.876    -9688576.151 5  -6564705.159 5
  19576383.618    -8981633.743 7  -6930486.059 8
  23966897.899    11771175.919 3   9135233.109 4
  20466532.040   -10878619.689 7  -8398634.463 9
  20728050.509   -11942174.891 7  -9245502.149 8
  23406027.079    -3980994.379 3  -2930266.566 2
 95  2 19 17 25 59.9970000  0  7 25 18 14 15 22 29 19
  23381866.806    10385869.702 5   8059919.069 4
  22533696.751    -9785027.720 5  -6639862.195 5
  19574540.587    -8991301.293 7  -6938019.237 8
  23981180.423    11846227.193 3   9193714.498 2
  20463177.868   -10896256.482 7  -8412377.415 9
  20716113.485   -12004911.187 7  -9294387.572 8
  23386147.774    -4085469.630 4  -3011675.816 2
 95  2 19 17 26 29.9970000  0  7 25 18 14 15 22 29 19
  23395013.993    10454953.145 5   8113750.348 4
  22515349.118    -9881449.179 5  -6714995.780 5
  19572812.767    -9000385.517 7  -6945097.870 7
  23995447.212          -0.88113
  20459937.509   -10913284.512 7  -8425646.014 9
  20704195.876   -12067536.185 7  -9343186.271 8
  23366300.642    -4189762.157 4  -3092942.679 3
 95  2 19 17 26 59.9970000  0  7 25 18 14 15 22 29 19
  23408165.931    10524066.326 5   8167604.587 5
  22497014.149    -9977807.163 5  -6790079.922 5
  19571195.649    -9008889.371 7  -6951724.266 8
  24009684.142       74837.974 2
  20456813.009   -10929699.071 7  -8438436.584 9
  20692298.454   -12130054.090 7  -9391901.525 8
  23346486.728    -4293879.568 3  -3174073.097 3
 95  2 19 17 27 29.9970000  0  6 25 18 14 22 29 19
  23421317.478    10593209.502 5   8221482.398 5
  22478689.173   -10074101.332 5  -6865114.300 5
  19569684.517    -9016838.570 7  -6957918.468 8
  20453803.548   -10945503.276 7  -8450751.549 9
  20680425.579   -12192448.960 7  -9440520.904 9
  23326697.431    -4397840.595 3  -3255081.666 3
 95  2 19 17 27 59.9970000  0  6 25 18 14 22 29 19
  23434483.907    10662368.104 5   8275372.090 4
  22460373.368   -10170352.860 5  -6940115.475 4
  19568276.423    -9024238.658 7  -6963684.792 8
  20450913.056   -10960700.812 7  -8462593.783 9
  20668575.165   -12254719.639 7  -9489043.512 9
  23306946.079    -4501660.659 3  -3335980.372 4
 95  2 19 17 28 29.9970000  0  6 25 18 14 22 29 19
  23447641.423    10731515.838 5   8329253.378 5
  22442063.048   -10266580.590 5  -7015098.110 5
  19566971.860    -9031098.513 7  -6969030.151 8
  20448129.931   -10975312.929 7  -8473979.847 9
  20656747.009   -12316874.315 7  -9537475.728 9
  23287218.587    -4605348.106 4  -3416775.775 4
 95  2 19 17 28 59.9970000  0  6 25 18 14 22 29 19
  23460800.399    10800684.374 4   8383150.841 5
  22423756.392   -10362769.306 5  -7090050.330 5
  19565774.610    -9037389.589 7  -6973932.309 8
  20445467.962   -10989311.514 7  -8484887.835 9
  20644949.735   -12378872.270 7  -9585785.821 8
  23267522.665    -4708868.719 4  -3497441.144 3
 95  2 19 17 29 29.9970000  0  6 25 18 14 22 29 19
  23473967.063    10869859.060 5   8437053.152 5
  22405449.509   -10458964.753 5  -7165007.804 4
  19564685.009    -9043119.252 7  -6978397.006 8
  20442914.110   -11002714.852 7  -8495331.992 9
  20633181.603   -12440716.477 7  -9633976.114 9
  23247851.829    -4812210.632 4  -3577967.286 4
 95  2 19 17 29 59.9970000  0  7 25 18 14 15 22 29 19
  23487131.892    10939033.467 5   8490955.100 5
  22387147.290   -10555164.959 5  -7239968.982 5
  19563703.821    -9048271.637 7  -6982411.877 8
  24094685.743          -0.88712
  20440477.978   -11015522.302 7  -8505311.820 9
  20621438.462   -12502422.305 7  -9682058.571 9
  23228229.454    -4915351.861 5  -3658337.043 4
 95  2 19 17 30 29.9970000  0  7 25 18 14 15 22 29 19
  23500293.571    11008208.354 4   8544857.604 5
  22368838.251   -10651358.475 5  -7314924.949 5
  19562829.829    -9052857.259 7  -6985985.109 8
  24108766.704       74011.312 2
  20438156.142   -11027729.403 7  -8514823.847 9
  20609719.665   -12564011.783 7  -9730050.369 9
  23208637.321    -5018285.987 5  -3738545.447 5
 95  2 19 17 30 59.9970000  0  6 25 18 14 22 29 19
  23513461.485    11077397.239 5   8598770.891 5
  22350541.634   -10747523.443 5  -7389858.660 5
  19562062.556    -9056870.567 7  -6989112.390 8
  20435955.118   -11039305.070 7  -8523843.848 9
  20598023.587   -12625479.375 7  -9777947.195 9
  23189089.556    -5120996.351 4  -3818579.481 5
 95  2 19 17 31 29.9970000  0  6 25 18 14 22 29 19
  23526627.353    11146578.233 5   8652678.063 5
  22332246.868   -10843653.337 5  -7464765.054 5
  19561408.282    -9060309.725 7  -6991792.274 8
  20433875.649   -11050238.756 7  -8532363.598 9
  20586346.681   -12686839.780 7  -9825760.497 9
  23169588.524    -5223492.103 5  -3898446.296 4
 95  2 19 17 31 59.9970000  0  6 25 18 14 22 29 19
  23539785.501    11215751.439 5   8706579.200 5
  22313965.642   -10939716.009 5  -7539619.057 5
  19560867.954    -9063163.423 7  -6994015.962 8
  20431921.735   -11060514.029 7  -8540370.303 9
  20574691.368   -12748085.603 7  -9873484.512 9
  23150123.899    -5325791.508 5  -3978160.116 4
 95  2 19 17 32 29.9970000  0  6 25 18 14 22 29 19
  23552949.259    11284911.640 5   8760470.201 5
  22295700.165   -11035711.424 5  -7614420.662 5
  19560437.110    -9065437.274 7  -6995787.814 8
  20430086.040   -11070146.900 7  -8547876.428 9
  20563061.251   -12809201.077 7  -9921106.957 9
  23130688.478    -5427904.143 5  -4057728.390 4
 95  2 19 17 32 59.9970000  0  6 25 18 14 22 29 19
  23566107.024    11354053.067 5   8814346.482 5
  22277443.032   -11131642.150 5  -7689171.848 5
  19560116.181    -9067117.189 7  -6997096.860 8
  20428372.649   -11079134.356 7  -8554879.637 9
  20551460.657   -12870165.738 7  -9968611.882 9
  23111296.681    -5529824.149 5  -4137146.574 5
 95  2 19 17 33 29.9970000  0  6 25 18 14 22 29 19
  23579259.790    11423153.885 5   8868191.281 4
  22259198.548   -11227523.491 5  -7763884.549 5
  19559906.196    -9068211.220 7  -6997949.371 8
  20426780.368   -11087509.952 7  -8561406.073 9
  20539887.345   -12930982.509 7 -10016001.574 9
  23091933.853    -5631566.747 5  -4216426.494 5
 95  2 19 17 33 59.9970000  0  6 25 18 14 22 29 19
  23592402.712    11492234.284 5   8922020.019 5
  22240963.626   -11323353.175 5  -7838557.018 5
  19559810.181    -9068724.448 7
  20425301.181   -11095292.238 7  -8567470.189 9
  20528347.454   -12991629.812 7 -10063259.213 9
  23072609.103    -5733117.818 5  -4295557.179 4
 95  2 19 17 34 29.9970000  0  6 25 18 14 22 29 19
  23605538.142    11561278.598 5   8975820.733 2
  22222732.860   -11419151.518 5  -7913205.048 5
  19559819.642    -9068676.613 7
  20423925.665   -11102504.900 7  -8573090.440 9
  20516831.993   -13052141.331 7 -10110411.046 9
  23053322.173    -5834482.441 5  -4374542.574 5
 95  2 19 17 34 59.9970000  0  6 25 18 14 22 29 19
  23618672.493    11630288.506 5   9029594.603 5
  22204510.696   -11514915.634 5  -7987826.415 5
  19559937.017    -9068055.630 7  -6997828.206 8
  20422665.282   -11109139.662 7  -8578260.388 9
  20505341.110   -13112521.486 7 -10157460.519 9
  23034066.173    -5935663.357 5  -4453384.815 4
 95  2 19 17 35 29.9970000  0  6 25 18 14 22 29 19
  23631804.329    11699282.993 5   9083356.427 3
  22186293.470   -11610636.678 5  -8062414.214 5
  19560163.181    -9066860.099 7  -6996896.648 8
  20421513.626   -11115203.016 7  -8582985.085 9
  20493879.696   -13172752.202 7 -10204393.550 9
  23014850.353    -6036656.750 5  -4532080.943 4
 95  2 19 17 35 59.9970000  0  6 25 18 14 22 29 19
  23644931.431    11768266.367 5   9137109.655 3
  22168084.345   -11706330.878 5  -8136981.101 5
  19560502.392    -9065097.632 7  -6995523.324 8
  20420467.157   -11120693.790 7  -8587263.614 9
  20482444.743   -13232845.823 7 -10251219.751 9
  22995663.915    -6137462.769 5  -4610631.040 4
 95  2 19 17 36 29.9970000  0  6 25 18 14 22 29 19
  23658050.759    11837222.857 5   9190841.873 2
  22149875.626   -11802006.338 5  -8211533.383 5
  19560948.532    -9062763.232 7  -6993704.347 8
  20419530.759   -11125604.830 7  -8591090.397 9
  20471032.290   -13292817.678 7 -10297951.069 9
  22976519.759    -6238085.604 5  -4689038.408 4
 95  2 19 17 36 59.9970000  0  6 25 18 14 22 29 19
  23671168.970    11906172.225 5   9244568.609 1
  22131676.985   -11897647.063 5  -8286058.592 5
  19561500.196    -9059838.343 7  -6991425.230 8
  20418717.274   -11129903.019 7  -8594439.644 9
  20459654.868   -13352614.008 7 -10344545.615 9
  22957412.446    -6338484.787 5  -4767271.496 4
 95  2 19 17 37 29.9970000  0  6 25 18 14 22 29 19
  23684295.134    11975117.823 5   9298292.335 3
  22113486.220   -11993248.900 5  -8360553.499 5
  19562166.399    -9056340.050 7  -6988699.315 8
  20418017.134   -11133579.771 7  -8597304.657 9
  20448308.298   -13412236.955 7 -10391005.061 9
  22938353.626    -6438644.083 5  -4845317.652 4
 95  2 19 17 37 59.9970000  0  6 25 18 14 22 29 19
  23697409.798    12044046.646 5   9352003.064 2
  22095300.017   -12088810.667 5  -8435017.187 5
  19562943.774    -9052265.555 7  -6985524.409 8
  20417432.790   -11136633.388 7  -8599684.112 9
  20436991.720   -13471708.529 7 -10437346.552 9
  22919337.290    -6538570.395 5  -4923182.265 4
 95  2 19 17 38 29.9970000  0  6 25 18 14 22 29 19
  23710517.626    12112931.965 4   9405679.804 5
  22077122.603   -12184339.164 5  -8509454.944 5
  19563821.540    -9047633.448 7  -6981915.003 8
  20416970.571   -11139082.679 7  -8601592.664 9
  20425695.821   -13531059.429 7 -10483594.011 9
  22900363.946    -6638288.173 5  -5000884.401 5
 95  2 19 17 38 59.9970000  0  6 25 18 14 22 29 19
  23723618.845    12181790.923 4   9459336.073 1
  22058952.392   -12279815.019 6  -8583851.681 5
  19564813.899    -9042445.229 7  -6977872.264 8
  20416613.556   -11140921.543 7  -8603025.556 9
  20414428.337   -13590272.514 7 -10529734.081 9
  22881428.282    -6737795.848 5  -5078422.796 4
 95  2 19 17 39 29.9970000  0  6 25 18 14 22 29 19
  23736723.470    12250647.817 4   9512990.677 2
  22040798.251   -12375224.104 6  -8658196.396 5
  19565905.735    -9036682.545 7  -6973381.886 8
  20416383.571   -11142148.546 7  -8603981.672 9
  20403184.681   -13649359.430 7 -10575775.835 9
  22862523.993    -6837116.620 5  -5155815.566 3
 95  2 19 17 39 59.9970000  0  6 25 18 14 22 29 19
  23749826.017    12319502.865 4   9566643.844 2
  22022653.485   -12470576.424 6  -8732496.883 5
  19567115.439    -9030345.228 7  -6968443.744 8
  20416263.837   -11142775.474 7  -8604470.198 9
  20391963.142   -13708334.384 7 -10621730.343 9
  22843658.415    -6936272.686 5  -5233080.000 4
 95  2 19 17 40 29.9970000  0  6 25 18 14 22 29 19
  23762931.423    12388362.314 4   9620300.504 2
  22004519.032   -12565873.347 6  -8806754.193 5
  19568425.868    -9023444.852 7  -6963066.852 8
  20416263.423   -11142796.609 7
  20380762.095   -13767192.123 7 -10667593.514 9
  22824820.392    -7035262.369 5  -5310214.774 5
 95  2 19 17 40 59.9970000  0  6 25 18 14 22 29 19
  23776034.673    12457222.404 4   9673957.596 4
  21986395.853   -12661107.785 6  -8880962.826 5
  19569850.954    -9015973.315 7  -6957244.902 8
  20416371.759   -11142210.555 7
  20369589.946   -13825901.322 7 -10713340.945 9
  22806016.415    -7134076.502 5  -5387212.781 3
 95  2 19 17 41 29.9970000  0  6 25 18 14 22 29 19
  23789138.251    12526079.762 3   9727612.595 2
  21968287.587   -12756275.040 6  -8955119.103 5
  19571378.431    -9007920.045 7  -6950969.654 8
  20416596.946   -11141007.531 7  -8603092.613 9
  20358452.524   -13884458.616 7 -10758970.003 9
  22787246.837    -7232696.507 5  -5464059.508 4
 95  2 19 17 41 59.9970000  0  6 25 18 14 22 29 19
  23802236.767    12594905.761 5   9781243.166 4
  21950190.931   -12851374.857 6  -9029222.837 5
  19573024.720    -8999295.750 7  -6944249.453 8
  20416946.384   -11139196.705 7  -8601681.597 8
  20347333.056   -13942856.436 7 -10804474.799 9
  22768521.774    -7331104.281 5  -5540740.874 3
 95  2 19 17 42 29.9970000  0  6 25 18 14 22 29 19
  23815322.759    12663679.074 4   9834832.575 4
  21932102.923   -12946412.417 6  -9103278.061 5
  19574771.735    -8990100.012 7  -6937083.967 8
  20417406.376   -11136786.517 7  -8599803.544 9
  20336255.407   -14001072.212 7 -10849837.739 9
  22749834.556    -7429299.558 5  -5617256.667 3
 95  2 19 17 42 59.9970000  0  5 18 14 22 29 19
  21914031.009   -13041385.044 6  -9177282.684 5
  19576633.103    -8980325.790 7  -6929467.714 8
  20417975.837   -11133785.869 7  -8597465.393 9
  20325213.024   -14059100.702 7 -10895054.746 9
  22731193.251    -7527282.173 5  -5693606.743 4
 95  2 19 17 43 29.9970000  0  5 18 14 22 29 19
  21895972.103   -13136293.001 6  -9251236.915 5
  19578604.298    -8969971.876 7  -6921399.758 8
  20418657.196   -11130191.708 7  -8594664.755 9
  20314204.524   -14116955.028 7 -10940136.037 9
  22712583.657    -7625068.035 5  -5769803.513 5
 95  2 19 17 43 59.9970000  0  5 18 14 22 29 19
  21877922.743   -13231143.473 6  -9325146.358 5
  19580681.774    -8959040.701 7  -6912881.978 8
  20419454.376   -11126014.258 7  -8591409.617 9
  20303226.204   -14174639.277 7 -10985084.791 9
  22694011.642    -7722671.637 5  -5845858.248 4
 95  2 19 17 44 29.9970000  0  5 18 14 22 29 19
  21859882.595   -13325944.002 6  -9399016.886 6
  19582875.431    -8947532.645 7  -6903914.689 8
  20420360.493   -11121248.719 7  -8587696.225 9
  20292281.485   -14232162.983 7 -11029908.464 9
  22675467.946    -7820103.540 5  -5921779.198 5
 95  2 19 17 44 59.9970000  0  5 18 14 22 29 19
  21841854.884   -13420675.928 6  -9472833.959 5
  19585174.454    -8935435.584 7  -6894488.427 8
  20421386.790   -11115871.069 7  -8583505.864 9
  20281364.884   -14289531.735 7 -11074611.389 9
  22656964.688    -7917347.129 5  -5997553.405 4
 95  2 19 17 45 29.9970000  0  5 18 14 22 29 19
  21823838.188   -13515359.204 6  -9546613.109 6
  19587584.681    -8922766.642 7  -6884616.551 8
  20422525.743   -11109890.560 7  -8578845.745 9
  20270474.329   -14346758.755 7 -11119203.870 9
  22638494.603    -8014396.606 5  -6073176.343 5
 95  2 19 17 45 59.9970000  0  5 18 14 22 29 19
  21805830.899   -13609991.638 6  -9620352.648 6
  19590104.751    -8909535.765 7  -6874306.802 8
  20423774.009   -11103304.674 7  -8573713.893 9
  20259611.509   -14403843.875 7 -11163685.787 9
  22620070.118    -8111230.997 5  -6148631.692 5
 95  2 19 17 46 29.9970000  0  5 18 14 22 29 19
  21787828.798   -13704585.120 6  -9694061.834 6
  19592724.243    -8895765.644 7  -6863576.861 8
  20425143.454   -11096128.681 7  -8568122.226 9
  20248772.040   -14460805.436 7 -11208071.420 9
  22601683.360    -8207859.764 5  -6223926.800 5
 95  2 19 17 46 59.9970000  0  5 18 14 22 29 19
  21769838.056   -13799126.779 6  -9767730.632 6
  19595444.259    -8881462.991 7  -6852431.966 8
  20426620.329   -11088373.558 7  -8562079.283 8
  20237956.595   -14517639.086 7 -11252357.382 9
  22583334.696    -8304271.137 5  -6299052.502 5
 95  2 19 17 47 29.9970000  0  5 18 14 22 29 19
  21751857.774   -13893614.536 6  -9841357.427 6
  19598265.821    -8866638.963 7  -6840880.798 8
  20428201.860   -11080049.563 7  -8555593.069 9
  20227168.188   -14574334.378 7 -11296535.531 9
  22565027.165    -8400472.390 5  -6374014.463 5
 95  2 19 17 47 59.9970000  0  5 18 14 22 29 19
  21733891.915   -13988031.156 6  -9914928.794 6
  19601192.064    -8851278.075 7  -6828911.303 8
  20429893.470   -11071150.585 7  -8548658.811 9
  20216407.259   -14630878.987 7 -11340596.271 9
  22546758.860    -8496480.068 5  -6448825.596 5
 95  2 19 17 48 29.9970000  0  5 18 14 22 29 19
  21715938.993   -14082369.822 6  -9988439.410 6
  19604221.204    -8835357.795 7  -6816505.922 8
  20431697.314   -11061677.365 7  -8541277.087 9
  20205682.438   -14687242.786 7 -11384516.119 9
  22528528.845    -8592285.760 5  -6523479.317 5
 95  2 19 17 48 59.9970000  0  5 18 14 22 29 19
  21697999.501   -14176643.433 6 -10061899.344 6
  19607353.032    -8818890.513 7  -6803674.293 8
  20433608.782   -11051640.132 7  -8533455.878 8
  20194991.509   -14743426.306 7 -11428295.490 9
  22510335.009    -8687898.338 5  -6597982.580 5
 95  2 19 17 49 29.9970000  0  5 18 14 22 29 19
  21680071.688   -14270855.380 6 -10135311.214 6
  19610590.806    -8801863.718 7  -6790406.697 8
  20435632.681   -11041020.818 7  -8525181.102 8
  20184337.985   -14799412.596 7 -11471921.179 9
  22492178.243    -8783314.009 5  -6672332.388 5
 95  2 19 17 49 59.9970000  0  5 18 14 22 29 19
  21662156.478   -14365001.344 6 -10208671.685 6
  19613940.345    -8784263.969 7  -6776692.633 8
  20437763.548   -11029808.244 7  -8516444.043 8
  20173723.532   -14855187.200 7 -11515381.907 9
  22474059.485    -8878520.260 5  -6746519.021 5
 95  2 19 17 50 29.9970000  0  5 18 14 22 29 19
  21644250.712   -14459086.441 6 -10281984.713 6
  19617397.235    -8766108.741 7  -6762545.732 8
  20440008.103   -11018008.629 7  -8507249.552 8
  20163146.868   -14910762.475 7 -11558687.319 9
  22455981.946    -8973511.664 5  -6820538.237 5
 95  2 19 17 50 59.9970000  0  5 18 14 22 29 19
  21626361.892   -14553095.290 6 -10355238.328 6
  19620958.587    -8747396.609 7  -6747964.879 8
  20442367.681   -11005603.587 7  -8497583.295 8
  20152606.321   -14966148.841 7 -11601845.527 9
  22437947.259    -9068286.777 5  -6894388.920 5
 95  2 19 17 51 29.9970000  0  5 18 14 22 29 19
  21608485.665   -14647033.810 6 -10428437.149 6
  19624625.485    -8728125.721 7  -6732948.631 8
  20444838.774   -10992604.627 7  -8487454.252 8
  20142104.587   -15021355.504 7 -11644863.704 9
  22419950.962    -9162864.861 5  -6968086.069 5
 95  2 19 17 51 59.9970000  0  5 18 14 22 29 19
  21590626.821   -14740885.004 6 -10501567.920 6
  19628401.618    -8708287.560 7  -6717490.352 8
  20447423.853   -10979014.006 7  -8476864.156 8
  20131629.688   -15076388.050 7 -11687746.204 9
  22401991.915    -9257237.213 5  -7041622.923 5
 95  2 19 17 52 29.9970000  0  5 18 14 22 29 19
  21572785.353   -14834648.237 6 -10574630.153 6
  19632286.978    -8687877.853 7  -6701586.718 8
  20450126.126   -10964839.617 7  -8465819.202 8
  20121188.071   -15131261.776 7 -11730504.941 9
  22384074.759    -9351387.535 5  -7114986.760 5
 95  2 19 17 52 59.9970000  0  5 18 14 22 29 19
  21554956.923   -14928331.422 6
  19636279.165    -8666896.983 7  -6685238.018 8
  20452930.103   -10950090.944 7  -8454326.739 8
  20110776.353   -15185971.032 7 -11773135.525 9
  22366202.970    -9445317.791 5
 95  2 19 17 53 29.9970000  0  5 18 14 22 29 19
  21537145.024   -15021946.403 6
  19640376.860    -8645360.086 7  -6668456.047 8
  20455843.728   -10934792.342 7  -8442405.762 9
  20100399.696   -15240514.580 7 -11815636.989 9
  22348363.720    -9539034.453 5
 95  2 19 17 53 59.9970000  0  5 18 14 22 29 19
  21519342.681   -15115495.585 6
  19644580.220    -8623271.261 7  -6651244.006 8
  20458858.024   -10918950.839 7  -8430061.745 8
  20090050.360   -15294888.490 7 -11858006.264 9
  22330577.954    -9632528.526 5
 95  2 19 17 54 29.9970000  0  5 18 14 22 29 19
  21501550.306   -15208980.020 6 -10866317.143 6
  19648887.782    -8600628.455 7  -6633600.287 8
  20461974.446   -10902564.530 7  -8417293.205 8
  20079740.946   -15349067.798 7 -11900223.904 9
  22312827.173    -9725799.400 5  -7406736.103 5
 95  2 19 17 54 59.9970000  0  5 18 14 22 29 19
  21483774.603   -15302402.689 6 -10939113.998 6
  19653297.032    -8577457.552 7  -6615545.070 8
  20465197.556   -10885639.517 7  -8404104.897 8
  20069469.470   -15403044.641 7 -11942283.778 9
  22295113.235    -9818881.437 5  -7479267.513 5
 95  2 19 17 55 29.9970000  0  5 18 14 22 29 19
  21466012.868   -15395737.696 6 -11011842.548 6
  19657807.485    -8553745.474 7  -6597068.144 8
  20468526.134   -10868151.359 7  -8390477.768 8
  20059240.204   -15456803.741 7 -11984173.980 9
  22277439.876    -9911759.024 5  -7551639.626 5
 95  2 19 17 55 59.9970000  0  5 18 14 22 29 19
  21448265.657   -15488998.215 6 -11084513.056 6
  19662422.454    -8529500.471 7  -6578175.974 8
  20471960.118   -10850099.219 7  -8376411.178 8
  20049048.118   -15510361.378 7 -12025907.204 9
  22259804.095   -10004437.475 5  -7623856.544 5
 95  2 19 17 56 29.9970000  0  5 18 14 22 29 19
  21430539.142   -15582146.954 6 -11157096.455 6
  19667139.704    -8504706.918 7  -6558856.353 8
  20475512.478   -10831447.984 7  -8361877.762 8
  20038895.392   -15563713.728 7 -12067480.465 9
  22242210.884   -10096896.425 5  -7695902.440 5
 95  2 19 17 56 59.9970000  0  5 18 14 22 29 19
  21412832.009   -15675199.702 6 -11229605.055 6
  19671957.681    -8479393.332 7  -6539131.508 8
  20479172.196   -10812209.047 7  -8346886.399 8
  20028773.368   -15616901.063 7 -12108925.140 9
  22224654.970   -10189148.797 5  -7767787.351 5
 95  2 19 17 57 29.9970000  0  5 18 14 22 29 19
  21395143.103   -15768161.339 6 -11302042.667 6
  19676880.071    -8453533.436 7  -6518980.978 8
  20482943.024   -10792383.675 7  -8331438.075 8
  20018683.353   -15669931.033 7 -12150247.196 9
  22207138.907   -10281179.541 5  -7839499.578 5
 95  2 19 17 57 59.9970000  0  5 18 14 22 29 19
  21377470.806   -15861028.029 6 -11374406.297 6
  19681907.228    -8427111.576 7  -6498392.544 8
  20486825.915   -10771979.641 7  -8315538.846 8
  20008619.939   -15722809.176 7 -12191450.943 9
  22189671.696   -10372987.189 5  -7911037.942 5
 95  2 19 17 58 29.9970000  0  5 18 14 22 29 19
  21359814.298   -15953824.333 6 -11446715.073 6
  19687037.688    -8400155.137 7  -6477387.556 8
  20490813.056   -10751023.930 7  -8299209.737 8
  19998584.071   -15775544.858 7 -12232543.681 9
  22172238.423   -10464604.470 5  -7982427.990 5
 95  2 19 17 58 59.9970000  0  5 18 14 22 29 19
  21342166.532   -16046545.960 6 -11518965.666 6
  19692274.548    -8372636.130 7  -6455944.203 8
  20494907.681   -10729507.552 7  -8282443.742 8
  19988583.017   -15828102.277 7 -12273497.516 9
  22154845.267   -10556010.866 5  -8053653.687 5
 95  2 19 17 59 29.9970000  0  5 18 14 22 29 19
  21324536.376   -16139201.783 6 -11591164.977 6
  19697616.165    -8344551.492 7  -6434060.102 8
  20499107.204   -10707444.853 7  -8265252.052 8
  19978619.251   -15880472.580 7 -12314305.546 9
  22137487.509   -10647220.389 5  -8124725.988 5
 95  2 19 17 59 59.9970000  0  5 18 14 22 29 19
  21306920.509   -16231763.672 6 -11663291.097 6
  19703065.220    -8315916.492 7  -6411747.148 8
  20503413.915   -10684817.227 7  -8247620.159 8
  19968691.126   -15932634.921 7 -12354951.523 9
  22120167.142   -10738226.319 5  -8195639.628 5
 95  2 19 18  0 29.9970000  0  5 18 14 22 29 19
  21289330.728   -16324210.837 6 -11735327.818 6
  19708617.563    -8286731.427 7  -6389005.567 8
  20507831.056   -10661602.410 7  -8229530.710 8
  19958810.845   -15984557.598 7 -12395410.752 9
  22102896.165   -10829007.274 5  -8266377.974 5
 95  2 19 18  0 59.9970000  0  5 18 14 22 29 19
  21271758.478   -16416549.515 6 -11807280.004 6
  19714271.274    -8257018.951 7  -6365853.016 8
  20512355.407   -10637837.680 7  -8211012.757 8
  19948971.431   -16036270.039 7 -12435706.167 9
  22085660.282   -10919586.314 5  -8336958.978 5
 95  2 19 18  1 29.9970000  0  5 18 14 22 29 19
  21254209.446   -16508773.826 6 -11879143.070 6
  19720026.649    -8226790.638 7  -6342298.517 8
  20516978.337   -10613531.556 7  -8192072.942 8
  19939171.931   -16087768.127 7 -12475834.547 9
  22068456.603   -11009969.855 5  -8407387.639 5
 95  2 19 18  1 59.9970000  0  5 18 14 22 29 19
  21236681.407   -16600887.030 6 -11950919.558 6
  19725876.024    -8196061.297 7  -6318353.605 8
  20521704.688   -10588689.348 7  -8172715.397 8
  19929412.063   -16139057.626 7 -12515800.387 9
  22051294.782   -11100157.003 5  -8477663.261 5
 95  2 19 18  2 29.9960000  0  5 18 14 22 29 19
  21219167.816   -16692925.304 6 -12022637.659 6
  19731819.012    -8164834.891 7  -6294021.371 8
  20526527.129   -10563335.584 7  -8152959.235 8
  19919687.684   -16190149.434 7 -12555612.186 9
  22034168.004   -11190145.130 5  -8547783.818 5
 95  2 19 18  2 59.9960000  0  5 18 14 22 29 19
  21201665.231   -16784899.341 6 -12094305.713 6
  19737854.293    -8133097.459 7  -6269290.927 8
  20531454.176   -10537455.137 7  -8132792.676 8
  19910005.902   -16241031.738 7 -12595260.735 9
  22017086.879   -11279931.700 5  -8617747.311 5
 95  2 19 18  3 29.9960000  0  5 18 14 22 29 19
  21184169.316   -16876831.243 6 -12165940.935 6
  19743986.059    -8100869.287 7  -6244178.098 8
  20536483.441   -10511044.286 7  -8112212.809 8
  19900360.137   -16291717.929 7 -12634756.472 9
  22000035.004   -11369525.836 5  -8687560.854 5
 95  2 19 18  3 59.9960000  0  5 18 14 22 29 19
  21166688.973   -16968693.753 6 -12237522.081 6
  19750216.981    -8068140.358 7  -6218675.064 8
  20541611.965   -10484075.223 7  -8091197.975 8
  19890753.246   -16342201.027 7 -12674093.948 9
  21983025.066   -11458913.801 5  -8757213.755 5
 95  2 19 18  4 29.9960000  0  5 18 14 22 29 19
  21149224.254   -17060472.726 6 -12309038.136 6
  19756543.481    -8034898.799 7  -6192772.585 8
  20546846.465   -10456556.089 7  -8069754.517 8
  19881184.215   -16392485.333 7 -12713276.528 9
  21966054.137   -11548104.121 5  -8826712.648 5
 95  2 19 18  4 59.9960000  0  5 18 14 22 29 19
  21131780.934   -17152151.574 6 -12380476.172 6
  19762962.402    -8001157.744 7  -6166480.886 8
  20552187.762   -10428508.227 7  -8047899.065 8
  19871649.691   -16442597.126 7 -12752324.679 9
  21949114.840   -11637120.616 5  -8896076.099 5
 95  2 19 18  5 29.9960000  0  5 18 14 22 29 19
  21114356.816   -17243702.444 6 -12451814.484 6
  19769481.434    -7966902.622 7  -6139788.621 8
  20557622.777   -10399943.143 7  -8025640.581 8
  19862146.543   -16492534.467 7 -12791236.898 9
  21932210.012   -11725942.212 5  -8965287.685 5
 95  2 19 18  5 59.9960000  0  5 18 14 22 29 19
  21096962.020   -17335114.769 6 -12523044.844 6
  19776104.988    -7932109.715 7  -6112677.307 8
  20563154.184   -10370869.529 7  -8002985.835 8
  19852680.645   -16542281.202 7 -12830000.591 9
  21915351.363   -11814537.338 5  -9034322.798 5
 95  2 19 18  6 29.9960000  0  5 18 14 22 29 19
  21079588.098   -17426409.020 6 -12594183.201 6
  19782825.332    -7896787.167 7  -6085153.282 8
  20568780.176   -10341303.114 7  -7979947.092 8
  19843247.965   -16591834.626 7 -12868613.650 9
  21898538.824   -11902896.093 5  -9103173.747 6
 95  2 19 18  6 59.9960000  0  5 18 14 22 29 19
  21062239.348   -17517581.882 6 -12665226.970 6
  19789642.676    -7860943.525 7  -6057223.215 8
  20574505.434   -10311224.078 7  -7956508.907 8
  19833861.551   -16641179.425 7 -12907064.150 9
  21881773.816   -11991004.075 6  -9171829.275 6
 95  2 19 18  7 29.9960000  0  5 18 14 22 29 19
  21044913.770   -17608631.187 6 -12736174.456 6
  19796567.535    -7824568.886 7  -6028879.373 8
  20580329.707   -10280612.029 7  -7932655.383 8
  19824512.012   -16690302.128 7 -12945341.578 9
  21865053.754   -12078856.258 6  -9240285.481 5
 95  2 19 18  7 59.9960000  0  5 18 14 22 29 19
  21027607.324   -17699579.383 6 -12807043.159 6
  19803584.457    -7787703.251 7  -6000152.941 8
  20586254.902   -10249480.594 7  -7908397.144 8
  19815203.254   -16739221.264 7 -12983460.387 9
  21848376.676   -12166494.291 6  -9308574.824 6
 95  2 19 18  8 29.9960000  0  5 18 14 22 29 19
  21010317.918   -17790420.856 6 -12877828.702 6
  19810687.379    -7750357.545 7  -5971052.426 8
  20592278.613   -10217826.827 7  -7883731.903 8
  19805937.270   -16787929.843 7 -13021415.124 9
  21831735.848   -12253942.267 6  -9376716.067 5
 95  2 19 18  8 59.9960000  0  5 18 14 22 29 19
  20993055.746   -17881145.685 6 -12948523.348 6
  19817888.113    -7712515.334 7  -5941565.028 8
  20598401.535   -10185653.710 7  -7858661.968 8
  19796706.824   -16836417.710 7 -13059197.872 9
  21815132.152   -12341202.110 6  -9444710.723 6
 95  2 19 18  9 29.9960000  0  5 18 14 22 29 19
  20975809.988   -17971768.294 6 -13019138.333 6
  19825188.207    -7674172.150 7  -5911687.260 8
  20604618.848   -10152969.923 7  -7833194.114 8
  19787526.934   -16884668.535 7 -13096795.912 9
  21798564.559   -12428265.674 6  -9512552.432 5
 95  2 19 18  9 59.9960000  0  5 18 14 22 29 19
  20958584.176   -18062298.604 6 -13089681.413 6
  19832577.754    -7635330.360 7  -5881420.970 8
  20610935.973   -10119779.123 7  -7807331.184 8
  19778391.293   -16932665.021 7 -13134195.765 9
  21782033.254   -12515130.017 6  -9580238.889 6
 95  2 19 18 10 29.9960000  0  5 18 14 22 29 19
  20941368.348   -18152754.586 6 -13160166.572 7
  19840064.254    -7595983.487 7  -5850761.108 8
  20617347.559   -10086090.775 7  -7781080.561 8
  19769304.379   -16980426.719 7 -13171412.665 9
  21765542.270   -12601792.354 6  -9647767.950 6
 95  2 19 18 10 59.9960000  0  5 18 14 22 29 19
  20924173.879   -18243117.767 6 -13230579.420 6
  19847655.551    -7556100.281 7  -5819683.322 8
  20623856.160   -10051879.061 7  -7754422.120 8
  19760262.027   -17027951.288 7 -13208444.795 9
  21749093.004   -12688223.229 6  -9715116.642 5
 95  2 19 18 11 29.9960000  0  5 18 14 22 29 19
  20906994.621   -18333394.451 6 -13300924.863 6
  19855339.996    -7515703.414 7  -5788205.290 8
  20630465.512   -10017148.784 7  -7727359.602 8
  19751257.676   -17075262.450 7 -13245310.631 9
  21732687.332   -12774449.124 6  -9782305.619 6
 95  2 19 18 11 59.9960000  0  5 18 14 22 29 19
  20889835.637   -18423566.042 6 -13371188.424 7
  19863125.629    -7474794.927 7  -5756328.585 8
  20637175.863    -9981898.734 7  -7699892.069 7
  19742290.027   -17122382.930 7 -13282027.889 9
  21716316.551   -12860480.192 6  -9849342.789 6
 95  2 19 18 12 29.9960000  0  5 18 14 22 29 19
  20872699.277   -18513621.657 6 -13441361.611 7
  19871010.090    -7433381.198 7  -5724058.191 8
  20643979.355    -9946131.983 7  -7672021.912 7
  19733359.496   -17169315.363 7 -13318598.612 9
  21699981.988   -12946317.584 6  -9916229.030 6
 95  2 19 18 12 59.9960000  0  5 18 14 22 29 19
  20855587.309   -18603543.596 6 -13511430.640 7
  19878982.035    -7391478.314 7  -5691406.631 8
  20650884.184    -9909854.859 7  -7643754.060 8
  19724469.934   -17216033.639 7 -13355002.463 9
  21683681.223   -13031970.664 6  -9982971.661 6
 95  2 19 18 13 29.9960000  0  5 18 14 22 29 19
  20838504.012   -18693319.022 6 -13581385.506 7
  19887044.254    -7349111.456 7  -5658393.540 8
  20657882.574    -9873079.342 7  -7615097.846 7
  19715625.074   -17262513.388 7 -13391220.449 9
  21667420.270   -13117435.096 6 -10049567.296 6
 95  2 19 18 13 59.9960000  0  5 18 14 22 29 19
  20821450.285   -18782933.952 6 -13651215.305 6
  19895198.254    -7306269.992 7  -5625010.633 8
  20664973.395    -9835805.096 7  -7586053.015 7
  19706827.074   -17308739.446 7 -13427240.750 9
  21651197.637   -13202689.439 6 -10115999.223 6
 95  2 19 18 14 29.9960000  0  5 18 14 22 29 19
  20804427.863   -18872393.664 6 -13720924.154 7
  19903437.785    -7262960.804 7  -5591263.254 8
  20672161.145    -9798053.575 7  -7556636.276 7
  19698078.848   -17354713.411 7 -13463064.618 9
  21635013.902   -13287730.738 6 -10182265.144 6
 95  2 19 18 14 59.9960000  0  5 18 14 22 29 19
  20787428.926   -18961717.669 6 -13790527.267 6
  19911765.223    -7219199.059 7  -5557163.232 8
  20679428.520    -9759841.461 7  -7526860.636 7
  19689375.145   -17400458.634 7 -13498710.250 9
  21618871.324   -13372560.095 6 -10248365.910 6
 95  2 19 18 15 29.9960000  0  5 18 14 22 29 19
  20770456.488   -19050907.547 6 -13860025.855 7
  19920182.621    -7174965.716 7  -5522695.745 8
  20686793.840    -9721147.589 7  -7496709.602 7
  19680713.285   -17445979.307 7 -13534180.908 9
  21602770.004   -13457156.610 6 -10314285.244 6
 95  2 19 18 15 59.9960000  0  5 18 14 22 29 19
  20753510.785   -19139957.421 6 -13929415.346 7
  19928693.270    -7130232.571 7  -5487838.797 8
  20694254.434    -9681944.296 7  -7466161.605 7
  19672093.660   -17491266.875 7 -13569469.926 9
  21586724.332   -13541508.162 6 -10380013.693 6
 95  2 19 18 16 29.9960000  0  6 28 18 14 22 29 19
  23736594.340          -0.10113
  20736585.660   -19228896.111 6 -13998718.204 7
  19937299.590    -7085020.617 7  -5452608.743 8
  20701804.387    -9642253.183 7  -7435233.490 7
  19663521.121   -17536321.327 7 -13604577.292 9
  21570712.348   -13625635.425 6 -10445567.366 6
 95  2 19 18 16 59.9960000  0  6 28 18 14 22 29 19
  23719504.762      -89816.704 3
  20719682.121   -19317732.805 6 -14067941.587 7
  19945990.715    -7039332.129 7  -5417007.367 8
  20709456.660    -9602057.608 7  -7403912.286 7
  19654993.832   -17581133.323 7 -13639495.740 9
  21554741.637   -13709556.103 6 -10510960.068 6
 95  2 19 18 17 29.9960000  0  6 28 18 14 22 29 19
  23702423.324     -179562.748 3        -0.13712
  20702798.605   -19406454.884 6 -14137075.653 7
  19954781.402    -6993159.717 7  -5381028.911 8
  20717197.660    -9561354.955 7  -7372195.960 7
  19646513.895   -17625689.309 7 -13674214.692 9
  21538809.676   -13793278.807 6 -10576198.501 6
 95  2 19 18 17 59.9960000  0  6 28 18 14 22 29 19
  23685358.621     -269226.787 3    -69868.113 1
  20685939.199   -19495041.838 6 -14206104.436 7
  19963659.395    -6946490.205 7  -5344663.106 8
  20725041.738    -9520158.265 7  -7340094.678 7
  19638089.043   -17669974.585 7 -13708722.701 9
  21522917.074   -13876793.776 6 -10641275.065 6
 95  2 19 18 18 29.9960000  0  6 28 18 14 22 29 19
  23668313.809     -358816.177 3   -139677.863 1
  20669106.371   -19583504.758 6 -14275036.561 7
  19972632.348    -6899343.692 7  -5307925.613 8
  20732969.965    -9478489.371 7  -7307625.438 8
  19629706.293   -17714016.992 7 -13743041.471 9
  21507064.027   -13960108.719 6 -10706195.762 6
 95  2 19 18 18 59.9960000  0  6 28 18 14 22 29 19
  23651276.293     -448326.243 3   -209425.817 2
  20652299.348   -19671832.059 6 -14343863.004 7
  19981693.012    -6851726.748 7  -5270821.554 8
  20740987.160    -9436344.479 7  -7274785.290 7
  19621367.785   -17757836.671 7 -13777186.682 9
  21491246.566   -14043217.381 6 -10770955.719 6
 95  2 19 18 19 29.9960000  0  6 28 18 14 22 29 19
  23634260.027     -537754.155 3   -279109.755 2
  20635518.574   -19760007.944 6 -14412571.465 7
  19990842.285    -6803646.380 7  -5233356.380 8
  20749095.731    -9393743.946 7  -7241590.099 7
  19613073.387   -17801425.804 7 -13811152.251 9
  21475476.887   -14126102.207 6 -10835541.253 6
 95  2 19 18 19 59.9960000  0  6 28 18 14 22 29 19
  23617259.621     -627098.194 3   -348728.315 1
  20618768.582   -19848036.483 6 -14481165.109 7
  20000077.582    -6755113.746 7  -5195538.789 8
  20757290.871    -9350682.048 7  -7208035.405 7
  19604822.340   -17844780.217 7 -13844934.922 9
  21459744.395   -14208757.038 6 -10899947.572 6
 95  2 19 18 20 29.9960000  0  6 28 18 14 22 29 19
  23600276.231     -716351.143 3   -418275.931 2
  20602042.434   -19935922.689 6 -14549647.837 7
  20009397.731    -6706132.664 7  -5157371.763 8
  20765577.316    -9307142.123 7  -7174108.223 7
  19596619.316   -17887887.866 7 -13878525.306 9
  21444062.481   -14291187.331 6 -10964178.927 6
 95  2 19 18 20 59.9960000  0  6 28 18 14 22 29 19
  23583309.285     -805516.409 3   -487755.232 2
  20585347.684   -20023663.895 6 -14618017.588 7
  20018803.746    -6656710.780 7  -5118861.251 8
  20773946.473    -9263148.934 7  -7139827.855 7
  19588468.676   -17930728.711 7 -13911907.793 9
  21428411.824   -14373423.507 6 -11028259.027 6
 95  2 19 18 21 29.9960000  0  6 28 18 14 22 29 19
  23566354.613     -894598.644 4   -557169.835 4
  20568677.402   -20111266.201 6 -14686279.104 7
  20028291.207    -6606851.398 7  -5080009.839 8
  20782406.582    -9218714.926 7  -7105203.985 7
  19580366.035   -17973299.579 7 -13945079.908 9
  21412797.434   -14455476.943 6 -11092196.723 6
 95  2 19 18 21 59.9960000  0  6 28 18 14 22 29 19
  23549423.637     -983577.377 3   -626503.752 3
  20552034.191   -20198721.908 7 -14754426.393 7
  20037869.715    -6556532.231 7  -5040800.149 8
  20790943.754    -9173817.063 7  -7070218.673 7
  19572317.832   -18015594.778 7 -13978037.215 9
  21397222.371   -14537334.423 6 -11155981.739 6
 95  2 19 18 22 29.9960000  0  6 28 18 14 22 29 19
  23532512.957    -1072457.898 3   -695761.147 3
  20535418.973   -20286034.823 6 -14822462.416 7
  20047528.793    -6505751.956 7  -5001231.149 8
  20799573.668    -9128487.378 7  -7034896.876 7
  19564320.809   -18057626.707 7 -14010789.372 9
  21381675.824   -14619014.284 6 -11219628.342 6
 95  2 19 18 22 59.9960000  0  6 28 18 14 22 29 19
  23515615.270    -1161233.127 3   -764936.481 2
  20518834.074   -20373196.472 7 -14890380.563 7
  20057282.410    -6454516.285 7  -4961307.309 8
  20808278.543    -9082721.580 7  -6999235.255 7
  19556371.574   -18099396.123 7 -14043336.980 9
  21366172.840   -14700496.235 6 -11283120.744 6
 95  2 19 18 23 29.9960000  0  6 28 18 14 22 29 19
  23498744.246    -1249894.582 3   -834023.227 2
  20502272.356   -20460214.607 6 -14958186.885 7
  20067115.973    -6402818.891 7  -4921023.672 8
  20817084.410    -9036489.965 7  -6963210.655 7
  19548470.754   -18140914.781 7 -14075689.183 9
  21350711.332   -14781752.383 6 -11346437.187 6
 95  2 19 18 23 59.9960000  0  6 28 18 14 22 29 19
  23481898.465    -1338442.701 3   -903021.625 4
  20485741.746   -20547091.896 6 -15025883.453 7
  20077042.598    -6350666.044 7  -4880385.141 8
  20825965.355    -8989795.878 7  -6926825.693 7
  19540616.230   -18182185.984 7 -14107848.561 9
  21335289.754   -14862784.605 6 -11409579.144 6
 95  2 19 18 24 29.9960000  0  6 28 18 14 22 29 19
  23465069.168    -1426866.080 3   -971922.806 4
  20469242.434   -20633804.698 7 -15093451.853 7
  20087052.066    -6298055.131 7  -4839389.680 8
  20834942.098    -8942627.031 6  -6890070.796 7
  19532813.520   -18223194.451 7 -14139803.213 9
  21319912.621   -14943582.003 6 -11472538.126 6
 95  2 19 18 24 59.9960000  0  6 28 18 14 22 29 19
  23448260.660    -1515174.257 3  -1040734.218 4
  20452771.973   -20720352.231 7 -15160891.480 7
  20097147.441    -6245015.417 7  -4798060.084 8
  20844011.184    -8894981.928 7  -6852944.765 7
  19525055.840   -18263956.020 7 -14171565.481 9
  21304582.207   -15024147.594 6 -11535316.477 6
 95  2 19 18 25 29.9960000  0  6 28 18 14 22 29 19
  23431481.191    -1603359.992 3  -1109450.218 3
  20436338.520   -20806712.855 7 -15228185.455 7
  20107322.699    -6191539.753 7  -4756390.790 8
  20853164.184    -8846866.807 6  -6815452.503 7
  19517349.832   -18304463.508 7 -14203129.758 9
  21289293.777   -15104487.505 6 -11597918.973 6
 95  2 19 18 25 59.9960000  0  6 28 18 14 22 29 19
  23414725.762    -1691405.766 3  -1178057.219 2
  20419945.691   -20892852.155 7 -15295306.974 7
  20117583.582    -6137623.630 7  -4714378.277 8
  20862407.457    -8798288.747 6  -6777599.511 7
  19509693.191   -18344691.121 7 -14234475.954 9
  21274053.301   -15184584.322 6 -11660332.044 6
 95  2 19 18 26 29.9960000  0  6 28 18 14 22 29 19
  23397998.855    -1779320.349 3  -1246561.924 2
  20403592.660   -20978788.959 7 -15362270.701 7
  20127922.027    -6083287.353 7  -4672038.372 8
  20871741.027    -8749258.596 6  -6739394.242 7
  19502088.785   -18384645.528 7 -14265609.259 9
  21258854.840   -15264450.163 6 -11722565.139 6
 95  2 19 18 26 59.9960000  0  6 28 18 14 22 29 19
  23381293.145    -1867094.785 3  -1314957.439 3
  20387274.973   -21064536.365 7 -15429086.850 7
  20138344.785    -6028527.788 7  -4629368.634 8
  20881151.480    -8699788.879 6  -6700846.447 7
  19494539.848   -18424320.217 7 -14296524.608 9
  21243700.723   -15344088.040 6 -11784620.596 6
 95  2 19 18 27 29.9960000  0  6 28 18 14 22 29 19
  23364618.035    -1954725.368 3  -1383240.847 3
  20370989.957   -21150123.272 7 -15495777.935 7
  20148844.941    -5973332.889 7  -4586359.677 8
  20890649.395    -8649893.140 6  -6661966.696 7
  19487044.113   -18463711.497 7 -14327219.114 9
  21228588.113   -15423506.310 6 -11846504.936 6
 95  2 19 18 27 59.9960000  0  6 28 18 14 22 29 19
  23347969.402    -2042227.264 3  -1451423.986 3
  20354726.254   -21235585.749 7 -15562372.060 7
  20159430.777    -5917714.350 6  -4543020.601 8
  20900216.293    -8599595.495 6  -6622773.754 7
  19479599.035   -18502833.109 7 -14357703.491 9
  21213510.980   -15502734.366 6 -11908241.053 6
 95  2 19 18 28 29.9960000  0  6 28 18 14 22 29 19
  23331343.621    -2129584.079 3  -1519494.078 4
  20338489.473   -21320914.058 7 -15628861.636 7
  20170099.660    -5861652.796 6  -4499336.327 8
  20909868.551    -8548881.992 6  -6583256.782 7
  19472209.215   -18541675.408 7 -14387970.221 9
  21198468.176   -15581781.978 6 -11969836.560 6
 95  2 19 18 28 59.9960000  0  6 28 18 14 22 29 19
  23314751.629    -2216793.228 3  -1587449.092 2
  20322279.441   -21406088.793 7 -15695231.549 7
  20180852.582    -5805137.950 6  -4455298.836 7
  20919595.215    -8497759.968 6  -6543421.482 7
  19464870.324   -18580236.854 7 -14418018.109 9
  21183459.723   -15660652.439 6 -12031294.031 6
 95  2 19 18 29 29.9960000  0  6 28 18 14 22 29 19
  23298182.988    -2303848.720 3  -1655284.376 3
  20306108.121   -21491081.722 7 -15761459.796 7
  20191691.629    -5748171.769 6  -4410909.656 7
  20929406.988    -8446206.518 6  -6503250.007 7
  19457587.730   -18618506.444 7 -14447838.574 9
  21168485.723   -15739337.429 6 -12092606.971 6
 95  2 19 18 29 59.9960000  0  6 28 18 14 22 29 19
  23281637.668    -2390762.381 3  -1723009.122 2
  20289969.770   -21575880.546 7 -15827536.797 8
  20202615.223    -5690780.510 6  -4366189.243 7
  20939300.590    -8394222.448 6  -6462742.990 7
  19450358.738   -18656495.640 7 -14477440.548 9
  21153547.441   -15817838.814 6 -12153776.855 6
 95  2 19 18 30 29.9960000  0  6 28 18 14 22 29 19
  23265133.465    -2477530.301 4  -1790620.348 3
  20273871.621   -21660479.980 7 -15893458.424 7
  20213613.035    -5632979.562 6  -4321149.593 7
  20949276.293    -8341797.115 6  -6421892.122 7
  19443181.824   -18694210.375 7 -14506828.660 9
  21138647.707   -15896136.444 6 -12214787.965 6
 95  2 19 18 30 59.9960000  0  6 28 18 14 22 29 19
  23248648.668    -2564143.641 4  -1858111.086 2
  20257810.770   -21744881.413 7 -15959225.754 7
  20224691.652    -5574769.888 6  -4275791.456 7
  20959336.707    -8288930.927 6  -6380697.732 7
  19436057.676   -18731648.745 7 -14536001.422 9
  21123793.754   -15974206.337 6 -12275621.609 6
 95  2 19 18 31 29.9960000  0  6 28 18 14 22 29 19
  23232203.348    -2650602.148 5  -1925481.212 4
  20241781.293   -21829104.439 7 -16024854.081 7
  20235842.051    -5516157.751 6  -4230119.716 7
  20969478.574    -8235629.379 6  -6339164.105 7
  19428985.816   -18768818.631 7 -14564964.973 9
  21108978.332   -16052051.348 6 -12336280.028 6
 95  2 19 18 31 59.9960000  0  6 28 18 14 22 29 19
  23215778.301    -2736883.596 5  -1992713.378 3
  20225791.113   -21913143.932 7 -16090339.386 7
  20247081.512    -5457114.726 6  -4184112.234 7
  20979706.918    -8181887.238 6  -6297287.157 7
  19421962.887   -18805711.812 7 -14593712.910 9
  21094213.926   -16129650.243 6 -12396746.669 6
 95  2 19 18 32 29.9960000  0  6 28 18 14 22 29 19
  23199391.191    -2822995.799 5  -2059813.619 2
  20209831.793   -21997014.538 7 -16155693.090 8
  20258397.324    -5397642.807 6  -4137770.524 7
  20990010.996    -8127729.478 6  -6255086.356 7
  19414993.973   -18842341.267 7 -14622255.347 9
  21079488.324   -16207019.960 6 -12457034.725 6
 95  2 19 18 32 59.9960000  0  6 28 18 14 22 29 19
  23183034.723    -2908949.221 5  -2126790.169 2
  20193901.387   -22080726.255 7 -16220922.983 8
  20269791.520    -5337751.147 6  -4091101.753 7
  21000392.551    -8073186.071 6  -6212585.044 7
  19408073.051   -18878704.872 7 -14650590.632 9
  21064803.879   -16284179.420 6 -12517158.942 6
 95  2 19 18 33 29.9960000  0  6 28 18 14 22 29 19
  23166714.231    -2994723.643 4  -2193627.291 2
  20178004.895   -22164259.743 7 -16286013.994 8
  20281275.215    -5277426.110 6  -4044095.283 7
  21010848.371    -8018226.442 6  -6169759.405 7
  19401209.637   -18914777.211 7 -14678698.951 9
  21050166.605   -16361114.793 6 -12577108.550 6
 95  2 19 18 33 59.9960000  0  6 28 18 14 22 29 19
  23150428.215    -3080321.947 4  -2260327.130 2
  20162142.160   -22247613.964 7 -16350965.314 8
  20292828.856    -5216699.199 6  -3996775.664 7
  21021386.895    -7962859.158 6  -6126616.109 7
  19394401.559   -18950553.255 7 -14706576.397 9
  21035571.043   -16437822.248 6 -12636880.540 6
 95  2 19 18 34 29.9960000  0  6 28 18 14 22 29 19
  23134167.418    -3165739.641 5  -2326886.282 2
  20146317.105   -22330780.582 7 -16415770.448 8
  20304457.566    -5155594.618 6  -3949161.762 7
  21031998.293    -7907087.620 6  -6083157.814 7
  19387654.723   -18986013.502 7 -14734207.762 9
  21021013.301   -16514300.851 6 -12696474.227 6
 95  2 19 18 34 59.9960000  0  6 28 18 14 22 29 19
  23117953.223    -3250975.181 5  -2393303.475 3
  20130525.816   -22413758.134 7 -16480428.268 8
  20316154.645    -5094120.886 6  -3901260.205 7
  21042687.254    -7850915.479 6  -6039387.348 7
  19380967.535   -19021148.309 7 -14761585.538 9
  21006504.605   -16590559.105 6 -12755896.203 6
 95  2 19 18 35 29.9960000  0  6 28 18 14 22 29 19
  23101764.160    -3336028.328 4  -2459578.573 4
  20114776.129   -22496530.155 7 -16544925.932 8
  20327924.121    -5032286.073 6  -3853077.287 7
  21053453.160    -7794335.434 6  -5995299.046 7
  19374340.926   -19055967.689 7 -14788717.528 9
  20992032.332   -16666602.368 6 -12815150.652 6
 95  2 19 18 35 59.9960000  0  6 28 18 14 22 29 19
  23085613.902    -3420895.495 4  -2525708.765 4
  20099067.254   -22579082.253 7 -16609252.225 8
  20339759.652    -4970085.131 6  -3804609.084 7
  21064294.504    -7737369.975 6  -5950910.427 7
  19367776.191   -19090466.629 7 -14815599.822 9
  20977604.176   -16742424.188 6 -12874232.556 6
 95  2 19 18 36 29.9960000  0  6 28 18 14 22 29 19
  23069497.223    -3505567.578 4  -2591686.928 3
  20083401.941   -22661402.414 7 -16673397.795 8
  20351671.395    -4907487.495 6  -3755831.763 7
  21075207.777    -7680021.753 6  -5906223.554 7
  19361273.676   -19124640.470 7 -14842228.807 9
  20963219.504   -16818031.280 6 -12933147.132 6
 95  2 19 18 36 59.9960000  0  6 28 18 14 22 29 19
  23053429.207    -3590041.602 3  -2657510.775 4
  20067781.512   -22743487.086 7 -16737359.869 8
  20363660.566    -4844479.005 6  -3706734.288 7
  21086193.356    -7622289.684 6  -5861237.577 7
  19354831.254   -19158493.852 7 -14868608.065 9
  20948870.762   -16893429.626 6 -12991899.063 6
 95  2 19 18 37 29.9960000  0  6 28 18 14 22 29 19
  23037379.488    -3674340.197 3  -2723197.914 4
  20052200.574   -22825370.617 7 -16801165.201 8
  20375720.941    -4781096.164 6  -3657345.121 7
  21097250.418    -7564192.480 6  -5815967.079 7
  19348443.254   -19192063.477 7 -14894766.220 9
  20934558.418   -16968637.186 6 -13050502.328 6
 95  2 19 18 37 59.9960000  0  6 28 18 14 22 29 19
  23021382.574    -3758445.957 5  -2788734.754 3
  20036653.043   -22907063.525 7 -16864822.018 8
  20387859.262    -4717323.580 6  -3607652.259 7
  21108374.863    -7505726.507 6  -5770409.226 7
  19342111.934   -19225333.481 7 -14920690.903 9
  20920286.340   -17043650.482 6 -13108954.221 6
 95  2 19 18 38 29.9960000  0  6 28 18 14 22 29 19
  23005419.012    -3842344.671 4  -2854110.317 5
  20021145.481   -22988563.294 7 -16928328.310 8
  20400067.465    -4653157.211 6  -3557652.548 7
  21119576.324    -7446871.952 6  -5724548.578 7
  19335838.816   -19258300.752 7 -14946379.690 9
  20906043.895   -17118475.544 6 -13167259.449 6
 95  2 19 18 38 59.9960000  0  6 28 18 14 22 29 19
  22989485.707    -3926027.141 4  -2919317.345 4
  20005674.301   -23069864.350 7 -16991679.772 8
  20412353.895    -4588596.197 6  -3507345.326 7
  21130847.816    -7387623.022 6  -5678380.635 7
  19329622.238   -19290970.664 7 -14971836.771 9
  20891844.418   -17193097.554 6 -13225406.451 6
 95  2 19 18 39 29.9960000  0  6 28 18 14 22 29 19
  22973607.215    -4009510.611 5  -2984369.316 5
  19990236.809   -23150985.603 7 -17054891.129 8
  20424710.324    -4523659.019 6  -3456744.981 7
  21142193.629    -7328011.588 6  -5631930.212 7
  19323457.160   -19323368.468 7 -14997081.817 9
  20877684.004   -17267527.145 6 -13283403.513 6
 95  2 19 18 39 59.9960000  0  6 28 18 14 22 29 19
  22957756.980    -4092782.899 4  -3049256.729 4
  19974838.590   -23231905.263 7 -17117945.402 8
  20437143.324    -4458331.243 6  -3405840.284 7
  21153607.145    -7268040.139 6  -5585199.257 7
  19317348.223   -19355471.766 7 -15022097.377 9
  20863554.840   -17341756.161 6 -13341244.288 6
 95  2 19 18 40 29.9950000  0  6 28 18 14 22 29 19
  22941951.929    -4175847.164 4  -3113982.053 5
  19959481.171   -23312608.763 7 -17180831.239 8
  20449644.468    -4392632.439 6  -3354646.467 7
  21165086.226    -7207722.983 6  -5538198.916 7
  19311294.226   -19387287.224 7 -15046888.648 9
  20849469.694   -17415770.326 6 -13398917.642 6
 95  2 19 18 40 59.9950000  0  6 28 18 14 22 29 19
  22926182.944    -4258699.573 4  -3178542.256 4
  19944166.968   -23393088.965 7 -17243543.078 8
  20462218.116    -4326564.666 6  -3303165.147 7
  21176630.765    -7147043.617 6  -5490916.338 6
  19305297.163   -19418795.659 7 -15071440.681 9
  20835431.218   -17489565.055 6 -13456420.010 6
 95  2 19 18 41 29.9950000  0  6 28 18 14 22 29 19
  22910460.671    -4341329.271 4  -3242928.950 5
  19928896.304   -23473340.356 7 -17306076.619 8
  20474851.358    -4260144.332 6  -3251409.111 7
  21188249.413    -7085987.699 6  -5443340.342 7
  19299366.210   -19449965.857 7 -15095729.162 9
  20821426.726   -17563142.313 6 -13513752.917 6
 95  2 19 18 41 59.9950000  0  6 28 18 14 22 29 19
  22894768.577    -4423741.360 3  -3307146.071 4
  19913667.319   -23553367.434 7 -17368435.375 8
  20487560.608    -4193389.392 6  -3199392.322 7
  21199938.577    -7024558.178 6  -5395473.218 7
  19293499.694   -19480796.155 7 -15119752.771 9
  20807464.257   -17636521.707 6 -13570931.639 6
 95  2 19 18 42 29.9950000  0  6 28 18 14 22 29 19
  22879130.546    -4505929.949 3  -3371189.024 4
  19898480.483   -23633165.584 7 -17430615.741 8
  20500327.179    -4126300.163 6  -3147115.059 7
  21211701.171    -6962752.851 6  -5347313.268 6
  19287696.772   -19511290.449 7 -15143514.566 9
  20793540.249   -17709702.406 6 -13627955.533 6
 95  2 19 18 42 59.9950000  0  6 28 18 14 22 29 19
  22863540.648    -4587899.092 5  -3435060.964 3
  19883337.804   -23712747.276 7 -17492627.436 8
  20513152.882    -4058881.411 6  -3094581.026 7
  21223531.101    -6900586.587 6  -5298872.061 7
  19281957.944   -19541454.099 7 -15167018.710 9
  20779647.069   -17782700.928 6 -13684837.468 6
 95  2 19 18 43 29.9950000  0  6 28 18 14 22 29 19
  22847988.905    -4669643.962 5  -3498758.205 4
  19868238.358   -23792102.047 7 -17554462.314 8
  20526050.249    -3991117.589 6  -3041778.114 7
  21235422.796    -6838074.773 6  -5250161.594 6
  19276276.937   -19571302.135 7 -15190276.933 9
  20765792.757   -17855493.318 6 -13741558.778 6
 95  2 19 18 43 59.9950000  0  6 28 18 14 22 29 19
  22832476.843    -4751158.512 5  -3562275.958 5
  19853181.288   -23871219.785 7 -17616112.482 8
  20539014.835    -3922996.564 6  -2988696.854 7
  21247383.999    -6775227.422 6  -5201189.680 6
  19270653.194   -19600857.383 7 -15213307.003 9
  20751984.476   -17928062.192 6 -13798105.909 6
 95  2 19 18 44 29.9950000  0  6 28 18 14 22 29 19
  22817006.812    -4832437.784 5  -3625610.389 5
  19838170.585   -23950102.690 7 -17677579.675 8
  20552044.069    -3854520.209 6  -2935338.715 7
  21259406.507    -6712045.602 6  -5151957.132 6
  19265084.601   -19630121.941 7 -15236110.558 8
  20738222.390   -18000394.648 6 -13854468.835 6
 95  2 19 18 44 59.9950000  0  6 28 18 14 22 29 19
  22801587.171    -4913475.591 5  -3688756.661 4
  19823205.897   -24028750.353 7 -17738863.556 8
  20565142.429    -3785685.257 6  -2881701.158 7
  21271497.226    -6648511.484 6  -5102450.079 6
  19259571.601   -19659086.780 7 -15258680.572 9
  20724499.327   -18072493.562 6 -13910649.758 6
 95  2 19 18 45 29.9950000  0  6 28 18 14 22 29 19
  22786209.718    -4994267.836 5  -3751711.611 4
  19808284.007   -24107163.209 7 -17799964.476 8
  20578310.304    -3716493.246 6  -2827785.369 7
  21283658.671    -6584610.315 6  -5052657.014 6
  19254116.921   -19687752.300 7 -15281017.351 9
  20710821.358   -18144370.243 6 -13966657.537 6
 95  2 19 18 45 59.9950000  0  6 28 18 14 22 29 19
  22770886.632    -5074819.776 5  -3814479.326 5
  19793402.132   -24185361.083 7 -17860897.879 8
  20591540.827    -3646961.568 6  -2773604.907 7
  21295888.093    -6520350.511 6  -5002584.493 6
  19248721.772   -19716108.060 7 -15303112.756 9
  20697180.210   -18216061.220 6 -14022520.604 6
 95  2 19 18 46 29.9950000  0  6 28 18 14 22 29 19
  22755600.804    -5155118.299 5  -3877049.543 3
  19778563.585   -24263340.555 7 -17921661.092 8
  20604838.210    -3577083.621 6  -2719154.623 6
  21308184.835    -6455728.571 6  -4952229.781 6
  19243389.616   -19744123.287 7 -15324942.803 8
  20683575.296   -18287572.690 6 -14078243.790 6
 95  2 19 18 46 59.9950000  0  6 28 18 14 22 29 19
  22740365.468    -5235167.738 5  -3939425.740 5
  19763763.030   -24341111.069 7 -17982261.486 8
  20618196.804    -3506873.822 6  -2664445.736 6
  21320547.546    -6390762.948 6  -4901607.271 6
  19238122.624   -19771806.066 7 -15346513.802 9
  20669997.968   -18358918.778 6 -14133838.107 6
 95  2 19 18 47 29.9950000  0  6 28 18 14 22 29 19
  22725183.062    -5314972.801 5  -4001611.459 4
  19749006.624   -24418664.731 7 -18042692.907 8
  20631617.187    -3436355.422 6  -2609496.399 6
  21332967.382    -6325486.091 6  -4850742.232 6
  19232915.249   -19799167.757 7 -15367834.607 9
  20656451.046   -18430090.758 6 -14189296.764 6
 95  2 19 18 47 59.9950000  0  6 28 18 14 22 29 19
  22710043.280    -5394525.154 5  -4063600.257 4
  19734292.726   -24495987.633 7 -18102944.510 8
  20645096.101    -3365531.131 6  -2554308.697 6
  21345447.851    -6259901.391 6  -4799637.327 6
  19227771.194   -19826201.252 7 -15388899.671 9
  20642943.983   -18501070.472 6 -14244605.599 7
 95  2 19 18 48 29.9950000  0  6 28 18 14 22 29 19
  22694954.679    -5473809.706 5  -4125380.399 5
  19719625.999   -24573061.296 7 -18163001.905 8
  20658636.460    -3294393.888 6  -2498877.140 6
  21357991.522    -6193997.460 6  -4748283.670 6
  19222690.241   -19852903.839 7 -15409706.886 9
  20629480.108   -18571824.052 6 -14299738.221 7
 95  2 19 18 48 59.9950000  0  6 28 18 14 22 29 19
  22679919.163    -5552827.882 5  -4186952.986 4
  19705009.124   -24649872.772 7 -18222854.992 8
  20672226.507    -3222955.400 6  -2443210.842 6
  21370592.226    -6127780.220 6  -4696685.871 6
  19217670.093   -19879283.388 7 -15430262.378 9
  20616060.530   -18642346.936 6 -14354691.087 6
 95  2 19 18 49 29.9950000  0  7 28 18 14 31 22 29 19
  22664927.718    -5631588.242 4  -4248324.653 3
  19690440.773   -24726427.540 7 -18282508.053 8
  20685875.452    -3151221.072 6  -2387314.028 6
  23071111.999          -0.16013
  21383247.233    -6061263.555 6  -4644854.755 6
  19212710.476   -19905337.832 7 -15450564.541 9
  20602680.671   -18712650.753 6 -14409473.258 7
 95  2 19 18 49 59.9950000  0  7 28 18 14 31 22 29 19
  22649992.999    -5710085.943 5  -4309491.667 3
  19675917.304   -24802749.622 7 -18341979.795 8
  20699589.210    -3079173.321 6  -2331172.983 6
  23050793.155     -106789.005 3
  21395962.796    -5994445.832 6  -4592789.051 6
  19207817.483   -19931053.495 7 -15470602.721 8
  20589345.538   -18782739.108 6 -14464087.528 6
 95  2 19 18 50 29.9950000  0  7 28 18 14 31 22 29 19
  22635115.546    -5788310.703 5  -4370446.004 4
  19661439.179   -24878829.152 7 -18401262.550 9
  20713360.171    -3006802.115 6  -2274779.902 6
  23030473.179     -213585.050 3        -0.25011
  21408734.874    -5927327.999 6  -4540489.494 6
  19202992.796   -19956409.933 7 -15490360.989 8
  20576049.140   -18852609.814 6 -14518532.206 6
 95  2 19 18 50 59.9950000  0  7 28 18 14 31 22 29 19
  22620272.499    -5866260.611 5  -4431186.171 4
  19647009.124   -24954661.361 7 -18460352.582 9
  20727194.890    -2934108.508 6  -2218135.592 6
  23010152.116     -320382.105 3    -83218.627 2
  21421568.351    -5859906.994 6  -4487953.696 6
  19198236.710   -19981404.272 7 -15509837.096 9
  20562791.546   -18922286.281 6 -14572825.530 6
 95  2 19 18 51 29.9950000  0  7 28 18 14 31 22 29 19
  22605501.437    -5943944.456 5  -4491719.035 4
  19632622.624   -25030261.416 7 -18519261.711 9
  20741087.749    -2861103.778 6  -2161248.854 6
  22989817.796     -427202.887 3   -166455.450 2
  21434456.233    -5792183.227 6  -4435181.986 6
  19193548.148   -20006041.974 7 -15529035.309 8
  20549567.155   -18991777.300 6 -14626974.361 6
 95  2 19 18 51 59.9950000  0  8 28 18 14 31 22 29 19 27
  22590764.421    -6021345.301 5  -4552031.352 4
  19618285.694   -25105605.965 7 -18577971.751 9
  20755039.194    -2787775.461 6  -2104109.965 6
  22969488.280     -534041.502 3   -249706.175 2
  21447400.858    -5724129.492 6  -4382153.167 6
  19188927.905   -20030323.948 7 -15547956.331 9
  20536380.788   -19061067.868 6 -14680966.991 6
  23661013.413          -0.16813
 95  2 19 18 52 29.9950000  0  8 28 18 14 31 22 29 19 27
  22576089.397    -6098467.940 5  -4612126.879 5
  19604000.452   -25180677.581 7 -18636469.116 9
  20769054.577    -2714142.200 6  -2046733.461 6
  22949153.507     -640908.380 4   -332978.862 2
  21460415.390    -5655751.177 6  -4328871.415 6
  19184371.218   -20054273.265 7 -15566618.144 8
  20523228.624   -19130175.441 6 -14734817.022 6
  23642379.952      -97965.513 3        -0.35713
 95  2 19 18 52 59.9950000  0  8 28 18 14 31 22 29 19 27
  22561470.741    -6175300.588 5  -4671996.454 5
  19589768.866   -25255465.100 7 -18694745.105 9
  20783126.140    -2640199.903 6  -1989116.145 6
  22928811.249     -747798.329 4   -416269.561 3
  21473487.772    -5587036.166 6  -4275327.315 6
  19179876.007   -20077889.382 7 -15585020.326 8
  20510118.015   -19199082.437 6 -14788510.765 6
  23623741.327     -195868.661 3    -76288.388 2
 95  2 19 18 53 29.9950000  0  8 28 18 14 31 22 29 19 27
  22546903.530    -6251847.150 5  -4731643.092 4
  19575585.632   -25329982.854 7 -18752810.881 9
  20797248.007    -2565957.956 6  -1931265.338 6
  22908467.694     -854695.904 4   -499566.205 3
  21486625.648    -5518006.737 6  -4221538.196 6
  19175445.171   -20101178.272 7 -15603167.518 9
  20497045.593   -19267786.788 6 -14842046.603 7
  23605124.851     -293705.497 3
 95  2 19 18 53 59.9950000  0  8 28 18 14 31 22 29 19 27
  22532386.304    -6328107.351 5  -4791066.639 5
  19561456.882   -25404239.570 7 -18810673.250 9
  20811431.976    -2491419.900 6  -1873183.798 6
  22888127.983     -961587.418 3   -582858.107 3
  21499818.780    -5448683.977 6  -4167520.521 6
  19171072.702   -20124150.203 7 -15621067.735 8
  20484006.327   -19336308.450 6 -14895440.085 7
  23586515.030     -391483.198 3
 95  2 19 18 54 29.9950000  0  8 28 18 14 31 22 29 19 27
  22517930.108    -6404083.565 5  -4850268.853 5
  19547375.304   -25478248.069 7 -18868342.206 9
  20825672.288    -2416603.258 6  -1814885.176 6
  22867789.108    -1068465.557 3   -666139.587 4
  21513062.366    -5379083.950 6  -4113286.797 6
  19166762.522   -20146801.679 7 -15638718.245 8
  20470995.483   -19404660.722 6 -14948701.570 7
  23567926.163     -489211.320 3        -0.35111
 95  2 19 18 54 59.9950000  0  8 28 18 14 31 22 29 19 27
  22503530.210    -6479776.609 5  -4909250.400 5
  19533334.858   -25552020.556 7 -18925827.264 9
  20839957.140    -2341519.481 6  -1756378.395 6
  22847451.999    -1175326.189 3   -749407.416 3
  21526360.390    -5309210.845 6  -4058840.276 6
  19162517.054   -20169115.571 7 -15656105.706 8
  20458024.491   -19472838.211 6 -15001826.860 7
  23549331.780     -586873.520 3    -76100.700 2
 95  2 19 18 55 29.9950000  0  8 28 18 14 31 22 29 19 27
  22489178.999    -6555174.447 5  -4968001.956 5
  19519342.968   -25625554.291 7 -18983126.271 9
  20854303.069    -2266159.756 6  -1697656.593 6
  22827122.093    -1282175.953 3   -832666.800 4
  21539708.515    -5239062.818 6  -4004179.529 6
  19158337.265   -20191083.290 7 -15673223.418 8
  20445081.718   -19540836.668 6 -15054812.647 7
  23530772.132     -684447.693 3
 95  2 19 18 55 59.9950000  0  8 28 18 14 31 22 29 19 27
  22474889.358    -6630264.938 5  -5026514.022 5
  19505399.022   -25698828.290 7 -19040222.890 9
  20868696.952    -2190521.528 6  -1638717.774 6
  22806785.491    -1389032.510 3   -915931.501 3
  21553111.538    -5168631.763 6  -3949298.247 6
  19154225.038   -20212687.607 7 -15690057.967 9
  20432180.929   -19608641.648 6 -15107647.673 7
  23512221.241     -781928.955 3        -0.33011
 95  2 19 18 56 29.9950000  0  8 28 18 14 31 22 29 19 27
  22460651.780    -6705060.000 5  -5084795.872 5
  19491504.577   -25771841.808 7 -19097116.533 9
  20883136.976    -2114623.752 6  -1579576.709 6
  22786451.585    -1495913.346 3   -999215.140 2
  21566563.835    -5097928.817 6  -3894205.101 6
  19150184.452   -20233926.637 7 -15706607.877 8
  20419315.788   -19676248.073 6 -15160327.981 7
  23493676.773     -879328.309 3    -75895.875 1
 95  2 19 18 56 59.9950000  0  8 28 18 14 31 22 29 19 27
  22446482.491    -6779545.592 5  -5142836.584 5
  19477663.835   -25844574.023 7 -19153790.976 9
  20897635.077    -2038448.458 6  -1520219.397 6
  22766110.280    -1602799.131 3  -1082502.627 2
  21580069.530    -5026955.462 6  -3838901.254 6
  19146214.702   -20254786.628 7 -15722862.418 8
  20406493.343   -19743631.508 6 -15212834.526 7
  23475164.796     -976634.818 3   -151719.104 1
 95  2 19 18 57 29.9950000  0  8 28 18 14 31 22 29 19 27
  22432372.647    -6853722.745 5  -5200636.910 5
  19463878.780   -25917022.374 7 -19210244.230 9
  20912180.312    -1961990.457 6  -1460641.793 6
  22745772.374    -1709678.685 3  -1165785.286 3
  21593625.913    -4955720.122 6  -3783393.260 6
  19142314.944   -20275276.160 7 -15738828.318 8
  20393711.132   -19810802.656 6 -15265175.660 7
  23456667.827    -1073871.178 4   -227487.656 1
 95  2 19 18 57 59.9950000  0  8 28 18 14 31 22 29 19 27
  22418316.882    -6927593.170 5  -5258198.256 5
  19450145.093   -25989182.725 7 -19266473.079 9
  20926779.874    -1885262.494 6  -1400853.822 6
  22725436.429    -1816521.602 3  -1249039.402 3
  21607228.655    -4884220.571 6  -3727679.383 6
  19138486.944   -20295397.358 7 -15754507.194 8
  20380969.140   -19877766.878 6 -15317355.545 7
  23438169.898    -1171054.315 3   -303214.747 2
 95  2 19 18 58 29.9950000  0  8 28 18 14 31 22 29 19 27
  22404316.827    -7001150.785 5  -5315515.883 5
  19436469.616   -26061056.617 7 -19322478.687 9
  20941433.077    -1808257.162 6  -1340849.732 6
  22705117.866    -1923300.075 3  -1332243.319 3
  21620891.577    -4812448.911 6  -3671753.484 6
  19134724.898   -20315159.907 7 -15769906.599 8
  20368265.687   -19944515.447 6 -15369367.395 7
  23419693.108    -1268178.719 3   -378896.062 1
 95  2 19 18 58 59.9950000  0  8 28 18 14 31 22 29 19 27
  22390376.398    -7074389.583 5  -5372585.026 5
  19422845.562   -26132646.014 7 -19378262.624 9
  20956143.991    -1730979.331 6  -1280633.292 6
  22684813.062    -2030010.392 3  -1415394.114 1
  21634601.944    -4740407.797 6  -3615617.623 6
  19131030.343   -20334578.449 7 -15785037.938 8
  20355602.819   -20011058.358 6 -15421218.997 7
  23401219.187    -1365230.376 3   -454520.737 1
 95  2 19 18 59 29.9950000  0  8 28 18 14 31 22 29 19 27
  22376490.601    -7147310.491 5  -5429406.522 5
  19409274.546   -26203958.363 7 -19433830.675 9
  20970893.991    -1653451.303 6  -1220221.917 6
  22664517.140    -2136669.979 3  -1498505.427 2
  21648360.405    -4668094.876 6  -3559269.954 6
  19127399.702   -20353659.704 7 -15799906.467 8
  20342979.921   -20077406.448 6 -15472918.783 7
  23382763.647    -1462208.067 3   -530087.750 1
 95  2 19 18 59 59.9950000  0  8 28 18 14 31 22 29 19 27
  22362686.390    -7219903.449 5  -5485972.406 5
  19395756.890   -26274987.298 7 -19489177.889 9
  20985695.468    -1575685.845 6  -1159625.517 6
  22644228.827    -2243283.458 4  -1581580.805 2
  21662173.483    -4595512.412 6  -3502712.256 6
  19123832.921   -20372401.392 7 -15814510.390 8
  20330393.788   -20143550.570 6 -15524459.636 7
  23364335.429    -1559098.442 3   -605586.666 1
 95  2 19 19  0 29.9950000  0  8 28 18 14 31 22 29 19 27
  22348935.960    -7292176.120 5  -5542288.751 5
  19382294.343   -26345745.321 7 -19544314.008 9
  21000533.960    -1497695.057 6  -1098853.538 6
  22623946.093    -2349873.814 4  -1664638.163 2
  21676033.124    -4522677.053 6  -3445957.498 6
  19120328.413   -20390812.042 7 -15828856.358 8
  20317841.390   -20209511.674 6 -15575857.885 7
  23345904.882    -1655907.128 3   -681021.953 1
 95  2 19 19  0 59.9950000  0  8 28 18 14 31 22 29 19 27
  22335240.452    -7364127.282 5  -5598354.551 5
  19368879.202   -26416238.993 7 -19599244.145 8
  21015416.718    -1419489.284 6  -1037914.041 6
  22603666.991    -2456446.690 4  -1747681.922 4
  21689939.046    -4449604.293 6  -3389017.749 6
  19116892.312   -20408872.042 7 -15842929.097 8
  20305320.179   -20275304.159 6 -15627124.740 7
  23327492.405    -1752637.692 3   -756396.375 1
 95  2 19 19  1 29.9950000  0  8 28 18 14 31 22 29 19 27
  22321621.530    -7435750.443 5  -5654164.776 5
  19355515.921   -26486468.314 7 -19653968.290 9
  21030342.077    -1341058.422 6   -976799.139 6
  22583388.671    -2562992.587 4  -1830704.626 1
  21703889.687    -4376288.313 6  -3331888.478 6
  19113525.249   -20426570.049 7 -15856719.761 8
  20292835.210   -20340912.994 6 -15678248.491 7
  23309111.343    -1849297.138 3   -831715.368 1
 95  2 19 19  1 59.9950000  0  8 28 18 14 31 22 29 19 27
  22308040.194    -7507033.611 5  -5709710.098 5
  19342204.976   -26556417.201 7 -19708473.923 9
  21045315.062    -1262374.365 6   -915486.954 6
  22563129.585    -2669484.064 5  -1913684.958 2
  21717888.741    -4302717.282 6  -3274560.480 6
  19110229.210   -20443895.476 7 -15870220.102 8
  20280388.335   -20406328.149 6 -15729221.324 7
  23290727.233    -1945879.849 3   -906974.544 2
 95  2 19 19  2 29.9950000  0  8 28 18 14 31 22 29 19 27
  22294544.038    -7577976.718 5  -5764990.401 5
  19328949.030   -26626075.103 7 -19762752.802 8
  21060337.804    -1183426.223 6   -853968.984 6
  22542871.890    -2775916.935 4  -1996619.614 2
  21731936.866    -4228892.970 6  -3217035.109 6
  19107002.726   -20460844.521 7 -15883427.155 8
  20267977.546   -20471545.614 6 -15780040.117 7
  23272362.726    -2042391.653 3   -982178.449 2
 95  2 19 19  2 59.9950000  0  8 28 18 14 31 22 29 19 27
  22281104.976    -7648592.632 5  -5820015.778 5
  19315749.015   -26695442.494 7 -19816805.317 9
  21075410.054    -1104226.424 6   -792254.921 6
  22522623.522    -2882311.037 4  -2079524.046 2
  21746029.257    -4154841.311 6  -3159332.587 6
  19103847.421   -20477428.395 7 -15896349.670 8
  20255604.983   -20536564.825 6 -15830704.420 7
  23254001.991    -2138847.599 3  -1057338.815 2
 95  2 19 19  3 29.9950000  0  8 28 18 14 31 22 29 19 27
  22267730.163    -7718866.294 5  -5874774.456 5
  19302611.054   -26764485.874 7 -19870605.356 9
  21090535.577    -1024755.795 6   -730329.817 6
  22502390.046    -2988652.233 4  -2162387.207 3
  21760170.421    -4080535.091 6  -3101431.713 6
  19100761.702   -20493642.678 7 -15908984.187 8
  20243267.507   -20601374.593 6 -15881205.525 7
  23235665.741    -2235240.720 3  -1132450.263 3
 95  2 19 19  3 59.9950000  0  8 28 18 14 31 22 29 19 27
  22254431.249    -7788804.672 5  -5929271.855 5
  19289533.163   -26833208.825 7 -19924155.699 9
  21105709.765     -945027.633 6   -668204.042 5
  22482161.702    -3094951.555 4  -2245217.780 3
  21774355.148    -4005993.606 6  -3043347.514 6
  19097745.476   -20509490.463 7 -15921333.114 8
  20230970.491   -20666004.328 6 -15931566.349 7
  23217337.296    -2331583.228 3  -1207522.268 3
 95  2 19 19  4 29.9950000  0  8 28 18 14 31 22 29 19 27
  22241189.296    -7858394.914 5  -5983497.990 5
  19276517.429   -26901607.297 7 -19977453.212 9
  21120927.507     -865046.611 6   -605881.233 5
  22461940.890    -3201206.864 4  -2328014.034 3
  21788584.554    -3931213.594 6  -2985077.449 6
  19094801.413   -20524961.433 7 -15933388.417 8
  20218710.804   -20730447.381 6 -15981781.705 7
  23199001.069    -2427859.954 2  -1282542.983 2
 95  2 19 19  4 59.9950000  0  8 28 18 14 31 22 29 19 27
  22228011.007    -7927630.934 5  -6037448.118 5
  19263562.218   -26969690.949 7 -20030505.413 9
  21136193.960     -784820.239 6   -543367.242 6
  22441733.382    -3307405.788 4  -2410766.370 3
  21802860.765    -3856188.298 6  -2926616.256 6
  19091930.499   -20540050.162 7 -15945145.884 8
  20206478.530   -20794709.897 7 -16031856.379 7
  23180693.202    -2524063.159 3  -1357506.454 3
 95  2 19 19  5 29.9950000  0  8 28 18 14 31 22 29 19 27
  22214892.343    -7996527.877 5  -6091134.008 5
  19250659.780   -27037491.585 7 -20083337.080 9
  21151497.202     -704383.107 6   -480689.033 6
  22421534.569    -3413550.298 4  -2493476.297 3
  21817183.765    -3780928.262 6  -2867972.156 6
  19089125.694   -20554783.902 7 -15956626.730 8
  20194279.413   -20858819.744 6 -16081812.091 7
  23162399.671    -2620209.025 3  -1432425.229 3
 95  2 19 19  5 59.9950000  0  8 28 18 14 31 22 29 19 27
  22201862.452    -8065072.866 5  -6144545.691 5
  19237811.030   -27105003.615 7 -20135943.860 9
  21166841.460     -623745.514 6   -417854.613 5
  22401351.694    -3519618.274 5  -2576126.544 5
  21831547.851    -3705437.220 6  -2809148.054 6
  19086392.546   -20569154.385 7 -15967824.523 8
  20182115.733   -20922752.738 6 -16131629.997 7
  23144123.491    -2716271.784 3  -1507279.270 4
 95  2 19 19  6 29.9950000  0  8 28 18 14 31 22 29 19 27
  22188886.390    -8133248.129 5  -6197669.258 5
  19225026.812   -27172199.065 7 -20188303.949 9
  21182225.624     -542906.472 6   -354863.235 5
  22381185.210    -3625582.830 4  -2658696.246 4
  21845962.671    -3629692.365 6  -2750126.169 6
  19083729.187   -20583149.292 7 -15978729.663 8
  20169986.913   -20986469.719 7 -16181279.574 7
  23125872.741    -2812226.104 3  -1582048.796 4
 95  2 19 19  6 59.9950000  0  8 28 18 14 31 22 29 19 27
  22175976.921    -8201050.657 5  -6250502.375 5
  19212302.546   -27239066.866 7 -20240408.728 9
  21197649.507     -461867.969 6   -291716.411 6
  22361044.593    -3731434.418 4  -2741177.891 5
  21860423.116    -3553699.194 6  -2690910.790 6
  19081138.249   -20596764.805 7 -15989339.170 8
  20157903.929   -21049970.470 7 -16230760.682 7
  23107630.202    -2908078.798 3  -1656739.140 3
 95  2 19 19  7 29.9950000  0  8 28 18 14 31 22 29 19 27
  22163146.765    -8268492.586 5  -6303054.552 5
  19199639.202   -27305613.329 7 -20292263.113 9
  21213101.312     -380644.628 6   -228425.583 5
  22340913.647    -3837192.774 4  -2823586.906 3
  21874927.413    -3477479.186 6  -2631518.671 6
  19078616.249   -20610018.134 7 -15999666.451 8
  20145858.749   -21113262.536 7 -16280079.165 7
  23089395.187    -3003847.027 3  -1731363.675 4
 95  2 19 19  7 59.9950000  0  8 28 18 14 31 22 29 19 27
  22150381.843    -8335576.972 5  -6355328.069 5
  19187036.499   -27371837.801 7 -20343866.591 9
  21228599.187     -299232.493 6   -164987.627 5
  22320807.663    -3942858.246 4  -2905923.562 5
  21889472.288    -3401049.345 6  -2571963.046 6
  19076161.726   -20622912.971 7 -16009714.401 8
  20133853.991   -21176349.181 7 -16329237.570 7
  23071192.655    -3099543.380 3  -1805932.208 3
 95  2 19 19  8 29.9950000  0  8 28 18 14 31 22 29 19 27
  22137681.616    -8402302.186 5  -6407321.736 5
  19174494.093   -27437749.156 7 -20395226.079 9
  21244125.968     -217615.169 6   -101389.789 5
  22300716.304    -4048437.630 5  -2988193.100 4
  21904052.937    -3324418.267 5  -2512250.611 6
  19073777.241   -20635449.922 7 -16019483.471 8
  20121886.874   -21239242.250 7 -16378245.150 7
  23052997.608    -3195184.591 3  -1880457.766 4
 95  2 19 19  8 59.9950000  0  8 28 18 14 31 22 29 19 27
  22125054.710    -8468652.728 5  -6459023.438 5
  19162009.421   -27503360.408 7 -20446351.720 9
  21259701.491     -135766.118 6    -37611.389 5
  22280646.062    -4153922.066 5  -3070388.676 4
  21918676.187    -3247581.799 5  -2452378.127 6
  19071463.530   -20647609.423 7 -16028958.413 8
  20109952.022   -21301942.969 7 -16427102.842 7
  23034807.132    -3290763.231 4  -1954934.567 4
 95  2 19 19  9 29.9950000  0  8 28 18 14 31 22 29 19 27
  22112500.163    -8534631.902 5  -6510435.756 5
  19149579.374   -27568676.122 7 -20497247.078 9
  21275317.522      -53694.427 6     26340.495 5
  22260588.976    -4259321.818 5  -3152518.280 4
  21933336.687    -3170549.142 6  -2392352.757 6
  19069220.905   -20659395.154 7 -16038142.125 8
  20098059.312   -21364456.875 7 -16475814.967 7
  23016630.515    -3386278.936 3  -2029362.338 3
 95  2 19 19  9 59.9950000  0  8 28 18 14 31 22 29 19 27
  22100010.640    -8600241.706 5  -6561560.245 5
  19137203.366   -27633699.783 7 -20547914.864 9
  21290980.577       28590.368 6     90458.438 5
  22240541.210    -4364636.723 5  -3234581.777 3
  21948026.163    -3093338.225 6  -2332188.497 5
  19067049.491   -20670804.345 7 -16047032.422 8
  20086199.913   -21426798.023 7 -16524392.471 7
  22998462.358    -3481731.283 4  -2103740.719 4
 95  2 19 19 10 29.9950000  0  8 28 18 14 31 22 29 19 27
  22087594.585    -8665475.223 5  -6612391.540 5
  19124887.280   -27698431.188 7 -20598354.915 9
  21306681.483      111081.678 5    154737.290 5
  22220518.632    -4469870.509 5  -3316582.048 4
  21962756.882    -3015942.420 6  -2271880.177 5
  19064952.233   -20681815.286 7 -16055612.390 8
  20074369.452   -21488957.744 7 -16572828.605 7
  22980312.585    -3577120.701 4  -2178070.068 2
 95  2 19 19 10 59.9950000  0  8 28 18 14 31 22 29 19 27
  22075268.905    -8730333.610 5  -6662930.516 5
  19112627.085   -27762862.583 7 -20648561.198 9
  21322413.374      193759.076 5    219161.147 5
  22200513.882    -4575022.391 5  -3398518.514 4
  21977520.413    -2938355.373 5  -2211422.807 5
  19062935.249   -20692424.309 7 -16063879.184 9
  20062572.866   -21550941.717 7 -16621127.797 7
  22962171.546    -3672454.588 4  -2252356.147 3
 95  2 19 19 11 29.9950000  0  8 28 18 14 31 22 29 19 27
  22062987.624    -8794809.055 5  -6713171.092 5
  19100426.140   -27826963.148 7 -20698509.686 9
  21338173.937      276603.607 5    283715.241 5
  22180518.327    -4680082.001 5  -3480383.072 2
  21992322.140    -2860572.541 5  -2150812.899 5
  19060991.905   -20702635.641 7 -16071836.077 9
  20050811.819   -21612748.216 7 -16669288.700 7
  22944040.022    -3767728.045 4  -2326595.129 4
 95  2 19 19 11 59.9950000  0  8 28 18 14 31 22 29 19 27
  22050794.179    -8858902.279 5  -6763113.821 5
  19088291.273   -27890741.828 7 -20748207.353 9
  21353969.983      359601.534 5    348388.864 5
  22160542.804    -4785038.255 5  -3562167.116 4
  22007159.390    -2782591.860 5  -2090048.813 5
  19059121.062   -20712466.286 7 -16079496.339 8
  20039086.718   -21674378.636 7 -16717312.401 7
  22925921.437    -3862950.810 4  -2400794.606 3
 95  2 19 19 12 29.9950000  0  8 28 18 14 31 22 29 19 27
  22038669.601    -8922613.144 5  -6812758.632 5
  19076220.296   -27954187.509 7 -20797645.549 9
  21369795.898      442758.349 5    413186.293 5
  22140595.491    -4889886.759 5  -3643867.161 4
  22022042.124    -2704402.107 5  -2029121.800 5
  19057320.421   -20721925.777 7 -16086867.391 8
  20027386.679   -21735831.064 7 -16765197.408 7
  22907812.007    -3958131.884 4  -2474961.597 2
 95  2 19 19 12 59.9950000  0  8 28 18 14 31 22 29 19 27
  22026612.710    -8985941.273 5  -6862105.184 5
  19064212.679   -28017283.387 7 -20846811.170 9
  21385648.608      526064.775 5    478100.301 5
  22120661.882    -4994618.693 5  -3725476.406 4
  22036959.663    -2625999.304 5  -1968028.790 5
  19055588.741   -20731032.297 7 -16093963.394 8
  20015728.226   -21797108.980 7 -16812946.427 7
  22889705.835    -4053249.973 4  -2549079.505 3
 95  2 19 19 13 29.9950000  0  8 28 18 14 31 22 29 19 27
  22014643.327    -9048864.740 5
  19052277.187   -28080004.786 7
  21401532.147      609548.115 5    543152.170 6
  22100763.757    -5099200.158 5  -3806968.404 4
  22051921.124    -2547379.660 5  -1906766.802 5
  19053924.679   -20739762.912 7 -16100766.483 8
  20004108.702   -21858176.760 7 -16860531.700 7
  22871625.788    -4148272.401 4  -2623122.894 3
 95  2 19 19 13 59.9950000  0  8 28 18 14 31 22 29 19 27
  22002741.585    -9111400.129 5
  19040408.319   -28142377.089 7
  21417454.991      693211.135 5    608344.028 5
  22080893.780    -5203644.718 5  -3888353.713 3
  22066918.116    -2468571.709 5  -1845358.095 5
  19052334.085   -20748129.476 7 -16107285.903 9
  19992526.968   -21919037.222 7 -16907955.434 7
  22853559.569    -4243226.964 4  -2697113.406 2
 95  2 19 19 14 29.9950000  0  8 28 18 14 31 22 29 19 27
  21990924.280    -9173538.664 5
  19028608.265   -28204386.728 7
  21433407.788      777072.586 5    673690.519 5
  22061038.687    -5307949.334 5  -3969629.961 4
  22081951.749    -2389574.381 5  -1783801.817 5
  19050819.272   -20756093.851 7 -16113491.922 8
  19980985.046   -21979679.493 7 -16955209.142 7
  22835504.413    -4338101.004 4  -2771041.155 2
 95  2 19 19 14 59.9950000  0  8 28 18 14 31 22 29 19 27
  21979172.702    -9235275.967 5
  19016874.452   -28266050.699 7
  21449405.241      861122.602 5    739183.935 5
  22041217.530    -5412107.190 5  -4050791.883 4
  22097015.351    -2310400.983 5  -1722108.316 5
  19049382.640   -20763644.957 7 -16119375.907 8
  19969488.421   -22040102.853 7 -17002292.278 7
  22817465.312    -4432888.295 4  -2844901.317 2
 95  2 19 19 15 29.9950000  0  8 28 18 14 31 22 29 19 27
  21967505.288    -9296622.917 5
  19005198.944   -28327392.356 7
  21465433.491      945357.495 5    804821.411 5
  22021424.780    -5516133.155 5  -4131851.011 4
  22112110.601    -2231082.722 5  -1660301.960 5
  19048021.640   -20770791.124 7 -16124944.369 8
  19958028.796   -22100336.989 7 -17049227.961 7
  22799440.280    -4527624.712 4  -2918721.837 3
 95  2 19 19 15 59.9950000  0  8 28 18 14 31 22 29 19 27
  21955900.093    -9357561.620 5
  18993590.272   -28388402.609 7
  21481493.421     1029778.735 5    870604.098 5
  22001658.366    -5620017.024 5  -4212799.400 4
  22127235.194    -2151594.216 5  -1598362.962 5
  19046742.030   -20777524.417 7 -16130191.110 8
  19946600.179   -22160388.588 7 -17096021.406 7
  22781423.226    -4622287.905 4  -2992485.318 1
 95  2 19 19 16 29.9950000  0  8 28 18 14 31 22 29 19 27
  21944382.827    -9418087.010 5        -0.33815
  18982044.765   -28449077.378 7 -21183274.055 9
  21497594.296     1114368.771 5    936518.298 5
  21981913.851    -5723746.746 5  -4293627.698 4
  22142394.882    -2071937.400 5  -1536292.805 5
  19045538.030   -20783843.502 7 -16135115.079 8
  19935202.819   -22220274.734 7 -17142685.925 7
  22763426.249    -4716859.172 4  -3066177.171 2
 95  2 19 19 16 59.9950000  0  8 28 18 14 31 22 29 19 27
  21932937.218    -9478211.025 5    -46850.171 5
  18970557.218   -28509440.190 7 -21230310.018 9
  21513722.616     1199098.809 5   1002541.605 5
  21962204.312    -5827341.019 5  -4374350.440 4
  22157580.929    -1992131.594 5  -1474106.552 5
  19044408.148   -20789786.705 7 -16139746.162 8
  19923833.671   -22280021.534 7 -17189241.869 7
  22745444.241    -4811359.103 3  -3139813.442 2
 95  2 19 19 17 29.9950000  0  8 28 18 14 31 22 29 19 27
  21921576.983    -9537934.142 5
  18959129.874   -28569481.452 7 -21277095.422 9
  21529871.116     1283959.019 5   1068666.337 5
  21942511.616    -5930810.334 5  -4454975.831 4
  22172798.765    -1912176.692 5  -1411804.130 5
  19043345.991   -20795363.627 7 -16144091.831 8
  19912493.046   -22339628.444 7
  22727476.648    -4905784.755 4  -3213391.846 1
 95  2 19 19 17 59.9940000  0  8 28 18 14 31 22 29 19 27
  21910298.275    -9597233.111 5   -139594.549 5
  18947768.322   -28629187.272 7 -21323619.439 9
  21546049.830     1368962.320 5   1134902.565 5
  21922855.416    -6034129.142 5  -4535483.922 5
  22188041.947    -1832061.693 5  -1349376.971 5
  19042359.385   -20800550.405 7 -16148133.494 8
  19901184.697   -22399059.501 7 -17281998.705 7
  22709524.346    -5000107.174 3  -3286889.791 3
 95  2 19 19 18 29.9940000  0  8 28 18 14 31 22 29 19 27
  21899090.158    -9656117.778 5   -185478.661 5
  18936469.838   -28688563.274 7
  21562251.072     1454108.769 5   1201250.336 5
  21903218.518    -6137311.846 5  -4615885.972 4
  22203314.775    -1751791.549 5  -1286828.923 5
  19041445.533   -20805350.682 7 -16151873.988 8
  19889906.541   -22458317.341 7
  22691597.408    -5094354.743 3  -3360329.404 2
 95  2 19 19 18 59.9940000  0  8 28 18 14 31 22 29 19 27
  21887954.658    -9714595.631 5   -231045.753 5
  18925235.713   -28747608.501 7
  21578474.690     1539391.006 5   1267703.915 5
  21883608.338    -6240368.788 5  -4696190.032 5
  22218621.815    -1671363.136 5  -1224157.540 5
  19040604.611   -20809771.308 7 -16155318.650 8
  19878663.299   -22517393.262 7
  22673669.049    -5188543.224 3  -3433722.998 2
 95  2 19 19 19 29.9940000  0  8 28 18 14 31 22 29 19 27
  21876911.729    -9772653.792 5   -276285.843 5
  18914066.057   -28806297.578 7 -21461627.472 9
  21594727.807     1624824.114 5   1334275.058 5
  21864027.182    -6343264.286 5  -4776368.285 4
  22233960.729    -1590761.933 5  -1161351.494 6
  19039838.541   -20813791.030 7 -16158450.920 9
  19867460.690   -22576271.400 7 -17420085.879 7
  22655750.635    -5282654.325 3  -3507056.263 3
 95  2 19 19 19 59.9940000  0  8 28 18 14 31 22 29 19 27
  21865938.939    -9830286.029 5   -321194.036 5
  18902968.588   -28864611.852 7 -21507067.161 9
  21611019.088     1710407.274 5   1400963.116 5
  21844483.190    -6445974.803 5  -4856402.391 5
  22249332.338    -1509981.615 5  -1098405.886 5
  19039152.080   -20817393.265 7 -16161257.880 8
  19856295.307   -22634945.305 7 -17465805.798 7
  22637851.588    -5376692.546 3  -3580332.775 3
 95  2 19 19 20 29.9940000  0  8 28 18 14 31 22 29 19 27
  21855062.307    -9887503.740 5   -365779.199 5
  18891948.307   -28922540.804 7 -21552206.600 9
  21627320.502     1796110.323 5   1467744.589 5
  21824971.111    -6548502.920 5  -4936294.368 5
  22264736.025    -1429024.389 5  -1035322.445 5
  19038546.900   -20820589.568 7 -16163748.527 8
  19845162.275   -22693427.485 7 -17511376.329 7
  22619981.588    -5470665.921 3  -3653558.725 4
 95  2 19 19 20 59.9940000  0  8 28 18 14 31 22 29 19 27
  21844250.205    -9944296.162 5   -410032.984 5
  18880997.275   -28980077.103 7 -21597040.085 9
  21643658.846     1881945.068 5   1534628.675 5
  21805497.479    -6650832.697 5  -5016031.787 5
  22280174.729    -1347895.526 5   -972105.240 5
  19038014.549   -20823371.822 7 -16165916.531 8
  19834077.471   -22751708.059 7 -17556789.757 7
  22602109.088    -5564569.232 3  -3726730.101 2
 95  2 19 19 21 29.9940000  0  8 28 18 14 31 22 29 19 27
  21833524.627   -10000658.736 5   -453951.828 5
  18870124.940   -29037219.784 7 -21641566.838 9
  21660018.197     1967907.779 5   1601612.492 5
  21786062.236    -6752958.287 5  -5095610.096 5
  22295642.604    -1266621.202 5   -908774.675 5
  19037564.658   -20825742.335 7 -16167763.715 8
  19823019.674   -22809798.493 7 -17602055.026 7
  22584260.557    -5658400.478 4  -3799845.319 3
 95  2 19 19 21 59.9940000  0  8 28 18 14 31 22 29 19 27
  21822875.127   -10056594.733 5   -497538.284 5
  18859325.502   -29093972.466 7 -21685789.698 9
  21676397.291     2053990.598 5   1668689.884 5
  21766663.416    -6854902.849 5  -5175047.329 5
  22311129.963    -1185225.678 5   -845349.677 5
  19037191.322   -20827717.854 7 -16169303.099 8
  19811999.814   -22867704.862 7 -17647176.867 7
  22566415.002    -5752173.875 4  -3872915.457 4
 95  2 19 19 22 29.9940000  0  8 28 18 14 31 22 29 19 27
  21812324.127   -10112104.811 5   -540792.812 5
  18848594.229   -29150356.280 7 -21729725.136 9
  21692804.963     2140201.448 5   1735867.054 5
  21747298.713    -6956684.184 5  -5254357.373 5
  22326640.236    -1103723.947 5   -781841.914 5
  19036883.971   -20829318.290 7 -16170550.213 8
  19801013.674   -22925442.436 7 -17692167.180 7
  22548575.291    -5845896.881 4  -3945946.313 4
 95  2 19 19 22 59.9940000  0  8 28 18 14 31 22 29 19 27
  21801833.252   -10167176.932 5   -583706.101 5
  18837936.135   -29206370.066 7 -21773372.234 9
  21709240.572     2226560.371 5   1803159.595 5
  21727957.885    -7058305.925 5  -5333543.039 3
  22342170.768    -1022117.919 5   -718252.892 4
  19036650.900   -20830538.008 7 -16171500.666 8
  19790060.494   -22983007.067 7 -17737022.735 7
  22530749.604    -5939551.865 4  -4018924.189 5
 95  2 19 19 23 29.9940000  0  8 28 18 14 31 22 29 19 27
  21791436.697   -10221816.679 5   -626282.461 5
  18827348.572   -29262010.929 7 -21816728.741 9
  21725702.939     2313043.450 5   1870548.869 5
  21708651.635    -7159773.752 5  -5412608.779 4
  22357715.955     -940421.554 5   -654593.436 5
  19036493.596   -20831380.281 7 -16172157.003 8
  19779134.033   -23040414.052 7 -17781755.443 7
  22512947.830    -6033138.398 4  -4091848.725 4
 95  2 19 19 23 59.9940000  0  8 28 18 14 31 22 29 19 27
  21781125.471   -10276016.998 5   -668516.410 5
  18816829.963   -29317284.518 7 -21859799.063 9
  21742177.408     2399643.021 5   1938028.929 5
  21689372.588    -7261086.234 5  -5491553.477 4
  22373285.080     -858609.175 5   -590843.581 4
  19036404.166   -20831833.631 7
  19768242.541   -23097652.882 7 -17826357.124 7
  22495155.322    -6126653.991 5  -4164717.966 5
 95  2 19 19 24 29.9940000  0  8 28 18 14 31 22 29 19 27
  21770890.627   -10329792.805 5   -710419.594 5
  18806376.674   -29372209.539 7 -21902597.777 9
  21758677.729     2486333.426 5   2005579.765 5
  21670121.189    -7362245.905 5  -5570379.098 5
  22388876.502     -776681.610 5   -527004.051 3
  19036394.424   -20831893.841 7
  19757382.900   -23154739.016 7 -17870839.814 7
  22477368.822    -6220108.690 4  -4237539.764 4
 95  2 19 19 24 59.9940000  0  8 28 18 14 31 22 29 19 27
  21760747.471   -10383132.018 5   -751982.554 6
  18795997.611   -29426766.127 7 -21945109.403 9
  21775185.604     2573111.349 5   2073198.798 5
  21650908.439    -7463219.393 5  -5649059.624 5
  22404490.979     -694621.068 5   -463060.803 5
  19036463.432   -20831528.816 7
  19746548.869   -23211650.659 7 -17915186.549 8
  22459598.424    -6313491.449 5  -4310305.506 4
 95  2 19 19 25 29.9940000  0  8 28 18 14 31 22 29 19 27
  21750674.314   -10436028.047 5   -793200.201 6
  18785686.736   -29480944.682 7 -21987326.453 9
  21791714.119     2659974.085 5   2140883.907 5
  21631732.979    -7563989.224 5  -5727581.473 4
  22420135.033     -612416.134 5   -399005.044 4
  19036613.268   -20830738.209 7 -16171656.783 8
  19735754.127   -23268387.091 7 -17959396.745 7
  22441841.291    -6406821.148 5  -4383029.901 5
 95  2 19 19 25 59.9940000  0  8 28 18 14 31 22 29 19 27
  21740691.549   -10488495.273 5   -834083.685 5
  18775442.463   -29534764.662 7 -22029264.098 9
  21808256.221     2746907.830 5   2208624.336 5
  21612591.244    -7664576.532 5  -5805961.115 4
  22435802.807     -530077.562 5   -334845.247 3
  19036839.275   -20829547.517 7 -16170728.994 8
  19724990.182   -23324956.695 7 -18003476.951 7
  22424085.158    -6500118.241 5  -4455728.885 4
 95  2 19 19 26 29.9940000  0  8 28 18 14 31 22 29 19 27
  21730795.190   -10540514.381 5   -874617.992 5
  18765275.307   -29588190.523 7 -22070894.642 8
  21824824.869     2833940.361 5   2276441.766 5
  21593480.494    -7764946.680 5  -5884171.540 5
  22451494.979     -447607.895 5   -270583.245 5
  19037145.268   -20827949.959 7 -16169484.170 8
  19714260.354   -23381348.260 7 -18047418.424 7
  22406341.010    -6593364.553 5  -4528388.313 5
 95  2 19 19 26 59.9940000  0  8 28 18 14 31 22 29 19 27
  21720983.432   -10592088.653 5   -914805.672 5
  18755182.385   -29641227.014 7 -22112221.777 8
  21841397.244     2921058.936 5   2344326.219 5
  21574428.971    -7865109.559 5  -5962220.436 4
  22467210.033     -365025.034 5   -206232.991 5
  19037521.689   -20825973.849 7 -16167944.368 8
  19703560.682   -23437573.717 7 -18091230.464 7
  22388606.900    -6686561.261 5  -4601009.064 5
 95  2 19 19 27 29.9940000  0  8 28 18 14 31 22 29 19 27
  21711252.533   -10643212.137 5   -954642.093 5
  18745166.619   -29693876.046 7 -22153247.000 9
  21857994.182     3008257.776 5   2412273.209 5
  21555413.252    -7965066.060 5  -6040108.535 5
  22482946.494     -282330.707 5   -141796.000 4
  19037966.385   -20823635.109 7 -16166121.997 8
  19692889.166   -23493637.841 7 -18134916.783 7
  22370883.197    -6779697.027 5  -4673582.333 5
 95  2 19 19 27 59.9940000  0  8 28 18 14 31 22 29 19 27
  21701600.502   -10693891.401 5   -994132.356 5
  18735220.643   -29746154.665 7 -22193983.589 8
  21874598.979     3095516.070 5   2480266.559 5
  21536422.346    -8064815.783 5  -6117835.513 5
  22498705.025     -199533.333 5    -77278.730 5
  19038481.736   -20820922.189 7 -16164008.060 8
  19682251.643   -23549539.553 7 -18178476.559 7
  22353172.135    -6872761.687 5  -4746100.206 4
 95  2 19 19 28 29.9940000  0  8 28 18 14 31 22 29 19 27
  21692050.705   -10744118.885 5  -1033270.615 5
  18725338.440   -29798062.302 7 -22234431.101 8
  21891208.268     3182836.947 5   2548308.643 5
  21517485.033    -8164336.132 5  -6195383.765 5
  22514482.736     -116622.276 5    -12672.786 5
  19039073.166   -20817813.512 7 -16161585.740 8
  19671646.846   -23605279.658 7 -18221910.405 7
  22335478.494    -6965747.689 5  -4818556.766 5
 95  2 19 19 28 59.9940000  0  8 28 18 14 31 22 29 19 27
  21682577.690   -10793893.560 5  -1072055.997 6
  18715531.260   -29849613.325 7 -22274600.734 8
  21907846.697     3270205.708 5   2616388.056 5
  21498596.729    -8263632.118 5  -6272757.181 5
  22530278.510      -33598.286 5     52021.107 4
  19039742.525   -20814298.568 7 -16158846.857 8
  19661070.479   -23660851.918 7 -18265213.458 7
  22317798.010    -7058648.031 5  -4890946.593 5
 95  2 19 19 29 29.9940000  0  8 28 18 14 31 22 29 19 27
  21673193.604   -10843206.070 5  -1110481.267 6
  18705792.065   -29900802.512 7 -22314488.415 8
  21924479.994     3357644.595 5   2684522.097 5
  21479740.658    -8362688.250 5  -6349943.727 5
  22546098.596       49540.322 4    116804.343 5
  19040495.143   -20810345.708 7 -16155766.733 8
  19650528.244   -23716242.109 7 -18308374.648 8
  22300134.533    -7151473.542 5  -4963278.109 4
 95  2 19 19 29 59.9940000  0  8 28 18 14 31 22 29 19 27
  21663899.814   -10892059.488 5  -1148548.776 5
  18696118.721   -29951624.613 7 -22354090.058 8
  21941130.064     3445165.952 5   2752720.408 5
  21460941.650    -8461503.443 5  -6426942.507 4
  22561939.713      132776.040 4    181663.307 5
  19041331.627   -20805950.919 7 -16152342.253 8
  19640022.111   -23771446.946 7 -18351391.403 7
  22282482.783    -7244236.813 5  -5035561.129 4
 95  2 19 19 30 29.9940000  0  8 28 18 14 31 22 29 19 27
  21654689.440   -10940451.862 5  -1186257.064 6
  18686517.791   -30002073.201 7 -22393400.652 8
  21957807.104     3532788.468 5   2820997.541 4
  21442186.057    -8560077.740 5  -6503753.570 5
  22577794.689      216089.142 5    246582.448 4
  19042250.338   -20801129.229 7 -16148585.114 8
  19629552.182   -23826478.952 7 -18394273.477 8
  22264839.182    -7336941.928 5  -5107798.841 5
 95  2 19 19 30 59.9940000  0  8 28 18 14 31 22 29 19 27
  21645558.783   -10988387.389 5  -1223609.370 5
  18676992.533   -30052145.366 7 -22432417.924 8
  21974503.111     3620508.191 5   2889350.436 4
  21423460.971    -8658418.118 5  -6580382.371 5
  22593660.119      299458.063 5    311545.138 5
  19043246.752   -20795887.839 7 -16144500.946 8
  19619110.604   -23881341.515 7 -18437023.522 7
  22247209.479    -7429599.643 5  -5179999.628 5
 95  2 19 19 31 29.9940000  0  8 28 18 14 31 22 29 19 27
  21636529.807   -11035854.012 5  -1260596.282 5
  18667540.854   -30101808.836 7 -22471116.733 8
  21991216.322     3708345.599 5   2957794.994 4
  21404796.682    -8756513.103 5  -6656819.960 5
  22609537.775      382896.185 5    376561.755 5
  19044323.650   -20790225.132 7 -16140088.475 8
  19608707.736   -23936021.994 7 -18479631.677 8
  22229583.869    -7522211.285 5  -5252164.500 5
 95  2 19 19 31 59.9940000  0  8 28 18 14 31 22 29 19 27
  21627583.471   -11082860.899 5  -1297224.951 6
  18658164.150   -30151068.755 7 -22509501.088 8
  22007950.541     3796272.970 5   3026309.690 3
  21386166.674    -8854371.304 5  -6733073.019 5
  22625424.080      466396.390 5    441626.724 5
  19045477.674   -20784171.589 7 -16135371.459 8
  19598337.752   -23990530.618 7 -18522105.940 7
  22211968.088    -7614760.161 5  -5324280.480 5
 95  2 19 19 32 29.9940000  0  8 28 18 14 31 22 29 19 27
  21618737.080   -11129380.252 5  -1333473.734 6
  18648874.205   -30199897.853 7 -22547549.735 8
  22024700.291     3884298.632 5   3094900.959 4
  21367606.135    -8951972.011 5  -6809125.428 5
  22641331.697      550003.447 4    506775.075 5
  19046709.682   -20777694.545 7 -16130324.442 8
  19587997.041   -24044848.354 7 -18564431.445 8
  22194378.041    -7707212.288 5  -5396321.055 4
 95  2 19 19 32 59.9940000  0  8 28 18 14 31 22 29 19 27
  21609963.205   -11175432.159 5  -1369358.294 6
  18639661.658   -30248311.217 7 -22585274.438 8
  22041459.893     3972382.224 5   3163537.378 4
  21349074.861    -9049343.005 5  -6884998.856 5
  22657266.291      633715.185 5    572004.846 2
  19048018.260   -20770814.115 7 -16124963.102 8
  19577695.315   -24098984.696 7 -18606615.609 8
  22176798.994    -7799595.902 5  -5468308.258 4
 95  2 19 19 33 29.9940000  0  8 28 18 14 31 22 29 19 27
  21601301.525   -11221016.851 5  -1404878.744 6
  18630522.565   -30296322.658 7 -22622685.953 8
  22058233.260     4060513.358 5   3232210.827 3
  21330584.291    -9146490.017 5  -6960697.758 5
  22673220.119      717549.990 5    637330.538 5
  19049400.236   -20763545.467 7 -16119299.256 8
  19567428.549   -24152946.335 7 -18648663.638 8
  22159236.611    -7891900.049 5  -5540233.538 4
 95  2 19 19 33 59.9940000  0  8 28 18 14 31 22 29 19 27
  21592710.604   -11266119.965 5  -1440023.961 6
  18621464.002   -30343933.089 7 -22659784.990 8
  22075014.541     4148690.783 5   3300920.372 4
  21312147.658    -9243394.177 5  -7036207.399 5
  22689199.807      801526.184 5    702766.505 4
  19050863.119   -20755856.794 7 -16113308.109 8
  19557194.869   -24206729.604 7 -18690572.677 8
  22141692.541    -7984108.136 5  -5612083.960 4
 95  2 19 19 34 29.9940000  0  8 28 18 14 31 22 29 19 27
  21584218.463   -11310742.611 5  -1474794.812 6
  18612483.729   -30391140.104 7 -22696569.677 8
  22091797.377     4236915.526 5   3369666.775 2
  21293757.018    -9340053.770 5  -7111526.465 5
  22705206.361      885637.941 4    768307.993 2
  19052407.791   -20747745.389 7 -16106987.570 8
  19546988.900   -24260346.759 7 -18732352.279 8
  22124159.494    -8076249.117 5  -5683882.104 5
 95  2 19 19 34 59.9940000  0  8 28 18 14 31 22 29 19 27
  21575825.322   -11354879.591 6  -1509187.220 6
  18603577.525   -30437937.807 7 -22733035.423 8
  22108595.330     4325194.446 5   3438455.390 2
  21275412.002    -9436457.587 5  -7186646.233 5
  22721231.189      969857.031 5    833933.200 4
  19054030.416   -20739224.102 7 -16100347.640 8
  19536819.549   -24313791.806 7 -18773997.766 8
  22106631.111    -8168316.148 5  -5755622.606 5
 95  2 19 19 35 29.9940000  0  8 28 18 14 31 22 29 19 27
  21567521.229   -11398527.728 5  -1543198.743 6
  18594748.447   -30484318.712 7 -22769176.388 8
  22125403.838     4413530.807 4   3507288.761 3
  21257115.471    -9532591.689 5  -7261555.834 5
  22737272.932     1054155.189 5    899619.896 1
  19055731.377   -20730285.262 7 -16093382.343 8
  19526681.908   -24367073.541 7 -18815516.008 8
  22089129.439    -8260310.154 5  -5827306.211 5
 95  2 19 19 35 59.9940000  0  8 28 18 14 31 22 29 19 27
  21559299.588   -11441691.627 5  -1576832.901 6
  18586004.447   -30530273.305 7 -22804985.172 8
  22142226.986     4501917.591 4   3576161.437 3
  21238878.166    -9628448.872 5  -7336249.651 5
  22753322.252     1138493.705 5    965338.136 5
  19057511.885   -20720924.721 7 -16086088.445 8
  19516571.979   -24420200.436 7 -18856913.590 8
  22071631.697    -8352259.356 5  -5898954.896 5
 95  2 19 19 36 29.9940000  0  8 28 18 14 31 22 29 19 27
  21551177.916   -11484373.456 5  -1610091.442 6
  18577342.744   -30575807.409 7 -22840466.296 8
  22159061.596     4590352.608 5   3645071.677 3
  21220685.291    -9724029.776 5  -7410728.183 5
  22769375.338     1222852.638 3
  19059371.447   -20711157.551 7 -16078477.692 8
  19506489.682   -24473172.738 7 -18898190.710 8
  22054144.314    -8444163.142 5  -5970568.209 4
 95  2 19 19 36 59.9940000  0  8 28 18 14 31 22 29 19 27
  21543150.385   -11526557.468 5  -1642962.064 6
  18568759.611   -30620910.740 7 -22875611.753 8
  22175891.283     4678835.042 3   3714018.863 5
  21202550.291    -9819312.920 5  -7484974.707 5
  22785436.439     1307250.813 5        -0.03915
  19061310.768   -20700963.190 7 -16070534.061 8
  19496444.260   -24525955.866 7 -18939320.429 8
  22036668.525    -8536002.096 5  -6042130.985 5
 95  2 19 19 37 29.9940000  0  8 28 18 14 31 22 29 19 27
  21535220.565   -11568254.358 5  -1675453.137 6
  18560255.393   -30665594.825 7 -22910430.533 8
  22192733.330     4767336.167 3   3782980.625 4
  21184477.619    -9914305.944 5  -7558995.161 5
  22801504.986     1391701.503 3
  19063331.697   -20690338.642 7 -16062255.225 8
  19486437.182   -24578554.203 7 -18980306.148 8
  22019197.010    -8627801.567 5  -6113663.010 5
 95  2 19 19 37 59.9940000  0  8 28 18 14 31 22 29 19 27
  21527374.775   -11609463.707 5  -1707564.284 6
  18551829.971   -30709858.924 7 -22944922.050 8
  22209579.963     4855854.374 4   3851955.684 4
  21166450.229   -10009012.867 5  -7632792.678 5
  22817589.127     1476221.982 3        -0.42913
  19065433.088   -20679294.188 7 -16053649.190 8
  19476469.838   -24630949.707 7 -19021133.819 8
  22001738.752    -8719545.882 5  -6185152.046 5
 95  2 19 19 38 29.9940000  0  8 28 18 14 31 22 29 19 27
  21519630.393   -11650168.304 5  -1739282.145 6
  18543494.158   -30753683.205 7 -22979070.850 8
  22226431.854     4944396.950 5   3920949.740 5
  21148489.666   -10103425.420 5  -7706360.821 5
  22833695.236     1560847.014 5
  19067617.807   -20667818.625 7 -16044707.218 8
  19466540.416   -24683109.458 7 -19061777.777 8
  21984298.588    -8811197.612 5  -6256568.948 5
 95  2 19 19 38 59.9940000  0  8 28 18 14 31 22 29 19 27
  21511981.525   -11690376.523 5  -1770613.201 6
  18535235.744   -30797058.003 7 -23012869.403 8
  22243276.377     5032943.054 4   3989946.536 5
  21130575.119   -10197557.257 5  -7779710.248 5
  22849816.994     1645563.486 3
  19069881.986   -20655920.042 7 -16035435.623 8
  19456660.088   -24735051.361 7 -19102251.993 8
  21966872.510    -8902765.696 5  -6327920.689 5
 95  2 19 19 39 29.9940000  0  8 28 18 14 31 22 29 19 27
  21504427.346   -11730082.487 5  -1801552.918 6
  18527070.518   -30839981.025 7 -23046315.922 8
  22260133.072     5121511.049 5   4058960.399 4
  21112718.947   -10291409.483 5  -7852841.769 5
  22865951.002     1730356.037 3        -0.11412
  19072230.174   -20643586.631 7 -16025825.201 8
  19446810.057   -24786797.064 7 -19142573.316 8
  21949470.096    -8994233.492 5  -6399194.276 5
 95  2 19 19 39 59.9940000  0  8 28 18 14 31 22 29 19 27
  21496962.713   -11769293.816 5  -1832107.178 6
  18518986.025   -30882465.126 7 -23079420.421 8
  22276995.690     5210101.172 5   4127991.524 4
  21094909.330   -10384983.158 5  -7925756.228 5
  22882095.947     1815198.190 5     66110.368 5
  19074657.908   -20630825.347 7 -16015881.373 8
  19436994.236   -24838374.382 7 -19182763.432 8
  21932078.018    -9085613.078 5  -6470399.132 5
 95  2 19 19 40 29.9940000  0  8 28 18 14 31 22 29 19 27
  21489598.924   -11808012.582 5  -1862277.619 6
  18510981.596   -30924526.248 7 -23112195.330 8
  22293854.736     5298693.512 5   4197024.357 4
  21077155.900   -10478269.929 5  -7998447.155 5
  22898244.588     1900067.764 3    132242.451 4
  19077169.135   -20617630.539 7 -16005599.733 8
  19427208.143   -24889810.179 7 -19222843.275 8
  21914702.361    -9176926.487 5  -6541552.422 5
 95  2 19 19 40 59.9940000  0  8 28 18 14 31 22 29 19 27
  21482328.260   -11846230.742 5  -1892057.969 6
  18503054.541   -30966171.195 7 -23144645.945 8
  22310709.182     5387302.223 5   4266069.949 4
  21059463.861   -10571249.284 5  -8070898.530 5
  22914397.924     1984949.719 5    198384.072 5
  19079763.541   -20603997.122 7 -15994976.321 8
  19417446.650   -24941111.057 7 -19262817.981 8
  21897339.096    -9268186.942 5  -6612664.457 5
 95  2 19 19 41 29.9940000  0  8 28 18 14 31 22 29 19 27
  21475143.463   -11883941.416 5  -1921442.888 6
  18495211.971   -31007409.735 7 -23176779.883 8
  22327584.307     5475943.188 4   4335140.687 1
  21041834.916   -10663906.113 6  -8143098.580 5
  22930554.135     2069847.948 5    264538.366 2
  19082439.330   -20589931.537 7 -15984016.159 9
  19407708.916   -24992261.068 7 -19302675.134 8
  21879980.369    -9359403.456 5  -6683742.245 5
 95  2 19 19 41 59.9940000  0  8 28 18 14 31 22 29 19 27
  21468061.408   -11921152.127 5  -1950438.210 6
  18487437.416   -31048247.214 7 -23208601.296 8
  22344447.057     5564596.107 4   4404220.716 2
  21024258.627   -10756246.044 6  -8215051.694 5
  22946712.135     2154762.296 4    330705.341 5
  19085193.760   -20575459.563 7 -15972739.322 9
  19398009.369   -25043257.958 7 -19342412.973 8
  21862627.416    -9450589.957 5  -6754796.650 5
 95  2 19 19 42 29.9940000  0  8 28 18 14 31 22 29 19 27
  21461077.166   -11957861.009 5  -1979042.522 6
  18479744.346   -31088679.030 7 -23240106.617 8
  22361328.744     5653258.613 5   4473308.224 1
  21006749.088   -10848271.377 6  -8286759.664 5
  22962878.502     2239706.754 5    396895.636 2
  19088021.861   -20560595.228 7 -15961156.754 8
  19388338.291   -25094079.184 7 -19382013.924 8
  21845282.963    -9541725.894 5  -6825811.657 5
 95  2 19 19 42 59.9940000  0  8 28 18 14 31 22 29 19 27
  21454196.697   -11994056.232 5  -2007246.565 6
  18472131.197   -31128691.737 7 -23271285.357 8
  22378206.908     5741960.519 4   4542426.462 2
  20989298.354   -10939976.027 6  -8358217.765 5
  22979055.025     2324712.219 3    463133.603 5
  19090926.541   -20545329.437 7 -15949261.364 9
  19378701.486   -25144706.831 7 -19421464.044 8
  21827953.338    -9632790.495 5  -6896771.072 5
 95  2 19 19 43 29.9940000  0  8 28 18 14 31 22 29 19 27
  21447398.541   -12029749.189 5  -2035059.211 6
  18464595.291   -31168285.057 7 -23302137.309 8
  22395082.283     5830674.314 3   4611553.931 2
  20971904.635   -11031384.439 6  -8429445.017 5
  22995241.650     2409779.994 5    529419.984 4
  19093908.096   -20529666.530 7 -15937056.530 9
  19369102.549   -25195154.124 7 -19460773.621 8
  21810639.510    -9723775.274 5  -6967668.291 5
 95  2 19 19 43 59.9940000  0  8 28 18 14 31 22 29 19 27
  21440703.971   -12064933.543 5  -2062475.575 6
  18457142.322   -31207441.445 7 -23332648.787 8
  22411969.361     5919392.892 3   4680685.121 2
  20954565.307   -11122496.503 6
  23011445.971     2494927.888 4    595768.934 5
  19096968.697   -20513584.509 7 -15924525.122 9
  19359539.971   -25245419.126 7 -19499941.154 8
  21793346.025    -9814662.687 5
 95  2 19 19 44 29.9940000  0  8 28 18 14 31 22 29 19 27
  21434107.291   -12099603.337 5  -2089490.973 6
  18449780.768   -31246147.952 7 -23362809.706 8
  22428855.807     6008123.338 4   4749825.562 3
  20937285.416   -11213295.477 6
  23027663.580     2580148.424 3    662174.370 5
  19100109.861   -20497075.597 7 -15911661.061 9
  19350005.377   -25295503.444 7 -19538967.897 8
  21776069.424    -9905452.415 5
 95  2 19 19 44 59.9940000  0  8 28 18 14 31 22 29 19 27
  21427609.971   -12133760.464 5  -2116106.875 6
  18442498.010   -31284395.743 7 -23392613.181 8
  22445740.260     6096858.585 3   4818969.732 2
  20920066.979   -11303786.401 6  -8641706.070 5
  23043888.119     2665415.771 3
  19103334.322   -20480132.470 7 -15898458.652 9
  19340507.330   -25345432.840 7 -19577873.921 8
  21758806.494    -9996167.270 5  -7179921.750 5
 95  2 19 19 45 29.9940000  0  8 28 18 14 31 22 29 19 27
  21421207.236   -12167403.401 5  -2142322.136 6
  18435313.307   -31322170.679 7 -23422048.204 8
  22462622.924     6185579.448 3   4888102.690 4
  20902911.197   -11393967.846 6  -8711977.268 5
  23060117.135     2750714.456 3
  19106639.111   -20462760.966 7 -15884922.445 9
  19331033.814   -25395206.384 7 -19616658.511 8
  21741555.713   -10086810.793 5  -7250553.050 5
 95  2 19 19 45 59.9940000  0  8 28 18 14 31 22 29 19 27
  21414902.604   -12200532.097 5  -2168136.660 6
  18428215.268   -31359471.846 7 -23451114.051 8
  22479500.541     6274300.863 2   4957236.113 3
  20885811.830   -11483808.410 6  -8781982.823 5
  23076358.299     2836043.640 3        -0.25611
  19110023.752   -20444974.531 7 -15871062.927 9
  19321591.096   -25444826.160 7 -19655323.269 8
  21724318.252   -10177395.811 5  -7321138.751 5
 95  2 19 19 46 29.9940000  0  8 28 18 14 31 22 29 19 27
  21408696.713   -12233145.827 5  -2193549.922 6
  18421205.025   -31396298.111 7 -23479809.846 8
  22496383.268     6363014.667 3   5026363.545 2
  20868780.971   -11573288.489 6  -8851707.505 5
  23092598.197     2921388.843 2
  19113485.447   -20426782.802 7 -15856887.571 9
  19312181.174   -25494291.089 7 -19693867.369 8
  21707090.650   -10267932.563 5  -7391686.841 5
 95  2 19 19 46 59.9940000  0  8 28 18 14 31 22 29 19 27
  21402588.635   -12265237.694 5  -2218556.556 6
  18414289.596   -31432644.753 7 -23508131.913 8
  22513265.072     6451707.709 4   5095474.840 3
  20851827.877   -11662402.850 6  -8921147.198 5
  23108846.697     3006776.675 3        -0.29013
  19117027.205   -20408173.662 7 -15842386.974 9
  19302795.697   -25543589.073 7 -19732281.379 8
  21689871.354   -10358416.982 5  -7462194.157 5
 95  2 19 19 47 29.9940000  0  7 28 18 14 31 29 19 27
  21396576.393   -12296817.002 5  -2243163.767 6
  18407459.705   -31468533.708 7 -23536097.336 8
  22530136.971     6540364.769 4   5164558.076 3
  20834933.432   -11751142.346 6  -8990294.783 6
  19120646.424   -20389151.860 7 -15827564.821 9
  19293451.400   -25592717.304 7 -19770563.113 8
  21672663.322   -10448842.163 5  -7532655.302 5
 95  2 19 19 47 59.9940000  0  7 28 18 14 31 29 19 27
  21390665.330   -12327882.350 5  -2267370.501 6
  18400718.377   -31503973.354 7 -23563712.652 8
  22546999.947     6628986.728 4   5233613.941 2
  20818125.815   -11839498.427 6  -9059143.604 6
  19124347.025   -20369706.617 7 -15812412.711 9
  19284130.994   -25641678.463 7 -19808714.671 8
  21655468.221   -10539206.114 5  -7603068.758 5
 95  2 19 19 48 29.9940000  0  7 28 18 14 31 29 19 27
  21384849.010   -12358431.064 5  -2291174.663 6
  18394059.408   -31538965.523 7 -23590979.284 8
  22563856.346     6717560.964 5   5302632.629 2
  20801385.471   -11927490.915 6  -9127709.121 6
  19128132.072   -20349817.853 7 -15796915.010 9
  19274846.236   -25690471.139 7 -19846734.939 8
  21638284.799   -10629510.858 5  -7673436.063 5
 95  2 19 19 48 59.9940000  0  7 28 18 14 31 29 19 27
  21379143.604   -12388454.230 5  -2314569.320 6
  18387483.010   -31573515.658 7 -23617901.470 8
  22580706.205     6806117.740 3   5371637.783 2
  20784703.135   -12015127.399 6  -9195997.221 6
  19132002.049   -20329476.121 7 -15781064.341 8
  19265594.596   -25739095.936 7 -19884624.395 8
  21621113.080   -10719737.363 5  -7743742.407 5
 95  2 19 19 49 29.9940000  0  7 28 18 14 31 29 19 27
  21373523.932   -12417957.852 5  -2337559.143 6
  18380988.955   -31607638.158 7 -23644490.437 8
  22597550.658     6894660.850 3   5440632.215 4
  20768089.510   -12102421.109 6  -9264018.226 6
  19135958.064   -20308687.923 7 -15764865.771 9
  19256372.815   -25787561.403 7 -19922389.696 8
  21603959.174   -10809894.742 5  -7813994.889 5
 95  2 19 19 49 59.9940000  0  7 28 18 14 31 29 19 27
  21368011.150   -12446934.885 5  -2360138.633 6
  18374581.408   -31641324.189 7 -23670739.301 8
  22614405.018     6983197.108 3   5509621.270 4
  20751546.346   -12189378.462 6  -9331777.140 6
  19139999.713   -20287452.026 7 -15748318.352 9
  19247180.916   -25835850.521 7 -19960017.582 8
  21586814.924   -10899986.381 5  -7884196.136 5
 95  2 19 19 50 29.9940000  0  7 28 18 14 31 29 19 27
  21362591.440   -12475390.088 5  -2382311.517 6
  18368251.393   -31674578.635 7 -23696651.860 8
  22631250.877     7071721.608 2   5578601.178 1
  20735061.299   -12276008.952 6  -9399281.355 6
  19144122.791   -20265785.137 7 -15731435.096 8
  19238026.275   -25883959.625 7 -19997505.203 8
  21569681.346   -10990019.694 5  -7954351.945 5
 95  2 19 19 50 59.9940000  0  7 28 18 14 31 29 19 27
  21357277.486   -12503321.559 5  -2404076.305 6
  18362003.791   -31707400.115 7 -23722227.047 8
  22648087.127     7160220.168 2
  20718638.658   -12362302.992 6  -9466523.384 6
  19148326.377   -20243696.166 7 -15714222.947 8
  19228911.393   -25931874.716 7 -20034841.637 8
  21552562.361   -11079981.689 5  -8024452.176 5
 95  2 19 19 51 29.9940000  0  7 28 18 14 31 29 19 27
  21352071.025   -12530718.823 5  -2425424.813 6
  18355846.916   -31739757.192 7 -23747440.356 8
  22664923.971          -0.14812
  20702282.510   -12448239.087 6  -9533486.508 6
  19152612.197   -20221174.617 7 -15696673.724 8
  19219835.494   -25979575.448 7 -20072011.045 8
  21535456.916   -11169860.343 5  -8094487.479 5
 95  2 19 19 51 59.9940000  0  7 28 18 14 31 29 19 27
  21346958.471   -12557588.747 5  -2446362.414 6
  18349779.549   -31771640.760 7 -23772284.693 8
  22681745.635       88400.794 2        -0.34111
  20686000.908   -12533803.942 6  -9600160.361 6
  19156976.557   -20198237.934 7 -15678801.025 8
  19210793.924   -26027076.865 7 -20109025.144 8
  21518373.760   -11259655.128 5  -8164457.434 5
 95  2 19 19 52 29.9940000  0  6 28 18 31 29 19 27
  21341939.377   -12583936.484 5  -2466893.113 6
  18343808.143   -31803044.378 7 -23796755.059 8
  20669796.830   -12618981.836 6  -9666532.680 6
  19161418.314   -20174900.962 7 -15660616.405 8
  19201783.174   -26074412.190 7 -20145909.825 8
  21501296.135   -11349368.073 5  -8234363.613 5
 95  2 19 19 52 59.9940000  0  6 28 18 31 29 19 27
  21337028.455   -12609765.184 6  -2487019.373 6
  18337920.291   -31833960.124 7 -23820845.261 8
  20653661.111   -12703760.770 6  -9732594.125 6
  19165933.596   -20151168.115 7 -15642123.317 9
  19192809.283   -26121593.503 7 -20182674.489 8
  21484243.627   -11439005.154 5  -8304210.668 5
 95  2 19 19 53 29.9940000  0  7 28 18 14 31 29 19 27
  21332215.135   -12635060.204 5  -2506729.781 6
  18332135.479   -31864365.837 7 -23844538.031 8
  22732137.564       88224.332 2
  20637610.572   -12788128.458 6  -9798335.122 6
  19170526.729   -20127030.588 7 -15623314.893 8
  19183859.518   -26168624.722 7 -20219322.196 8
  21467198.314   -11528569.599 5  -8374001.127 5
 95  2 19 19 53 59.9940000  0  8 28 18 14 31  2 29 19 27
  21327496.658   -12659829.346 5  -2526030.421 6
  18326441.416   -31894287.241 7 -23867853.418 8
  22748923.971      176409.082 3
  20621624.713   -12872103.761 6  -9863770.364 6
  22966514.291          -0.51012
  19175194.588   -20102503.932 7 -15604203.249 8
  19174933.307   -26215522.956 7 -20255866.274 8
  21450163.447   -11618084.945 5  -8443753.329 5
 95  2 19 19 54 29.9930000  0  8 28 18 14 31  2 29 19 27
  21322887.919   -12684070.016 5  -2544919.257 6
  18320838.614   -31923731.338 7 -23890796.874 8
  22765693.817      264534.947 4
  20605713.653   -12955698.862 6  -9928909.341 6
  22944609.153     -115101.163 2        -0.35212
  19179937.224   -20077581.013 7 -15584782.827 8
  19166038.622   -26262272.659 7 -20292294.618 8
  21433135.927   -11707558.986 5  -8513473.342 5
 95  2 19 19 54 59.9930000  0  8 28 18 14 31  2 29 19 27
  21318376.083   -12707776.531 5  -2563391.858 6
  18315327.263   -31952704.483 7 -23913373.361 8
  22782454.974      352614.898 5
  20589875.060   -13038934.551 6  -9993768.276 6
  22922726.286     -230095.420 2    -89606.229 3
  19184758.474   -20052243.425 7 -15565039.287 8
  19157171.021   -26308853.627 7 -20328591.468 8
  21416120.138   -11796992.524 5  -8583161.806 5
 95  2 19 19 55 29.9930000  0  8 28 18 14 31  2 29 19 27
  21313960.677   -12730950.676 5  -2581449.635 6
  18309896.278   -31981229.720 7 -23935600.828 8
  22799202.950      440637.250 4
  20574104.747   -13121825.336 6 -10058358.446 6
  22900869.302     -344953.494 2   -179105.966 3
  19189659.481   -20026489.448 7 -15544971.283 8
  19148340.888   -26355269.643 7 -20364759.794 8
  21399111.278   -11886377.791 5  -8652812.645 5
 95  2 19 19 55 59.9930000  0  8 28 18 14 31  2 29 19 27
  21309658.661   -12753585.669 5  -2599087.306 6
  18304552.091   -32009310.880 7 -23957482.259 8
  22815937.724      528589.178 4
  20558404.466   -13204346.574 6 -10122660.666 6
  22879046.372     -459644.990 2   -268475.925 3
  19194642.599   -20000300.290 7 -15524564.192 8
  19139544.185   -26401498.366 7 -20400782.173 8
  21382112.177   -11975692.895 5  -8722408.814 5
 95  2 19 19 56 29.9930000  0  8 28 18 14 31  2 29 19 27
  21305448.388   -12775692.686 5  -2616313.580 6
  18299293.263   -32036948.549 7 -23979018.111 8
  22832656.028      616459.235 3
  20542769.864   -13286494.254 6 -10186671.796 6
  22857254.763     -574168.027 3   -357714.571 4
  19199708.950   -19973671.746 7 -15503814.700 8
  19130783.247   -26447540.660 7 -20436659.281 8
  21365132.356   -12064934.757 5  -8791947.922 5
 95  2 19 19 56 59.9930000  0  8 28 18 14 31  2 29 19 27
  21301344.396   -12797256.363 5  -2633116.446 6
  18294121.950   -32064121.097 7 -24000191.533 8
  22849368.481      704262.268 3
  20527212.247   -13368237.115 6 -10250367.483 6
  22835497.153     -688506.556 3   -446809.471 3
  19204863.200   -19946594.040 7 -15482715.223 8
  19122058.302   -26493389.755 7 -20472385.843 8
  21348172.606   -12154075.185 5  -8861407.992 5
 95  2 19 19 57 29.9930000  0  7 28 18 31  2 29 19 27
  21297348.099   -12818286.832 6  -2649503.823 6
  18289042.075   -32090831.248 7 -24021004.648 8
  20511734.481   -13449569.264 6 -10313743.135 6
  22813766.646     -802692.482 3   -535785.446 3
  19210097.185   -19919085.424 7 -15461279.969 8
  19113362.833   -26539068.190 7 -20507979.438 8
  21331224.731   -12243136.181 5  -8930806.160 5
 95  2 19 19 57 59.9930000  0  7 28 18 31  2 29 19 27
  21293442.677   -12838784.300 5  -2665475.877 6
  18284047.747   -32117063.847 7 -24041445.642 7
  20496338.052   -13530482.982 6 -10376792.729 6
  22792064.833     -916744.956 3   -624657.414 4
  19215413.755   -19891150.040 7 -15439512.170 8
  19104706.028   -26584575.934 7 -20543440.007 8
  21314288.263   -12332119.985 5  -9000144.188 5
 95  2 19 19 58 29.9930000  0  7 28 18 31  2 29 19 27
  21289645.114   -12858746.222 5  -2681030.637 6
  18279151.489   -32142810.915 7 -24061508.300 8
  20481022.427   -13610985.634 6 -10439522.013 6
  22770386.521    -1030665.949 3   -713426.933 3
  19220808.880   -19862797.551 7 -15417419.354 8
  19096071.935   -26629929.779 7 -20578780.664 8
  21297367.802   -12421033.236 5  -9069427.239 5
 95  2 19 19 58 59.9930000  0  7 28 18 31  2 29 19 27
  21285947.935   -12878169.520 5  -2696165.670 6
  18274342.622   -32168081.375 7 -24081199.580 8
  20465781.989   -13691078.381 6 -10501931.893 6
  22748726.942    -1144461.041 3   -802098.346 3
  19226280.849   -19834048.362 7 -15395017.424 8
  19087467.263   -26675144.586 7 -20614012.984 8
  21280459.911   -12509890.410 5  -9138666.585 5
 95  2 19 19 59 29.9930000  0  7 28 18 31  2 29 19 27
  21282360.013   -12897053.732 5  -2710880.627 6
  18269621.583   -32192889.509 7 -24100530.609 7
  20450613.630   -13770771.100 6 -10564030.050 6
  22727099.442    -1258125.327 3   -890667.820 3
  19231828.302   -19804895.959 7 -15372301.305 8
  19078893.599   -26720217.199 7 -20649134.497 8
  21263559.364   -12598700.220 5  -9207869.033 5
 95  2 19 19 59 59.9930000  0  7 28 18 31  2 29 19 27
  21278870.013   -12915398.137 5  -2725174.958 6
  18264985.700   -32217230.817 7 -24119497.875 7
  20435524.450   -13850057.972 6 -10625811.971 6
  22705497.239    -1371633.370 4   -979115.549 3
  19237453.614   -19775334.153 7 -15349266.163 8
  19070346.161   -26765133.721 7 -20684134.383 8
  21246670.872   -12687451.415 5  -9277025.800 5
 95  2 19 20  0 29.9930000  0  7 28 18 31  2 29 19 27
  21275481.411   -12933206.602 6  -2739051.681 6
  18260447.200   -32241099.180 7 -24138096.615 7
  20420519.442   -13928931.741 6 -10687271.982 6
  22683928.731    -1484979.472 4  -1067437.070 3
  19243155.646   -19745370.744 7 -15325918.087 8
  19061827.036   -26809892.807 7 -20719011.594 8
  21229789.442   -12776157.281 5  -9346147.244 6
 95  2 19 20  0 59.9930000  0  7 28 18 31  2 29 19 27
  21272193.325   -12950479.783 5  -2752511.296 6
  18255996.966   -32264481.055 7 -24156316.274 7
  20405589.833   -14007383.977 6 -10748403.535 6
  22662395.419    -1598162.531 4  -1155631.548 3
  19248934.349   -19714999.519 7 -15302252.234 8
  19053341.021   -26854482.997 7 -20753757.199 8
  21212919.239   -12864811.978 5  -9415228.815 5
 95  2 19 20  1 29.9930000  0  7 28 18 31  2 29 19 27
  21269010.677   -12967222.798 6  -2765557.795 6
  18251642.653   -32287364.581 7 -24174147.607 7
  20390738.075   -14085411.203 6 -10809203.912 6
  22640888.091    -1711181.292 3  -1243697.980 2
  19254794.997   -19684200.729 7 -15278253.219 8
  19044889.528   -26898896.125 7 -20788364.834 8
  21196060.153   -12953402.731 5  -9484260.566 6
 95  2 19 20  1 59.9930000  0  7 28 18 31  2 29 19 27
  21265924.771   -12983418.316 5  -2778177.660 6
  18247389.708   -32309713.265 7 -24191562.179 8
  20375975.044   -14162985.335 6 -10869651.232 6
  22619416.130    -1824019.060 4  -1331623.402 2
  19260738.583   -19652959.318 7 -15253909.302 8
  19036476.044   -26943119.345 7 -20822824.490 8
  21179221.021   -13041909.010 5  -9553226.482 6
 95  2 19 20  2 29.9930000  0  7 28 18 31  2 29 19 27
  21262943.364   -12999085.922 5  -2790386.163 6
  18243231.107   -32331558.311 7 -24208584.312 7
  20361300.731   -14240130.840 6 -10929764.558 6
  22597967.903    -1936705.616 3  -1419430.962 3
  19266765.106   -19621300.089 7 -15229239.810 8
  19028093.685   -26987177.164 7 -20857155.262 8
  21162391.521   -13130344.024 5  -9622136.863 6
 95  2 19 20  2 59.9930000  0  7 28 18 31  2 29 19 27
  21260060.028   -13014229.806 5  -2802186.572 6
  18239165.528   -32352933.240 7 -24225240.118 8
  20346699.833   -14316855.112 6 -10989549.664 6
  22576553.013    -2049249.438 3  -1507127.348 2
  19272870.833   -19589219.655 7 -15204242.114 8
  19019735.622   -27031081.750 7 -20891366.625 8
  21145576.841   -13218707.966 5  -9690991.867 6
 95  2 19 20  3 29.9930000  0  7 28 18 31  2 29 19 27
  21257278.638   -13028842.055 5  -2813572.729 6
  18235187.435   -32373842.595 7 -24241533.129 7
  20332178.310   -14393153.496 6 -11049002.904 6
  22555161.450    -2161642.043 3  -1594705.873 3
  19279054.239   -19556721.167 7 -15178918.653 8
  19011409.810   -27074831.800 7 -20925457.578 8
  21128773.544   -13307010.765 5  -9759799.210 6
 95  2 19 20  3 59.9930000  0  7 28 18 31  2 29 19 27
  21254599.403   -13042910.845 5  -2824535.398 6
  18231298.497   -32394285.388 7 -24257462.601 7
  20317740.356   -14469008.135 6 -11108110.371 6
  22533803.958    -2273884.119 3  -1682167.109 2
  19285316.005   -19523815.050 7 -15153277.560 8
  19003113.763   -27118429.870 7 -20959430.101 8
  21111983.419   -13395249.873 5  -9828556.942 6
 95  2 19 20  4 29.9930000  0  7 28 18 31  2 29 19 27
  21252024.263   -13056445.541 6  -2835081.906 6
  18227491.028   -32414283.334 7 -24273045.433 7
  20303392.255   -14544420.383 6 -11166873.131 6
  22512473.606    -2385990.973 3  -1769522.983 1
  19291654.442   -19490509.487 7 -15127325.212 8
  18994846.208   -27161882.885 7 -20993289.593 8
  21095197.599   -13483439.262 5  -9897275.924 6
 95  2 19 20  4 59.9930000  0  7 28 18 31  2 29 19 27
  21249553.505   -13069439.813 5  -2845207.307 6
  18223772.372   -32433815.877 7 -24288265.613 7
  20289128.997   -14619375.382 6 -11225279.582 6
  22491164.091    -2497963.632 3  -1856774.320 1
  19298069.646   -19456792.743 7 -15101052.463 8
  18986606.122   -27205191.039 7 -21027036.205 8
  21078426.341   -13571588.085 5  -9965963.293 6
 95  2 19 20  5 29.9930000  0  7 28 18 31  2 29 19 27
  21247182.622   -13081900.152 5  -2854916.657 6
  18220148.747   -32452859.637 7 -24303104.924 8
  20274952.935   -14693881.373 6 -11283336.159 6
  22469879.864    -2609815.101 3  -1943931.201 1
  19304561.052   -19422676.001 7 -15074468.033 8
  18978392.716   -27248356.048 7 -21060671.276 8
  21061659.810   -13659692.888 5 -10034616.364 5
 95  2 19 20  5 59.9930000  0  7 28 18 31  2 29 19 27
  21244915.146   -13093819.627 6  -2864204.551 6
  18216620.458   -32471406.055 7 -24317556.693 7
  20260863.083   -14767926.630 6 -11341033.718 6
  22448621.888    -2721531.182 3  -2030982.589 2
  19311132.606   -19388148.485 7 -15047563.511 8
  18970206.333   -27291365.825 7 -21094185.390 8
  21044905.427   -13747732.488 5 -10103218.616 6
 95  2 19 20  6 29.9930000  0  7 28 18 31  2 29 19 27
  21242746.153   -13105197.310 5  -2873070.283 6
  18213186.528   -32489447.652 7 -24331615.095 7
  20246857.825   -14841525.969 6 -11398383.810 6
  22427392.810    -2833078.019 3  -2117902.099 1
  19317782.872   -19353206.613 7 -15020336.119 8
  18962056.060   -27334201.427 7 -21127563.779 8
  21028165.083   -13835711.427 5 -10171773.607 6
 95  2 19 20  6 59.9930000  0  7 28 18 31  2 29 19 27
  21240684.653   -13116037.938 5  -2881517.543 6
  18209848.919   -32506981.900 7 -24345278.164 7
  20232934.435   -14914697.403 6 -11455400.475 6
  22406204.114    -2944443.615 3  -2204680.397 2
  19324505.161   -19317869.021 7 -14992800.368 8
  18953937.255   -27376866.870 7 -21160809.574 8
  21011432.489   -13923633.314 5 -10240284.142 6
 95  2 19 20  7 29.9930000  0  7 28 18 31  2 29 19 27
  21238725.247   -13126338.418 5  -2889543.885 6
  18206611.896   -32524007.072 7 -24358544.549 7
  20219087.263   -14987439.929 6 -11512082.914 6
  22385051.247    -3055603.157 3  -2291298.113 1
  19331303.989   -19282149.357 7 -14964966.905 8
  18945852.700   -27419354.681 7 -21193916.968 8
  20994716.271   -14011485.769 5 -10308740.574 6
 95  2 19 20  7 59.9930000  0  7 28 18 31  2 29 19 27
  21236871.716   -13136092.695 5  -2897144.627 6
  18203465.919   -32540536.226 7 -24371424.428 7
  20205333.083   -15059746.525 6 -11568425.680 6
  22363941.146    -3166524.678 3  -2377730.372 3
  19338174.356   -19246044.397 7 -14936833.209 8
  18937798.786   -27461658.823 7 -21226881.239 8
  20978009.114   -14099281.302 5 -10377152.647 6
 95  2 19 20  8 29.9930000  0  7 28 18 31  2 29 19 27
  21235118.177   -13145306.671 5  -2904324.345 6
  18200414.177   -32556575.332 7 -24383922.449 7
  20191657.239   -15131614.562 6 -11624426.710 6
  22342877.778    -3277224.431 3  -2463989.818 4
  19345117.169   -19209554.617 6 -14908399.650 8
  18929784.544   -27503781.046 7 -21259703.761 8
  20961312.880   -14187016.878 5 -10445517.993 6
 95  2 19 20  8 59.9930000  0  7 28 18 31  2 29 19 27
  21233465.153   -13153969.999 5  -2911075.008 6
  18197456.192   -32572120.490 7 -24396035.575 7
  20178066.481   -15203014.028 6 -11680062.616 6
  22321848.763    -3387720.368 4  -2550090.462 3
  19352140.052   -19172659.444 7 -14879650.199 8
  18921801.739   -27545728.135 7 -21292389.802 8
  20944631.044   -14274669.998 5 -10513819.107 6
 95  2 19 20  9 29.9930000  0  7 28 18 31  2 29 19 27
  21231926.372   -13162082.452 5  -2917396.418 6
  18194587.513   -32587186.908 7 -24407775.658 7
  20164565.911   -15273931.196 6 -11735322.705 6
  22300860.630    -3498026.200 4  -2636042.974 4
  19359240.708   -19135347.033 7 -14850575.636 8
  18913857.856   -27587491.275 7 -21324932.513 8
  20927968.130   -14362246.294 5 -10582060.331 6
 95  2 19 20  9 59.9930000  0  7 28 18 31  2 29 19 27
  21230480.638   -13169657.180 5  -2923298.812 6
  18191808.817   -32601796.292 7 -24419159.608 7
  20151167.849   -15344372.549 6 -11790212.031 6
  22279896.755    -3608179.060 4  -2721876.290 4
  19366420.599   -19097614.505 7 -14821173.704 8
  18905939.888   -27629083.646 7 -21357342.159 8
  20911315.724   -14449754.545 5 -10650248.555 6
 95  2 19 20 10 29.9930000  0  7 28 18 31  2 29 19 27
  21229139.692   -13176696.521 5  -2928784.036 6
  18189116.606   -32615936.297 7 -24430177.812 7
  20137854.185   -15414326.314 6 -11844721.424 6
  22258960.622    -3718209.494 5  -2807614.198 4
  19373679.825   -19059458.127 7 -14791441.502 8
  18898058.747   -27670509.908 7 -21389622.371 8
  20894679.060   -14537180.973 5 -10718373.002 6
 95  2 19 20 10 59.9930000  0  7 28 18 31  2 29 19 27
  21227910.497   -13183198.031 6  -2933850.171 6
  18186515.919   -32629598.452 7 -24440823.665 7
  20124636.583   -15483800.137 6 -11898856.835 6
  22238043.161    -3828116.880 5  -2893256.236 5
  19381020.989   -19020884.746 7 -14761384.365 8
  18890207.450   -27711771.226 7 -21421774.051 8
  20878056.974   -14624529.639 5 -10786436.874 6
 95  2 19 20 11 29.9930000  0  7 28 18 31  2 29 19 27
  21226770.505   -13189155.025 5  -2938491.999 6
  18184011.872   -32642757.755 7 -24451077.680 7
  20111510.606   -15552792.282 6 -11952616.906 6
  22217156.606    -3937886.348 5  -2978790.799 4
  19388440.763   -18981897.042 7 -14731004.380 8
  18882387.169   -27752860.239 7 -21453791.471 8
  20861449.989   -14711800.041 5 -10854439.747 6
 95  2 19 20 11 59.9930000  0  7 28 18 31  2 29 19 27
  21225739.989   -13194565.879 5  -2942708.261 6
  18181611.950   -32655389.272 7 -24460920.441 7
  20098469.669   -15621305.204 6 -12006003.558 6
  22196296.497    -4047504.890 4  -3064207.770 4
  19395936.294   -18942496.134 6 -14700302.414 7
  18874596.419   -27793788.220 7 -21485683.405 8
  20844861.591   -14798977.495 5 -10922370.206 6
 95  2 19 20 12 29.9930000  0  7 28 18 31  2 29 19 27
  21224813.130   -13199431.786 5  -2946499.904 6
  18179306.786   -32667487.671 7 -24470347.775 7
  20085521.927   -15689342.920 6 -12059019.923 6
  22175466.786    -4156954.736 4  -3149493.286 5
  19403512.583   -18902693.471 6 -14669287.391 8
  18866841.138   -27834561.889 7 -21517455.097 8
  20828287.021   -14886073.632 5 -10990237.295 6
 95  2 19 20 12 59.9930000  0  7 28 18 31  2 29 19 27
  21223996.505   -13203757.973 5  -2949870.987 6
  18177104.091   -32679060.445 7 -24479365.532 7
  20072668.653   -15756913.575 6 -12111672.336 6
  22154676.903    -4266217.259 4  -3234632.854 4
  19411161.388   -18862500.479 6 -14637968.218 8
  18859111.739   -27875185.589 7 -21549109.923 8
  20811723.575   -14973110.535 5 -11058058.234 6
 95  2 19 20 13 29.9930000  0  7 28 18 31  2 29 19 27
  21223275.169   -13207530.224 5  -2952810.423 6
  18175004.700   -32690097.266 7 -24487965.666 7
  20059896.528   -15823991.611 6 -12163940.885 6
  22133928.060    -4375261.229 4  -3319602.116 4
  19418887.427   -18821889.725 6 -14606323.523 8
  18851412.794   -27915644.552 7 -21580636.387 8
  20795174.185   -15060076.585 6 -11125823.957 6
 95  2 19 20 13 59.9930000  0  7 28 18 31  2 29 19 27
  21222661.138   -13210762.782 5  -2955329.335 6
  18173002.356   -32700627.914 7 -24496171.379 7
  20047227.528   -15890584.709 6 -12215831.550 6
  22113216.630    -4484097.041 4  -3404409.163 4
  19426692.630   -18780869.576 6 -14574359.814 8
  18843742.599   -27955936.763 7 -21612032.902 8
  20778635.997   -15146986.685 6 -11193546.089 6
 95  2 19 20 14 29.9930000  0  7 28 18 31  2 29 19 27
  21222151.177   -13213454.491 5  -2957426.796 6
  18171090.239   -32710660.544 7 -24503989.031 7
  20034649.880   -15956678.345 6 -12267333.026 6
  22092544.442    -4592728.195 4  -3489056.764 4
  19434578.528   -18739441.396 6 -14542078.160 7
  18836111.567   -27996052.571 7 -21643291.979 8
  20762108.653   -15233848.046 6 -11261230.236 6
 95  2 19 20 14 59.9930000  0  7 28 18 31  2 29 19 27
  21221741.411   -13215592.327 5  -2959092.664 6
  18169279.013   -32720186.727 7 -24511412.046 7
  20022172.341   -16022257.371 6 -12318433.492 6
  22071912.583    -4701149.513 4  -3573540.854 3
  19442539.450   -18697591.846 6 -14509468.170 7
  18828513.927   -28035962.755 7 -21674390.817 8
  20745589.333   -15320645.762 6 -11328864.798 6
 95  2 19 20 15 29.9930000  0  7 28 18 31  2 29 19 27
  21221435.231   -13217190.038 5  -2960337.665 6
  18167561.310   -32729222.430 7 -24518452.871 7
  20009784.091   -16087333.015 6 -12369141.720 6
  22051317.997    -4809378.441 4  -3657875.041 4
  19450581.958   -18655335.815 6 -14476541.434 7
  18820954.856   -28075686.650 7 -21705344.483 8
  20729085.271   -15407384.168 6 -11396453.130 6
 95  2 19 20 15 59.9930000  0  7 28 18 31  2 29 19 27
  21221233.771   -13218253.299 5  -2961166.204 6
  18165933.528   -32737769.797 7 -24525113.170 7
  19997498.927   -16151907.942 6 -12419459.773 6
  22030752.708    -4917428.081 3  -3742069.508 4
  19458694.458   -18612710.371 6 -14443326.842 8
  18813428.583   -28115238.739 7 -21736164.282 8
  20712587.513   -15494074.569 6 -11464004.060 6
 95  2 19 20 16 29.9930000  0  7 28 18 31  2 29 19 27
  21221133.888   -13218774.921 5
  18164402.021   -32745816.261 7 -24531383.158 7
  19985306.622   -16215977.565 6 -12469384.094 6
  22010228.138    -5025281.737 4  -3826111.274 4
  19466875.880   -18569717.757 6 -14409826.152 7
  18805932.716   -28154633.988 7 -21766861.869 8
  20696101.005   -15580711.128 6 -11531513.032 6
 95  2 19 20 16 59.9930000  0  7 28 18 31  2 29 19 27
  21221142.575   -13218747.900 5
  18162969.614   -32753348.570 7 -24537252.511 7
  19973207.583   -16279551.490 6 -12518922.149 6
  21989749.075    -5132919.305 4  -3909984.672 3
  19475126.677   -18526352.420 6 -14376035.024 7
  18798464.950   -28193877.930 7 -21797441.561 8
  20679627.942   -15667286.996 6 -11598974.710 6
 95  2 19 20 17 29.9930000  0  7 28 18 31  2 29 19 27
  21221245.513   -13218180.278 5
  18161633.388   -32760373.399 7 -24542726.417 7
  19961202.505   -16342637.504 6 -12568080.016 6
  21969304.083    -5240339.841 4  -3993688.934 3
  19483450.599   -18482618.472 6 -14341956.663 7
  18791018.864   -28232996.429 7 -21827923.496 8
  20663163.661   -15753800.787 6 -11666388.014 6
 95  2 19 20 17 59.9930000  0  7 28 18 31  2 29 19 27
  21221460.927   -13217071.352 5  -2960245.282 6
  18160391.755   -32766893.695 7 -24547807.186 7
  19949289.396   -16405241.467 6 -12616862.260 6
  21948905.466    -5347544.175 4  -4077224.722 4
  19491844.864   -18438513.763 6 -14307589.400 7
  18783603.528   -28271974.187 7 -21858295.770 8
  20646712.692   -15840248.400 6 -11733749.754 6
 95  2 19 20 18 29.9930000  0  7 28 18 31  2 29 19 27
  21221771.677   -13215428.544 5  -2958965.188 6
  18159244.052   -32772920.145 7 -24552503.141 8
  19937465.536   -16467377.065 6 -12665279.556 6
  21928545.325    -5454537.300 4  -4160595.934 3
  19500309.661   -18394016.239 6 -14272916.049 7
  18776215.911   -28310801.371 7 -21888550.713 8
  20630277.130   -15926623.027 6 -11801054.620 6
 95  2 19 20 18 59.9930000  0  7 28 18 31  2 29 19 27
  21222186.622   -13213250.581 5  -2957268.096 6
  18158192.341   -32778450.115 7 -24556812.223 7
  19925732.700   -16529027.814 6 -12713319.050 7
  21908224.841    -5561328.683 5  -4243809.928 4
  19508855.294   -18349111.025 6 -14237925.015 7
  18768858.435   -28349459.478 7 -21918673.906 8
  20613855.536   -16012915.226 6 -11868295.263 6
 95  2 19 20 19 29.9930000  0  7 28 18 31  2 29 19 27
  21222704.489   -13210537.120 5  -2955153.719 5
  18157233.653   -32783485.342 7 -24560735.795 8
  19914099.380   -16590172.094 6 -12760963.901 6
  21887939.114    -5667935.671 5  -4326880.264 5
  19517478.356   -18303791.106 6 -14202610.834 7
  18761536.419   -28387936.471 7 -21948655.975 8
  20597450.685   -16099124.789 6 -11935471.510 6
 95  2 19 20 19 59.9930000  0  7 28 18 31  2 29 19 27
  21223325.872   -13207283.263 5  -2952618.256 5
  18156371.231   -32788014.855 7 -24564265.305 8
  19902562.583   -16650797.413 6 -12808204.372 6
  21867685.364    -5774359.963 5  -4409808.201 4
  19526180.481   -18258053.247 6 -14166970.981 7
  18754251.927   -28426220.121 7 -21978487.391 8
  20581060.192   -16185257.083 6 -12002587.550 6
 95  2 19 20 20 29.9930000  0  7 28 18 31  2 29 19 27
  21224039.450   -13203499.943 5  -2949670.219 6
  18155608.302   -32792032.932 7 -24567396.291 7
  19891126.755   -16710900.761 6 -12855038.125 6
  21847466.997    -5880613.641 5  -4492603.208 4
  19534969.481   -18211903.217 6 -14131009.969 7
  18746996.864   -28464338.567 7 -22008190.079 8
  20564683.013   -16271329.081 6 -12069656.612 6
 95  2 19 20 20 59.9930000  0  7 28 18 31  2 29 19 27
  21224861.872   -13199179.947 5  -2946304.017 6
  18154942.778   -32795533.765 7 -24570124.227 7
  19879791.591   -16770467.683 6 -12901453.881 6
  21827278.310    -5986695.805 5  -4575264.559 4
  19543825.911   -18165344.054 6 -14094730.150 7
  18739771.731   -28502301.119 7 -22037771.291 8
  20548312.896   -16357345.794 6 -12136682.594 6
 95  2 19 20 21 29.9930000  0  7 28 18 31  2 29 19 27
  21225786.099   -13194331.181 5  -2942525.785 6
  18154372.771   -32798531.878 7 -24572460.437 8
  19868555.255   -16829515.142 6 -12947464.873 6
  21807124.247    -6092612.702 5  -4657797.130 5
  19552759.028   -18118401.833 6 -14058151.840 7
  18732576.630   -28540119.698 7 -22067240.319 8
  20531951.833   -16443317.449 6 -12203673.457 6
 95  2 19 20 21 59.9930000  0  7 28 18 31  2 29 19 27
  21226811.067   -13188941.442 5  -2938325.998 6
  18153896.622   -32801024.370 7 -24574402.658 7
  19857417.325   -16888029.785 6 -12993060.683 6
  21787006.036    -6198338.871 5  -4740181.080 5
  19561765.435   -18071078.728 6 -14021276.741 7
  18725410.106   -28577785.183 7 -22096590.050 9
  20515605.247   -16529223.990 6 -12270613.580 6
 95  2 19 20 22 29.9930000  0  7 28 18 31  2 29 19 27
  21227941.169   -13183018.658 5  -2933710.863 5
  18153515.833   -32803016.068 7 -24575954.651 7
  19846384.450   -16946011.321 6 -13038241.087 7
  21766920.036    -6303877.428 5  -4822418.838 5
  19570840.513   -18023379.585 6 -13984108.611 7
  18718271.638   -28615302.743 7 -22125824.519 8
  20499270.841   -16615061.922 6 -12337500.246 6
 95  2 19 20 22 59.9930000  0  7 28 18 31  2 29 19 27
  21229170.911   -13176566.233 5  -2928683.027 5
  18153232.583   -32804525.569 7 -24577130.897 8
  19835454.981   -17003464.744 6 -13083009.977 7
  21746874.653    -6409230.241 5  -4904511.858 5
  19579984.388   -17975320.436 6 -13946659.974 7
  18711159.325   -28652658.145 7 -22154932.625 8
  20482950.255   -16700828.689 6 -12404331.449 6
 95  2 19 20 23 29.9930000  0  7 28 18 31  2 29 19 27
  21230496.958   -13169582.350 5  -2923241.079 6
  18153036.825   -32805535.151 7 -24577917.606 7
  19824618.802   -17060384.173 6 -13127362.763 7
  21726866.708    -6514372.092 5  -4986440.510 5
  19589195.403   -17926902.205 6 -13908931.534 7
  18704089.552   -28689831.980 7 -22183899.252 8
  20466643.403   -16786521.992 6 -12471105.409 6
 95  2 19 20 23 59.9930000  0  7 28 18 31  2 29 19 27
  21231926.583   -13162065.243 5  -2917383.632 5
  18152947.552   -32806026.180 7
  19813889.310   -17116770.576 6 -13171300.203 7
  21706900.599    -6619294.059 5  -5068197.819 5
  19598484.567   -17878105.292 6 -13870908.013 7
  18697048.513   -28726816.995 7 -22212718.747 9
  20450349.044   -16872145.695 6 -12537825.139 6
 95  2 19 20 24 29.9930000  0  7 28 18 31  2 29 19 27
  21233454.247   -13154031.064 5  -2911123.280 5
  18152949.856   -32806002.869 7
  19803253.763   -17172647.932 6 -13214840.986 7
  21686974.716    -6724009.629 5  -5149794.295 5
  19607838.841   -17828943.404 6 -13832600.103 7
  18690045.278   -28763622.561 7 -22241398.414 8
  20434065.341   -16957723.336 6 -12604508.970 6
 95  2 19 20 24 59.9930000  0  7 28 18 31  2 29 19 27
  21235084.614   -13145460.651 5  -2904445.063 6
  18153054.396   -32805458.036 7
  19792727.146   -17228000.594 6 -13257972.924 7
  21667085.919    -6828503.639 5  -5231218.144 5
  19617266.669   -17779408.114 6 -13794001.215 7
  18683078.419   -28800230.636 7 -22269924.188 9
  20417789.106   -17043244.028 6 -12671148.430 6
 95  2 19 20 25 29.9930000  0  7 28 18 31  2 29 19 27
  21236821.864   -13136354.358 5  -2897349.281 6
  18153254.153   -32804387.804 7 -24577023.630 7
  19782290.481   -17282825.870 6 -13300693.902 6
  21647243.521    -6932780.426 5  -5312472.732 5
  19626765.606   -17729493.266 6 -13755106.585 7
  18676149.997   -28836650.823 7 -22298303.560 8
  20401528.411   -17128705.220 6 -12737741.517 6
 95  2 19 20 25 59.9930000  0  8 28 18 16 31  2 29 19 27
  21238652.294   -13126724.563 5  -2889845.579 6
  18153556.919   -32802821.926 7 -24575803.481 7
  22679082.060          -0.57613
  19771955.802   -17337128.868 6 -13343007.916 6
  21627435.653    -7036875.409 5  -5393585.659 5
  19636335.114   -17679212.317 6 -13715926.673 7
  18669247.396   -28872916.199 7 -22326562.302 9
  20385275.950   -17214105.487 6 -12804287.128 6
 95  2 19 20 26 29.9930000  0  8 28 18 16 31  2 29 19 27
  21240583.630   -13116566.455 5  -2881930.218 5
  18153943.903   -32800765.073 7 -24574200.755 8
  22663516.036      -81760.110 3
  19761727.927   -17390889.094 6 -13384898.981 7
  21607664.778    -7140781.389 5  -5474551.312 5
  19645971.731   -17628575.563 6 -13676469.519 7
  18662375.114   -28909032.570 7 -22354704.933 9
  20369038.896   -17299440.294 6 -12870781.739 6
 95  2 19 20 26 59.9930000  0  8 28 18 16 31  2 29 19 27
  21242622.255   -13105875.554 5  -2873599.676 5
  18154432.614   -32798210.270 7 -24572210.014 8
  22648048.622     -163067.428 3        -0.38811
  19751602.700   -17444097.368 6 -13426359.969 7
  21587925.755    -7244493.514 5  -5555365.912 5
  19655676.060   -17577576.670 6 -13636730.175 7
  18655530.091   -28944998.990 7 -22382730.722 9
  20352812.810   -17384703.646 6 -12937220.667 6
 95  2 19 20 27 29.9930000  0  8 28 18 16 31  2 29 19 27
  21244754.544   -13094660.836 5  -2864860.938 6
  18155013.661   -32795151.934 7 -24569826.911 8
  22632663.286     -243925.913 3    -63006.932 1
  19741580.622   -17496756.586 6 -13467393.112 6
  21568229.263    -7347993.315 5  -5636015.056 5
  19665447.583   -17526215.339 6 -13596708.408 7
  18648712.841   -28980822.394 7 -22410645.068 9
  20336601.317   -17469901.214 6 -13003608.342 6
 95  2 19 20 27 59.9930000  0  8 28 18 16 31  2 29 19 27
  21246988.896   -13082915.541 5  -2855708.797 6
  18155694.474   -32791573.863 7 -24567038.817 8
  22617357.724     -324322.917 3   -125653.912 1
  19731662.747   -17548858.684 6 -13507992.139 6
  21548585.200    -7451256.066 5  -5716479.505 5
  19675293.864   -17474485.615 6 -13556399.587 7
  18641928.981   -29016488.459 7 -22438436.815 9
  20320402.028   -17555036.047 6 -13069947.128 6
 95  2 19 20 28 29.9930000  0  8 28 18 16 31  2 29 19 27
  21249322.310   -13070654.407 5  -2846154.696 5
  18156472.036   -32787485.801 7 -24563853.333 8
  22602147.489     -404279.429 3   -187957.667 2
  19721853.317   -17600428.268 6 -13548176.211 7
  21528978.325    -7554273.345 5  -5796752.669 5
  19685202.794   -17422400.445 6 -13515813.794 7
  18635171.216   -29051988.026 7 -22466098.823 9
  20304208.622   -17640123.027 6 -13136248.620 6
 95  2 19 20 28 59.9930000  0  8 28 18 16 31  2 29 19 27
  21251762.349   -13057862.017 5  -2836186.620 5
  18157351.692   -32782863.485 7 -24560251.547 8
  22587013.427     -483797.732 3   -249919.950 1
  19712139.661   -17651447.247 6 -13587931.247 7
  21509425.802    -7657032.029 5  -5876824.326 5
  19695187.294   -17369936.896 6 -13474933.163 7
  18628453.122   -29087297.014 7 -22493612.322 9
  20288033.302   -17725126.328 6 -13202484.912 6
 95  2 19 20 29 29.9930000  0  8 28 18 16 31  2 29 19 27
  21254290.771   -13044543.537 5  -2825808.599 6
  18158331.911   -32777721.152 7 -24556244.550 8
  22571965.021     -562886.181 3   -311547.288 1
  19702541.114   -17701918.088 6 -13627259.164 7
  21489919.419    -7759546.388 5  -5956705.615 5
  19705241.606   -17317094.510 6 -13433757.334 7
  18621769.028   -29122423.990 7 -22520983.994 9
  20271872.341   -17810041.964 6 -13268652.897 6
 95  2 19 20 29 59.9930000  0  8 28 18 16 31  2 29 19 27
  21256919.638   -13030719.631 5  -2815036.770 6
  18159403.552   -32772087.671 7 -24551854.843 8
  22556988.896     -641564.881 3   -372855.329 1
  19693039.333   -17751867.285 6 -13666180.599 6
  21470448.708    -7861866.632 5  -6036435.636 5
  19715365.505   -17263895.342 6 -13392303.490 7
  18615113.333   -29157391.202 7 -22548231.164 9
  20255729.974   -17894879.781 6 -13334760.245 6
 95  2 19 20 30 29.9930000  0  8 28 18 16 31  2 29 19 27
  21259653.255   -13016381.599 5  -2803864.320 5
  18160568.669   -32765963.413 7 -24547082.714 8
  22542100.364     -719824.310 3   -433836.687 2
  19683629.239   -17801277.738 6 -13704682.229 7
  21451009.763    -7964000.674 5  -6116020.571 5
  19725562.106   -17210331.551 6 -13350565.524 7
  18608491.614   -29192199.890 7 -22575354.814 9
  20239604.614   -17979623.043 6 -13400793.910 6
 95  2 19 20 30 59.9920000  0  8 28 18 16 31  2 29 19 27
  21262482.195   -13001515.285 5  -2792280.217 5
  18161830.305   -32759336.500 7 -24541918.907 8
  22527293.813     -797631.115 3   -494465.351 2
  19674340.367   -17850119.437 6 -13742740.675 7
  21431611.086    -8065950.302 5  -6195461.815 5
  19735823.359   -17156386.928 6 -13308530.808 7
  18601896.680   -29226848.197 7 -22602353.488 9
  20223495.172   -18064267.918 6 -13466750.907 6
 95  2 19 20 31 29.9920000  0  8 28 18 16 31  2 29 19 27
  21265407.773   -12986133.416 5  -2780294.373 6
  18163181.094   -32752241.365 7 -24536390.255 8
  22512573.289     -874997.954 3   -554751.192 3
  19665146.094   -17898413.657 6 -13780372.520 7
  21412240.297    -8167729.842 5  -6274770.505 5
  19746160.688   -17102071.984 6 -13266207.537 7
  18595330.523   -29261354.635 7 -22629241.618 9
  20207399.813   -18148849.573 6 -13532658.652 6
 95  2 19 20 31 59.9920000  0  8 28 18 16 31  2 29 19 27
  21268432.000   -12970229.449 5  -2767901.744 6
  18164621.430   -32744660.537 7 -24530483.138 8
  22497930.867     -951914.305 3   -614685.990 1
  19656063.172   -17946139.272 6 -13817561.290 7
  21392912.555    -8269307.250 5  -6353921.700 5
  19756563.727   -17047388.979 6 -13223597.455 7
  18588794.859   -29295697.180 7 -22656002.040 9
  20191316.070   -18233371.371 6 -13598519.748 6
 95  2 19 20 32 29.9920000  0  8 28 18 16 31  2 29 19 27
  21271557.172   -12953802.122 5  -2755101.291 5
  18166160.680   -32736580.781 7 -24524187.246 8
  22483388.609    -1028379.645 3   -674269.343 2
  19647100.742   -17993276.109 6 -13854291.276 6
  21373628.133    -8370657.669 5  -6432896.010 5
  19767039.281   -16992344.578 6 -13180705.771 7
  18582292.766   -29329867.113 7 -22682627.962 9
  20175241.703   -18317842.288 6 -13664341.196 6
 95  2 19 20 32 59.9920000  0  8 28 18 16 31  2 29 19 27
  21274780.719   -12936866.849 5  -2741904.977 5
  18167789.688   -32728017.669 7 -24517514.714 8
  22468918.258    -1104403.512 3   -733508.724 2
  19638235.438   -18039849.852 6 -13890582.478 7
  21354381.328    -8471785.914 5  -6511697.194 5
  19777586.906   -16936953.848 6 -13137544.219 7
  18575824.250   -29363861.296 7 -22709116.933 9
  20159174.289   -18402274.934 6 -13730132.826 6
 95  2 19 20 33 29.9920000  0  8 28 18 16 31  2 29 19 27
  21278100.922   -12919408.109 5  -2728300.824 6
  18169515.773   -32718948.739 7 -24510448.042 8
  22454540.859    -1179974.366 3   -792395.102 2
  19629481.953   -18085852.653 6 -13926428.800 7
  21335183.969    -8572659.839 5  -6590300.202 5
  19788189.555   -16881211.077 6 -13094108.353 6
  18569393.055   -29397651.451 7 -22735446.919 9
  20143120.617   -18486639.494 6 -13795871.402 6
 95  2 19 20 33 59.9920000  0  8 28 18 16 31  2 29 19 27
  21281528.594   -12901427.903 5  -2714290.372 5
  18171339.250   -32709361.965 7 -24502977.850 8
  22440242.211    -1255086.931 3   -850924.373 1
  19620835.211   -18131288.487 6 -13961833.326 7
  21316035.164    -8673295.516 5  -6668717.557 5
  19798862.742   -16825115.578 6 -13050397.631 7
  18563003.297   -29431239.780 7 -22761619.641 9
  20127082.086   -18570927.643 6 -13861550.434 6
 95  2 19 20 34 29.9920000  0  8 28 18 16 31  2 29 19 27
  21285047.523   -12882929.317 5  -2699875.885 5
  18173260.531   -32699269.228 7 -24495113.401 8
  22426035.438    -1329739.226 3   -909095.005 2
  19612293.695   -18176180.028 6 -13996813.725 7
  21296926.156    -8773714.418 5  -6746965.994 5
  19809609.641   -16768660.448 6 -13006406.681 7
  18556645.750   -29464642.169 7 -22787647.478 9
  20111057.016   -18655133.108 6 -13927165.041 6
 95  2 19 20 34 59.9920000  0  8 28 18 16 31  2 29 19 27
  21288666.359   -12863907.731 5  -2685053.928 5
  18175276.195   -32688676.923 7 -24486859.678 8
  22411923.352    -1403924.388 3   -966901.617 3
  19603850.524   -18220534.403 6 -14031375.560 7
  21277858.555    -8873913.140 5  -6825042.867 5
  19820421.992   -16711834.465 6 -12962126.753 6
  18550323.102   -29497863.572 7 -22813534.290 9
  20095052.141   -18739243.599 6 -13992705.634 6
 95  2 19 20 35 29.9920000  0  8 28 18 16 31  2 29 19 27
  21292382.242   -12844368.682 5  -2669828.746 6
  18177389.227   -32677572.207 7 -24478206.672 8
  22397884.445    -1477657.179 3  -1024355.729 2
  19595512.633   -18264345.827 6 -14065514.316 7
  21258836.664    -8973882.627 5  -6902941.098 5
  19831303.992   -16654646.238 6 -12917564.557 7
  18544032.148   -29530928.221 7 -22839298.948 9
  20079060.922   -18823270.190 6 -14058180.863 6
 95  2 19 20 35 59.9920000  0  8 28 18 16 31  2 29 19 27
  21296200.102   -12824318.166 5  -2654204.992 5
  18179599.602   -32665950.860 7 -24469151.103 8
  22383945.664    -1550938.695 3  -1081458.236 3
  19587284.359   -18307605.070 6 -14099222.807 7
  21239852.453    -9073624.733 5  -6980662.154 5
  19842254.836   -16597094.230 6 -12872718.897 6
  18537768.719   -29563843.202 7 -22864946.994 9
  20063085.680   -18907228.007 6 -14123602.487 7
 95  2 19 20 36 29.9920000  0  8 28 18 16 31  2 29 19 27
  21300115.766   -12803749.165 5  -2638177.217 5
  18181912.688   -32653799.457 7 -24459682.496 8
  22370082.273    -1623755.193 3  -1138198.347 3
  19579157.320   -18350285.516 6 -14132480.285 7
  21220925.844    -9173103.859 5  -7058178.315 5
  19853274.828   -16539188.534 6 -12827597.633 6
  18531538.039   -29596590.213 7 -22890464.146 9
  20047119.609   -18991122.178 6 -14188974.524 7
 95  2 19 20 36 59.9920000  0  8 28 18 16 31  2 29 19 27
  21304127.141   -12782663.072 5  -2621746.513 6
  18184328.328   -32641113.679 7 -24449797.500 8
  22356319.945    -1696096.302 3  -1194568.063 3
  19571151.078   -18392366.189 6 -14165270.408 7
  21202044.719    -9272317.288 5  -7135487.410 5
  19864354.477   -16480949.171 6 -12782216.374 6
  18525339.867   -29629160.091 7 -22915843.272 9
  20031167.305   -19074951.599 6 -14254296.105 7
 95  2 19 20 37 29.9920000  0  8 28 18 16 31  2 29 19 27
  21308234.352   -12761068.508 5  -2604919.622 5
  18186843.070   -32627893.014 7 -24439495.697 8
  22342645.023    -1767964.571 3  -1250569.333 2
  19563258.258   -18433853.866 6 -14197598.469 7
  21183211.336    -9371292.252 5  -7212610.704 5
  19875501.953   -16422385.291 6 -12736582.237 6
  18519177.352   -29661548.262 7 -22941080.805 9
  20015227.508   -19158722.065 6 -14319571.750 7
 95  2 19 20 37 59.9920000  0  8 28 18 16 31  2 29 19 27
  21312440.797   -12738965.082 5  -2587696.185 5
  18189458.383   -32614149.504 7 -24428786.497 8
  22329055.273    -1839355.509 3  -1306198.627 2
  19555478.320   -18474746.681 6 -14229463.002 7
  21164417.789    -9470044.908 5  -7289560.757 5
  19886704.508   -16363493.753 6 -12690692.787 6
  18513049.203   -29693743.779 7 -22966168.222 9
  19999301.680   -19242412.829 6 -14384785.281 6
 95  2 19 20 38 29.9920000  0  8 28 18 16 31  2 29 19 27
  21316748.086   -12716341.382 5  -2570067.337 5
  18192173.024   -32599883.206 7 -24417669.915 8
  22315567.094    -1910268.645 3  -1361455.637 2
  19547804.258   -18515040.268 6 -14260860.606 7
  21145671.227    -9568570.220 5  -7366333.669 5
  19897975.250   -16304268.804 6 -12644543.542 6
  18506962.695   -29725739.240 7 -22991099.745 9
  19983397.047   -19325994.015 6 -14449913.432 7
 95  2 19 20 38 59.9920000  0  8 28 18 16 31  2 29 19 27
  21321146.383   -12693209.502 5  -2552042.579 5
  18194984.906   -32585103.172 7 -24406153.026 8
  22302159.195    -1980720.858 3  -1416353.477 2
  19540251.477   -18554752.078 6 -14291804.871 7
  21126960.344    -9666894.707 5  -7442950.085 5
  19909311.344   -16244700.279 6 -12598126.571 6
  18500908.859   -29757553.984 7 -23015890.452 9
  19967513.773   -19409460.408 6 -14514952.131 6
 95  2 19 20 39 29.9920000  0  8 28 18 16 31  2 29 19 27
  21325646.024   -12669580.157 5  -2533630.110 5
  18197892.172   -32569828.015 7 -24394250.325 8
  22288837.258    -2050728.547 3  -1470904.937 3
  19532802.984   -18593885.077 6 -14322298.123 7
  21108287.094    -9765013.311 5  -7519406.079 5
  19920710.820   -16184786.520 6 -12551440.589 6
  18494884.844   -29789199.475 7 -23040549.269 9
  19951650.234   -19492822.614 6 -14579909.654 7
 95  2 19 20 39 59.9920000  0  8 28 18 16 31  2 29 19 27
  21330235.774   -12645442.334 5  -2514821.449 5
  18200895.266   -32554049.906 7 -24381955.719 8
  22275605.750    -2120276.558 3  -1525098.202 2
  19525474.133   -18632409.379 6 -14352317.060 7
  21089662.250    -9862895.089 5  -7595677.529 6
  19932180.477   -16124519.220 6 -12504479.127 6
  18488896.289   -29820664.423 7 -23065067.404 9
  19935807.203   -19576081.723 6 -14644786.837 6
 95  2 19 20 40 29.9920000  0  8 28 18 16 31  2 29 19 27
  21334928.102   -12620791.651 5  -2495613.195 5
  18203994.352   -32537765.701 7 -24369266.746 8
  22262461.867    -2189334.634 3  -1578909.689 2
  19518260.867   -18670312.004 6 -14381851.584 7
  21071082.867    -9960528.498 5  -7671755.454 5
  19943719.578   -16063891.616 6 -12457236.904 6
  18482944.828   -29851943.987 7 -23089441.085 9
  19919980.367   -19659251.945 6 -14709594.763 7
 95  2 19 20 40 59.9920000  0  8 28 18 16 31  2 29 19 27
  21339713.180   -12595650.166 5  -2476022.474 5
  18207184.289   -32520996.111 7 -24356199.553 8
  22249409.797    -2257902.148 3  -1632338.904 4
  19511160.289   -18707614.796 6 -14410918.705 7
  21052548.578   -10057924.101 5  -7747648.084 5
  19955320.000   -16002922.461 6 -12409728.538 6
  18477025.078   -29883058.070 7 -23113685.818 9
  19904163.242   -19742370.759 6 -14774362.617 7
 95  2 19 20 41 29.9920000  0  8 28 18 16 31  2 29 19 27
  21344591.844   -12570003.588 5  -2456038.168 5
  18210470.438   -32503730.042 7 -24342745.493 8
  22236462.430    -2325969.718 3  -1685378.552 2
  19504182.109   -18744311.586 6 -14439513.610 7
  21034063.125   -10155062.641 5  -7823340.402 6
  19966988.477   -15941613.321 6 -12361955.253 6
  18471136.953   -29913995.314 7 -23137792.756 9
  19888356.274   -19825431.444 6 -14839085.184 7
 95  2 19 20 41 59.9920000  0  8 28 18 16 31  2 29 19 27
  21349571.484   -12543862.365 5  -2435668.455 5
  18213850.984   -32485963.256 7 -24328901.260 8
  22223597.242    -2393544.702 3  -1738034.364 2
  19497301.688   -18780438.855 6 -14467664.732 7
  21015627.891   -10251955.054 5  -7898840.932 6
  19978722.461   -15879975.284 6 -12313925.674 6
  18465282.375   -29944769.080 7 -23161772.314 9
  19872562.938   -19908430.710 6 -14903759.885 7
 95  2 19 20 42 29.9920000  0  8 28 18 16 31  2 29 19 27
  21354637.930   -12517220.191 5  -2414908.385 5
  18217327.109   -32467692.959 7 -24314664.696 8
  22210834.289    -2460623.613 3  -1790303.648 1
  19490536.711   -18816007.916 6 -14495380.884 7
  20997235.578   -10348593.284 5  -7974143.382 5
  19990510.891   -15818005.793 6 -12265637.829 6
  18459456.125   -29975377.927 7 -23185623.364 9
  19856786.266   -19991337.436 6 -14968362.488 7
 95  2 19 20 42 59.9920000  0  8 28 18 16 31  2 29 19 27
  21359805.711   -12490069.008 5  -2393751.677 5
  18220900.742   -32448911.169 7 -24300029.558 8
  22198164.352    -2527225.033 4  -1842200.814 2
  19483875.133   -18851016.869 6 -14522660.586 7
  20978895.461   -10444969.713 5  -8049241.840 5
  20002369.336   -15755704.709 6 -12217091.597 6
  18453665.023   -30005809.549 7 -23209336.319 9
  19841031.523   -20074128.320 6 -15032874.818 7
 95  2 19 20 43 29.9920000  0  8 28 18 16 31  2 29 19 27
  21365067.820   -12462422.768 5  -2372209.186 5
  18224570.336   -32429628.265 7 -24285003.945 8
  22185577.102    -2593362.944 4  -1893736.838 2
  19477315.219   -18885475.369 6 -14549511.368 7
  20960604.805   -10541100.928 5  -8124149.222 5
  20014284.859   -15693088.068 6 -12168299.489 6
  18447909.344   -30036065.558 7 -23232912.429 9
  19825298.914   -20156794.700 6 -15097290.125 7
 95  2 19 20 43 59.9920000  0  8 28 18 16 31  2 29 19 27
  21370419.195   -12434279.792 5  -2350279.688 5
  18228335.828   -32409849.281 7 -24269591.771 8
  22173077.024    -2659021.308 4  -1944899.154 2
  19470868.336   -18919368.942 6 -14575921.943 7
  20942355.750   -10636981.999 5  -8198861.682 5
  20026264.836   -15630147.182 6 -12119254.705 6
  18442185.531   -30066127.638 7 -23256337.426 9
  19809594.750   -20239322.873 6 -15161597.750 7
 95  2 19 20 44 29.9920000  0  8 28 18 16 31  2 29 19 27
  21375873.445   -12405637.967 5  -2327961.407 5
  18232192.633   -32389576.615 7 -24253794.911 8
  22160686.625    -2724184.243 4  -1995675.429 2
  19464532.492   -18952659.500 6 -14601862.631 7
  20924158.141   -10732611.603 5  -8273378.212 5
  20038298.203   -15566876.963 6 -12069953.307 6
  18436505.883   -30095981.168 7 -23279599.917 9
  19793914.391   -20321729.871 6 -15225810.948 7
 95  2 19 20 44 59.9920000  0  8 28 18 16 31  2 29 19 27
  21381410.227   -12376509.766 5  -2305264.137 5
  18236144.445   -32368809.668 7 -24237612.901 8
  22148377.063    -2788849.226 4  -2046063.693 4
  19458310.399   -18985348.307 6 -14627334.433 7
  20906008.797   -10828002.546 5  -8347708.753 6
  20050399.352   -15503282.844 6 -12020399.527 6
  18430864.938   -30125626.938 7 -23302700.523 9
  19778247.594   -20404051.363 6 -15289957.523 7
 95  2 19 20 45 29.9920000  0  8 28 18 16 31  2 29 19 27
  21387053.531   -12346881.363 5  -2282177.164 5
  18240194.141   -32347527.928 7 -24221029.756 8
  22136171.195    -2852991.344 4  -2096044.530 3
  19452214.055   -19017417.071 6 -14652323.068 7
  20887903.203   -10923136.436 5  -8421838.996 6
  20062568.430   -15439335.598 6 -11970570.567 6
  18425266.008   -30155045.358 7 -23325623.971 9
  19762601.555   -20486283.121 6 -15354034.168 7
 95  2 19 20 45 59.9920000  0  8 28 18 16 31  2 29 19 27
  21392783.688   -12316757.025 5  -2258703.692 5
  18244342.367   -32325731.059 7 -24204045.204 8
  22124061.617    -2916630.529 5  -2145633.475 2
  19446226.344   -19048859.359 6 -14676823.547 7
  20869850.039   -11018013.124 5  -8495768.827 6
  20074807.555   -15375031.828 6 -11920463.812 6
  18419709.008   -30184258.347 7 -23348387.344 9
  19746964.070   -20568453.773 6 -15418063.212 7
 95  2 19 20 46 29.9920000  0  8 28 18 16 31  2 29 19 27
  21398609.188   -12286153.311 5  -2234856.669 5
  18248584.719   -32303431.348 7 -24186668.829 8
  22112044.461    -2979789.119 5  -2194847.914 3
  19440359.484   -19079691.507 6 -14700848.587 7
  20851840.641   -11112646.814 5  -8569509.311 6
  20087108.063   -15310392.520 6 -11870095.588 6
  18414185.188   -30213284.910 7 -23371005.454 8
  19731333.375   -20650590.753 6 -15482066.011 7
 95  2 19 20 46 59.9920000  0  8 28 18 16 31  2 29 19 27
  21404524.508   -12255068.972 5  -2210635.189 5
  18252925.063   -32280627.232 7 -24168899.417 8
  22100111.555    -3042483.968 5  -2243701.021 2
  19434602.883   -19109938.471 6 -14724417.633 7
  20833880.109   -11207036.798 5  -8643059.883 6
  20099466.750   -15245425.017 6 -11819471.629 6
  18408695.273   -30242134.728 7 -23393485.839 8
  19715714.484   -20732676.438 6 -15546028.842 7
 95  2 19 20 47 29.9920000  0  8 28 18 16 31  2 29 19 27
  21410529.539   -12223496.816 5  -2186033.548 5
  18257362.047   -32257314.405 7 -24150733.598 8
  22088270.609    -3104723.803 5  -2292199.555 3
  19428963.789   -19139589.411 6 -14747522.259 7
  20815964.188   -11301174.133 5  -8716413.594 5
  20111898.547   -15180131.203 6 -11768593.406 6
  18403237.539   -30270803.561 7 -23415825.190 9
  19700107.367   -20814690.868 6 -15609936.150 7
 95  2 19 20 47 59.9920000  0  8 28 18 16 31  2 29 19 27
  21416632.727   -12191434.642 5  -2161050.052 5
  18261894.063   -32233495.032 7 -24132173.067 8
  22076515.250    -3166493.680 5  -2340331.886 2
  19423434.227   -19168628.159 6 -14770149.840 7
  20798100.266   -11395059.396 6  -8789570.869 5
  20124377.664   -15114532.390 6 -11717477.514 6
  18397817.672   -30299297.146 7 -23438027.984 9
  19684515.383   -20896622.977 6 -15673779.316 7
 95  2 19 20 48 29.9920000  0  8 28 18 16 31  2 29 19 27
  21422826.625   -12158896.185 5  -2135695.488 5
  18266519.484   -32209185.933 7 -24113230.935 8
  22064850.836    -3227785.461 4  -2388091.684 2
  19418020.094   -19197071.669 6
  20780279.633   -11488720.923 6  -8862553.807 6
  20136908.586   -15048658.403 6 -11666147.214 6
  18392428.805   -30327612.974 7
  19668939.016   -20978472.935 6 -15737558.468 7
 95  2 19 20 48 59.9920000  0  8 28 18 16 31  2 29 19 27
  21429104.539   -12125874.684 5  -2109964.531 5
  18271242.086   -32184368.079 7 -24093892.368 8
  22053284.234    -3288577.041 5  -2435461.709 4
  19412725.477   -19224909.972 6 -14814005.780 7
  20762496.609   -11582150.851 6  -8935356.278 6
  20149499.773   -14982508.360 6 -11614601.791 6
  18387073.828   -30355748.591 7 -23482016.115 8
  19653383.898   -21060220.143 6 -15801257.554 7
 95  2 19 20 49 29.9920000  0  8 28 18 16 31  2 29 19 27
  21435484.844   -12092376.535 5  -2083862.079 5
  18276060.336   -32159054.423 7 -24074167.461 8
  22041815.375    -3348857.097 4  -2482433.120 2
  19407545.125   -19252125.065 6 -14835212.329 7
  20744762.180   -11675352.411 5  -9007980.800 6
  20162138.477   -14916079.433 6 -11562839.067 6
  18381754.344   -30383698.610 7 -23503795.344 9
  19637845.492   -21141867.476 6 -15864878.822 7
 95  2 19 20 49 59.9920000  0  8 28 18 16 31  2 29 19 27
  21441950.414   -12058397.156 5  -2057384.719 5
  18280970.281   -32133247.612 7 -24054058.277 8
  22030440.828    -3408607.259 5  -2528991.672 2
  19402483.633   -19278721.936 6 -14855937.155 7
  20727070.484   -11768317.850 6  -9080421.318 6
  20174835.648   -14849355.111 6 -11510846.157 6
  18376470.711   -30411465.422 7 -23525431.813 9
  19622331.852   -21223397.944 6 -15928409.010 7
 95  2 19 20 50 29.9920000  0  8 28 18 16 31  2 29 19 27
  21448508.641   -12023933.489 5  -2030529.961 5
  18285978.250   -32106934.328 7 -24033554.440 8
  22019172.750    -3467835.457 5  -2575143.491 2
  19397536.398   -19304720.925 6 -14876196.101 7
  20709428.477   -11861030.495 6  -9152664.864 6
  20187596.648   -14782311.954 6 -11458604.809 6
  18371223.406   -30439037.552 7 -23546916.585 8
  19606842.656   -21304798.705 6 -15991838.143 7
 95  2 19 20 50 59.9920000  0  8 28 18 16 31  2 29 19 27
  21455156.727   -11988984.153 5  -2003296.745 5
  18291079.094   -32080125.519 7 -24012664.482 8
  22007996.180    -3526551.868 4  -2620896.489 2
  19392707.141   -19330119.873 6 -14895987.485 7
  20691838.039   -11953466.141 6  -9224692.551 6
  20200421.914   -14714931.438 6 -11406100.580 6
  18366014.133   -30466416.839 7 -23568251.083 9
  19591377.172   -21386062.528 6 -16055160.566 7
 95  2 19 20 51 29.9920000  0  8 28 18 16 31  2 29 19 27
  21461902.891   -11953559.061 5  -1975692.843 5
  18296270.727   -32052846.898 7 -23991408.437 8
  21996917.875    -3584779.502 4  -2666268.630 3
  19387980.266   -19354934.289 6 -14915323.388 7
  20674299.422   -12045636.386 6  -9296513.442 6
  20213307.117   -14647212.476 6 -11353332.631 6
  18360839.047   -30493613.927 7 -23589443.608 9
  19575936.742   -21467210.250 6 -16118392.522 7
 95  2 19 20 51 59.9920000  0  8 28 18 16 31  2 29 19 27
  21468733.539   -11917660.364 5  -1947719.891 5
  18301554.625   -32025079.851 7 -23969771.800 8
  21985927.711    -3642519.392 4  -2711260.703 3
  19383370.523   -19379167.378 6 -14934206.308 7
  20656809.836   -12137541.847 6  -9368128.001 6
  20226259.266   -14579172.482 6 -11300314.522 6
  18355697.297   -30520641.197 7 -23610503.809 9
  19560515.438   -21548246.065 6 -16181537.274 7
 95  2 19 20 52 29.9920000  0  8 28 18 16 31  2 29 19 27
  21475654.445   -11881287.323 5  -1919377.333 5
  18306932.664   -31996820.998 7 -23947751.935 8
  21975039.992    -3699765.636 5  -2755868.133 2
  19378870.484   -19402799.990 6 -14952621.321 7
  20639371.773   -12229178.816 6  -9439533.343 6
  20239264.359   -14510814.974 6 -11247049.005 6
  18350588.930   -30547488.592 7 -23631423.848 9
  19545112.930   -21629188.530 6 -16244609.292 7
 95  2 19 20 52 59.9920000  0  8 28 18 16 31  2 29 19 27
  21482664.899   -11844446.038 5  -1890669.873 6
  18312401.898   -31968079.035 7 -23925355.623 8
  21964237.148    -3756513.203 4  -2800086.968 2
  19374491.609   -19425814.688 6 -14970554.847 7
  20621984.430   -12320556.457 6  -9510736.614 6
  20252332.281   -14442153.215 6 -11193546.403 6
  18345510.133   -30574156.082 7 -23652203.701 9
  19529722.672   -21710056.627 6 -16307623.355 7
 95  2 19 20 53 29.9920000  0  8 28 18 16 31  2 29 19 27
  21489765.438   -11807140.301 5  -1861600.565 5
  18317964.781   -31938839.816 7 -23902571.842 8
  21953536.242    -3812752.363 5  -2843909.650 2
  19370231.992   -19448205.838 6 -14988002.486 7
  20604642.797   -12411683.895 6  -9581744.922 6
  20265450.094   -14373191.745 6 -11139810.258 6
  18340472.953   -30600643.776 7 -23672843.447 9
  19514346.094   -21790859.074 6 -16370586.263 7
 95  2 19 20 53 59.9920000  0  8 28 18 16 31  2 29 19 27
  21496949.227   -11769376.278 5  -1832174.098 4
  18323624.898   -31909098.430 7 -23879396.755 8
  21942931.375    -3868471.692 5  -2887327.258 2
  19366092.344   -19469970.424 6 -15004961.902 7
  20587349.570   -12502553.346 6  -9652552.211 6
  20278629.836   -14303922.362 6 -11085834.180 5
  18335470.180   -30626936.565 7 -23693331.329 9
  19498985.680   -21871589.433 6 -16433492.997 7
 95  2 19 20 54 29.9920000  0  8 28 18 16 31  2 29 19 27
  21504220.234   -11731150.595 5  -1802387.907 5
  18329377.367   -31878869.007 7 -23855841.383 8
  21932431.992    -3923661.731 5  -2930332.426 2
  19362070.875   -19491106.975 6 -15021431.929 7
  20570110.094   -12593160.961 6  -9723155.457 6
  20291869.414   -14234327.256 6 -11031604.301 6
  18330506.016   -30653010.623 7 -23713648.778 9
  19483635.422   -21952249.424 6 -16496344.895 7
 95  2 19 20 54 59.9920000  0  8 28 18 16 31  2 29 19 27
  21511585.727   -11692454.881 5  -1772235.500 5
  18335226.977   -31848133.255 7 -23831891.467 8
  21922030.016    -3978313.600 4  -2972918.281 1
  19358165.750   -19511601.061 6 -15037401.341 7
  20552919.695   -12683493.296 6  -9793544.212 6
  20305182.211   -14164407.636 6 -10977121.547 6
  18325591.602   -30678844.721 7 -23733779.245 8
  19468303.820   -22032818.505 6 -16559125.957 7
 95  2 19 20 55 29.9920000  0  8 28 18 16 31  2 29 19 27
  21519039.641   -11653289.911 5  -1741717.359 5
  18341170.078   -31816893.951 7 -23807549.181 8
  21911731.789    -4032432.003 4  -3015088.423 2
  19354390.774   -19531458.040 6 -15052874.304 7
  20535780.133   -12773554.793 6  -9863721.921 6
  20318549.430   -14094166.804 6 -10922388.503 6
  18320719.508   -30704442.488 7 -23753725.555 9
  19452991.516   -22113282.944 6 -16621825.475 7
 95  2 19 20 55 59.9920000  0  8 28 18 16 31  2 29 19 27
  21526582.797   -11613665.820 5  -1710841.560 5
  18347207.578   -31785169.246 7 -23782828.649 8
  21901532.867    -4086034.011 4  -3056856.181 1
  19350732.852   -19550697.484 6 -15067866.072 7
  20518692.039   -12863358.450 6  -9933698.729 6
  20331970.906   -14023637.212 6 -10867430.452 6
  18315891.117   -30729814.304 7 -23773495.792 8
  19437699.992   -22193643.600 6 -16684444.125 7
 95  2 19 20 56 29.9920000  0  8 28 18 16 31  2 29 19 27
  21534211.063   -11573578.221 5  -1679604.510 4
  18353337.953   -31752956.717 7 -23757728.001 8
  21891433.391    -4139126.020 4  -3098226.554 2
  19347187.359   -19569315.719 6 -15082373.784 7
  20501649.648   -12952903.974 6 -10003474.390 6
  20345451.375   -13952846.611 6 -10812269.014 6
  18311104.641   -30754966.423 7 -23793094.836 9
  19422428.688   -22273897.054 6 -16746979.245 7
 95  2 19 20 56 59.9920000  0  8 28 18 16 31  2 29 19 27
  21541922.930   -11533038.738 5  -1648015.348 5
  18359558.039   -31720267.156 7 -23732255.642 8
  21881423.055    -4191729.898 4  -3139216.543 2
  19343758.149   -19587334.547 6 -15096414.424 7
  20484658.188   -13042196.223 6 -10073052.701 6
  20358960.133   -13881812.888 6 -10756918.134 5
  18306356.852   -30779920.524 7 -23812539.589 8
  19407180.320   -22354031.801 6 -16809421.863 7
 95  2 19 20 57 29.9920000  0  8 28 18 16 31  2 29 19 27
  21549721.680   -11492044.229 5  -1616071.634 5
  18365867.805   -31687110.893 7 -23706419.617 8
  21871500.742    -4243839.822 4  -3179821.640 1
  19340436.219   -19604772.746 6 -15110002.634 7
  20467716.602   -13131239.227 6 -10142436.787 6
  20372525.805   -13810530.421 6 -10701373.429 6
  18301646.180   -30804682.793 7 -23831834.860 8
  19391955.914   -22434028.976 6 -16871757.279 7
 95  2 19 20 57 59.9920000  0  8 28 18 16 31  2 29 19 27
  21557609.844   -11450602.149 5  -1583779.145 4
  18372266.313   -31653492.063 7 -23680223.151 8
  21861679.180    -4295460.525 4  -3220045.524 2
  19337229.969   -19621631.004 6 -15123138.935 7
  20450820.969   -13220026.780 6 -10211621.836 6
  20386146.149   -13739002.473 6 -10645637.445 6
  18296969.891   -30829253.419 7 -23850980.798 9
  19376759.125   -22513890.752 6 -16933987.197 7
 95  2 19 20 58 29.9920000  0  8 28 18 16 31  2 29 19 27
  21565577.789   -11408716.710 5  -1551141.182 5
  18378753.445   -31619401.938 7 -23653659.442 8
  21851946.859    -4346594.192 4  -3259889.907 2
  19334133.711   -19637898.438 6 -15135814.853 7
  20433975.664   -13308553.495 6 -10280603.624 6
  20399801.320   -13667207.676 5 -10589693.519 6
  18292329.117   -30853633.107 7 -23869977.951 8
  19361585.852   -22593624.623 6 -16996117.445 7
 95  2 19 20 58 59.9920000  0  8 28 18 16 31  2 29 19 27
  21573636.164   -11366374.437 5  -1518147.238 4
  18385334.281   -31584820.735 7 -23626713.076 8
  21842311.563    -4397222.140 4  -3299340.207 3
  19331159.211   -19653558.303 6 -15148017.346 7
  20417177.383   -13396809.229 6 -10349374.266 6
  20413513.016   -13595120.169 5 -10533521.523 6
  18287730.508   -30877809.865 7 -23888816.978 9
  19346440.922   -22673214.122 6 -17058135.200 7
 95  2 19 20 59 29.9920000  0  8 28 18 16 31  2 29 19 27
  21581775.922   -11323597.770 4  -1484814.785 5
  18392005.586   -31549758.606 7 -23599391.956 8
  21832772.695    -4447364.195 4  -3338411.903 1
  19328289.258   -19668615.162 6 -15159749.966 7
  20400433.672   -13484815.590 6 -10417950.592 6
  20427289.648   -13522750.059 6 -10477129.304 5
  18283162.047   -30901803.286 7 -23907513.145 9
  19331312.992   -22752707.183 6 -17120077.805 7
 95  2 19 20 59 59.9920000  0  8 28 18 16 31  2 29 19 27
  21590001.195   -11280387.588 5  -1451144.579 3
  18398772.367   -31514196.165 7 -23571680.992 8
  21823329.859    -4497015.035 4  -3377100.815 2
  19325543.602   -19683054.627 6 -15171001.499 7
  20383732.117   -13572562.740 6 -10486324.941 6
  20441110.649   -13450087.427 5 -10420509.164 5
  18278631.992   -30925611.395 7 -23926064.912 9
  19316203.258   -22832117.074 6 -17181955.611 7
 95  2 19 21  0 29.9920000  0  8 28 18 16 31  2 29 19 27
  21598305.688   -11236738.182 5  -1417132.053 5
  18405637.117   -31478131.630 7 -23543578.779 8
  21813973.992    -4546154.450 4  -3415391.238 2
  19322910.359   -19696881.183 6 -15181775.437 7
  20367084.313   -13660057.273 6 -10554502.431 6
  20454994.617   -13377127.406 5 -10363657.280 6
  18274139.000   -30949231.241 7 -23944469.978 9
  19301105.781   -22911450.602 6 -17243773.911 7
 95  2 19 21  0 59.9920000  0  8 28 18 16 31  2 29 19 27
  21606699.875   -11192643.374 5  -1382772.518 4
  18412592.641   -31441574.716 7 -23515092.900 8
  21804720.719    -4594761.902 4  -3453267.110 2
  19320396.977   -19710097.371 6 -15192073.768 7
  20350485.344   -13747286.700 6 -10622473.354 6
  20468933.984   -13303869.139 5 -10306572.999 6
  18269681.656   -30972644.750 7 -23962714.263 9
  19286025.734   -22990690.391 6 -17305519.159 8
 95  2 19 21  1 29.9920000  0  8 28 18 16 31  2 29 19 27
  21615173.758   -11148109.656 5  -1348070.898 4
  18419639.445   -31404538.055 7 -23486233.182 8
  21795572.383    -4642827.321 4  -3490720.644 1
  19317999.047   -19722709.345 6 -15201901.274 7
  20333940.641   -13834245.979 6 -10690233.765 6
  20482936.883   -13230311.445 5 -10249255.394 5
  18265265.242   -30995855.243 7 -23980800.350 9
  19270964.266   -23069839.959 6 -17367194.118 8
 95  2 19 21  1 59.9920000  0  8 28 18 16 31  2 29 19 27
  21623727.094   -11103149.821 5  -1313037.321 4
  18426774.078   -31367048.794 7 -23457020.792 8
  21786531.492    -4690350.128 3  -3527751.360 2
  19315710.695   -19734727.254 6 -15211265.875 7
  20317438.586   -13920953.348 6 -10757797.884 6
  20496992.024   -13156482.432 6 -10191726.375 5
  18260885.438   -31018872.494 7 -23998735.862 9
  19255922.148   -23148887.996 6 -17428789.950 8
 95  2 19 21  2 29.9920000  0  8 28 18 16 31  2 29 19 27
  21632368.742   -11057766.933 5  -1277674.028 3
  18433989.867   -31329132.526 7 -23427475.668 8
  21777592.742    -4737335.594 3  -3564363.352 2
  19313534.563   -19746142.835 6 -15220161.142 7
  20300985.984   -14007407.741 6 -10825164.883 6
  20511075.891   -13082400.876 5 -10134000.569 5
  18256543.297   -31041697.227 7 -24016521.362 9
  19240900.156   -23227826.100 6 -17490300.128 8
 95  2 19 21  2 59.9920000  0  8 28 18 16 31  2 29 19 27
  21641081.070   -11011948.824 5  -1241971.660 5
  18441290.234   -31290766.318 7 -23397579.940 8
  21768753.922    -4783780.356 3  -3600554.045 1
  19311483.266   -19756924.841 6 -15228562.706 7
  20284586.188   -14093580.425 6 -10892312.368 6
  20525220.141   -13008061.756 5 -10076074.071 5
  18252239.563   -31064312.591 7 -24034143.719 9
  19225907.313   -23306626.281 6 -17551702.836 8
 95  2 19 21  3 29.9920000  0  8 28 18 16 31  2 29 19 27
  21649886.094   -10965695.816 5  -1205930.381 2
  18448680.149   -31251937.959 7 -23367324.099 8
  21760021.656    -4829697.985 3  -3636333.968 3
  19309557.313   -19767064.145 6 -15236463.451 7
  20268240.648   -14179485.898 6 -10959251.632 6
  20539431.688   -12933478.580 6 -10017957.393 5
  18247973.203   -31086730.075 7 -24051611.873 9
  19210936.430   -23385291.755 6 -17613000.558 8
 95  2 19 21  3 59.9920000  0  8 28 18 16 31  2 29 19 27
  21658768.383   -10919018.300 4  -1169558.353 5
  18456152.328   -31212658.999 7 -23336717.139 8
  21751376.352    -4875117.277 3  -3671725.555 2
  19307745.813   -19776562.130 6 -15243864.485 7
  20251942.469   -14265134.162 6 -11025990.483 6
  20553655.492   -12858675.843 5  -9959669.631 5
  18243746.781   -31108944.494 7 -24068921.803 9
  19195989.711   -23463830.438 6 -17674199.511 8
 95  2 19 21  4 29.9920000  0  8 28 18 16 31  2 29 19 27
  21667728.758   -10871925.566 4  -1132862.743 4
  18463715.125   -31172923.044 7 -23305754.077 8
  21742820.297    -4920058.079 3  -3706744.327 1
  19306061.031   -19785437.427 6 -15250780.299 7
  20235691.164   -14350520.187 6 -11092524.989 6
  20567934.672   -12783660.228 5  -9901215.985 5
  18239557.633   -31130951.333 7 -24086069.980 9
  19181066.305   -23542258.701 6 -17735312.409 8
 95  2 19 21  4 59.9920000  0  8 28 18 16 31  2 29 19 27
  21676766.906   -10824406.371 4  -1095834.835 5
  18471368.414   -31132703.921 7 -23274414.522 8
  21734359.727    -4964506.515 3  -3741379.394 2
  19304490.281   -19793688.519 6 -15257209.725 7
  20219495.875   -14435642.813 6 -11158854.248 6
  20582251.109   -12708407.777 5  -9842577.802 5
  18235413.078   -31152734.894 7 -24103044.170 9
  19166162.984   -23620573.443 6 -17796336.846 8
 95  2 19 21  5 29.9920000  0  8 28 18 16 31  2 29 19 27
  21685891.508   -10776481.338 5  -1058490.710 2
  18479109.547   -31092028.426 7 -23242719.355 8
  21725991.539    -5008479.848 3  -3775644.300 2
  19303033.688   -19801341.304 6 -15263172.939 7
  20203342.984   -14520523.973 6 -11224995.356 6
  20596612.813   -12632928.302 5  -9783762.705 5
  18231305.039   -31174317.639 7 -24119861.890 9
  19151275.836   -23698800.460 6 -17857292.928 8
 95  2 19 21  5 59.9920000  0  8 28 18 16 31  2 29 19 27
  21695093.828   -10728131.537 4  -1020815.576 5
  18486938.688   -31050879.903 7 -23210655.595 8
  21717723.023    -5051948.040 3  -3809515.551 2
  19301694.461   -19808380.698 6 -15268658.171 7
  20187243.125   -14605125.904 6 -11290918.890 6
  20611023.023   -12557184.028 5  -9724741.284 5
  18227242.023   -31195669.228 7 -24136499.483 9
  19136413.516   -23776917.146 6 -17918163.034 8
 95  2 19 21  6 29.9920000  0  8 28 18 16 31  2 29 19 27
  21704367.930   -10679371.194 3   -982820.578 4
  18494857.672   -31009263.028 7 -23178226.877 8
  21709546.586    -5094909.217 3  -3842991.756 2
  19300466.867   -19814827.069 6 -15273681.316 7
  20171190.570   -14689473.549 6 -11356644.275 6
  20625493.523   -12481168.302 5  -9665508.345 5
  18223217.258   -31216821.875 7 -24152982.054 9
  19121566.742   -23854935.975 6 -17978956.890 8
 95  2 19 21  6 59.9910000  0  8 28 18 16 31  2 29 19 27
  21713724.441   -10630204.370 4   -944508.780 3
  18502865.862   -30967186.226 7 -23145439.780 8
  21701469.370    -5137361.576 3  -3876071.453 2
  19299352.066   -19820676.352 6 -15278239.187 7
  20155188.026   -14773569.600 6 -11422173.611 6
  20640014.706   -12404876.729 5  -9606060.451 5
  18219227.526   -31237790.936 7 -24169321.581 9
  19106742.355   -23932837.653 7 -18039659.456 8
 95  2 19 21  7 29.9910000  0  8 28 18 16 31  2 29 19 27
  21723161.706   -10580629.183 4   -905878.831 5
  18510960.917   -30924651.383 7 -23112295.769 8
  21693479.269    -5179318.183 3  -3908764.874 2
  19298354.808   -19825931.763 6 -15282334.299 7
  20139236.706   -14857394.960 6 -11487492.021 6
  20654581.245   -12328308.059 5  -9546396.645 5
  18215273.034   -31258570.261 7 -24185513.259 9
  19091942.987   -24010608.354 6 -18100259.962 8
 95  2 19 21  7 59.9910000  0  8 28 18 16 31  2 29 19 27
  21732674.534   -10530636.564 5   -866923.550 3
  18519144.026   -30881642.958 7 -23078782.731 8
  21685599.112    -5220761.913 3  -3941058.609 2
  19297469.331   -19830587.730 6 -15285962.314 7
  20123339.112   -14940935.909 6 -11552588.809 6
  20669207.628   -12251457.131 5  -9486512.890 5
  18211358.011   -31279137.222 7 -24201539.457 9
  19077173.315   -24088223.119 6 -18160738.954 8
 95  2 19 21  8 29.9910000  0  8 28 18 16 31  2 29 19 27
  21742263.956   -10480242.302 3   -827655.356 5
  18527417.300   -30838168.676 7 -23044906.691 8
  21677811.706    -5261699.120 3  -3972957.670 2
  19296693.026   -19834651.035 6 -15289128.520 7
  20107495.175   -15024208.012 6 -11617476.107 6
  20683872.534   -12174354.261 5  -9426432.821 5
  18207485.308   -31299498.087 7 -24217405.061 9
  19062430.542   -24165692.263 7 -18221104.472 8
 95  2 19 21  8 59.9910000  0  8 28 18 16 31  2 29 19 27
  21751929.519   -10429440.240 5   -788069.379 3
  18535777.073   -30794235.420 7 -23010673.005 8
  21670116.487    -5302118.154 3  -4004452.968 2
  19296035.644   -19838106.964 6 -15291821.440 7
  20091703.222   -15107183.328 6 -11682132.143 6
  20698593.644   -12097018.409 5  -9366171.209 5
  18203653.605   -31319632.473 7 -24233094.183 9
  19047717.651   -24243010.451 7 -18281352.364 8
 95  2 19 21  9 29.9910000  0  8 28 18 16 31  2 29 19 27
  21761677.378   -10378243.350 5   -748175.716 5
  18544221.339   -30749865.630 7 -22976099.168 8
  21662522.870    -5342008.159 3  -4035536.060 3
  19295492.683   -19840959.343 6 -15294044.054 7
  20075966.776   -15189882.157 6 -11746572.730 6
  20713351.347   -12019465.973 5  -9305740.833 5
  18199864.753   -31339546.152 7 -24248611.330 8
  19033026.144   -24320216.783 7 -18341513.097 8
 95  2 19 21  9 59.9910000  0  8 28 18 16 31  2 29 19 27
  21771491.370   -10326650.948 4   -707973.888 5
  18552746.026   -30705058.848 7 -22941184.816 8
  21655043.784    -5381342.484 3  -4066186.150 2
  19295071.003   -19843190.845 6 -15295782.879 7
  20060278.776   -15272332.468 6 -11810819.669 6
  20728150.847   -11941686.083 5  -9245133.225 5
  18196114.136   -31359245.601 7 -24263961.553 9
  19018352.925   -24397324.610 7 -18401597.070 8
 95  2 19 21 10 29.9910000  0  8 28 18 16 31  2 29 19 27
  21781386.878   -10274657.775 5   -667459.765 4
  18561354.589   -30659823.629 7 -22905936.618 8
  21647661.589    -5420117.304 3  -4096400.257 2
  19294762.722   -19844787.337 6 -15297026.880 7
  20044634.792   -15354535.009 6 -11874873.540 6
  20743005.917   -11863675.699 5  -9184346.006 5
  18192406.730   -31378734.244 7 -24279147.496 8
  19003696.792   -24474337.755 7 -18461607.268 8
 95  2 19 21 10 59.9910000  0  8 28 18 16 31  2 29 19 27
  21791352.448   -10222267.393 3   -626636.150 4
  18570040.409   -30614172.821 7 -22870364.586 8
  21640386.698    -5458349.887 3  -4126191.837 3
  19294582.948   -19845756.262 6 -15297781.857 7
  20029035.698   -15436500.814 6 -11938742.942 6
  20757882.362   -11785434.299 5  -9123378.778 5
  18188736.097   -31398022.495 7 -24294177.291 9
  18989060.980   -24551254.953 7 -18521542.703 8
 95  2 19 21 11 29.9910000  0  8 28 18 16 31  2 29 19 27
  21801395.441   -10169494.794 5   -585514.638 3
  18578811.386   -30568090.937 7 -22834456.649 8
  21633211.690    -5496068.328 3  -4155582.824 2
  19294507.464   -19846122.099 6
  20013481.058   -15518244.479 6 -12002439.256 6
  20772826.745   -11706958.175 5  -9062228.643 5
  18185104.472   -31417112.762 7 -24309052.819 9
  18974441.339   -24628077.677 7 -18581404.523 8
 95  2 19 21 11 59.9910000  0  8 28 18 16 31  2 29 19 27
  21811511.222   -10116329.877 4   -544087.520 5
  18587666.323   -30521551.932 7 -22798192.521 8
  21626128.003    -5533280.382 3  -4184579.189 3
  19294559.276   -19845886.899 6
  19997974.206   -15599736.176 6 -12065939.222 6
  20787790.698   -11628246.775 5  -9000895.187 5
  18181510.511   -31435983.840 7 -24323757.542 9
  18959847.214   -24704774.585 7 -18641168.307 8
 95  2 19 21 12 29.9910000  0  8 28 18 16 31  2 29 19 27
  21821704.925   -10062784.304 5   -502363.696 1
  18596608.222   -30474561.327 7 -22761576.490 8
  21619137.503    -5570017.701 3  -4213205.642 4
  19294712.722   -19845070.146 6 -15297247.178 7
  19982519.105   -15680959.655 6 -12129230.187 6
  20802820.347   -11549337.295 5  -8939407.379 5
  18177963.331   -31454635.341 7 -24338291.168 9
  18945276.605   -24781340.890 7 -18700830.333 8
 95  2 19 21 12 59.9910000  0  8 28 18 16 31  2 29 19 27
  21831970.128   -10008850.047 5   -460337.036 4
  18605641.112   -30427098.300 7 -22724592.345 8
  21612241.667    -5606262.826 3  -4241448.565 3
  19294977.737   -19843664.806 6 -15296152.098 7
  19967119.034   -15761883.266 6 -12192287.496 6
  20817873.503   -11470217.614 5  -8877755.782 5
  18174459.347   -31473051.475 7 -24352641.391 9
  18930733.925   -24857764.912 7 -18760381.481 8
 95  2 19 21 13 29.9910000  0  8 28 18 16 31  2 29 19 27
  21842302.831    -9954539.551 4   -418017.187 2
  18614759.495   -30379184.794 7 -22687257.177 8
  21605428.651    -5642018.176 3  -4269309.845 3
  19295355.511   -19841675.264 6 -15294601.794 7
  19951776.800   -15842509.639 6 -12255113.181 6
  20832965.097   -11390892.609 5  -8815944.188 5
  18170997.089   -31491245.888 7 -24366818.840 9
  18916213.480   -24934069.284 7 -18819839.396 8
 95  2 19 21 13 59.9910000  0  8 28 18 16 31  2 29 19 27
  21852708.253    -9899847.493 5   -375400.004 2
  18623957.769   -30330851.083 7 -22649594.573 8
  21598731.800    -5677260.932 3  -4296771.721 3
  19295852.956   -19839077.639 6 -15292577.661 7
  19936488.073   -15922844.598 6 -12317711.799 6
  20848106.675   -11311370.554 5  -8753979.062 5
  18167575.331   -31509222.464 7 -24380826.546 9
  18901717.222   -25010242.087 7 -18879194.788 8
 95  2 19 21 14 29.9910000  0  8 28 18 16 31  2 29 19 27
  21863186.253    -9844778.328 3   -332489.009 2
  18633232.761   -30282106.446 7 -22611611.766 8
  21592126.776    -5711983.177 3  -4323827.996 2
  19296465.878   -19835862.912 6 -15290072.673 7
  19921257.284   -16002894.411 6 -12380088.225 6
  20863275.690   -11231643.301 5  -8691854.021 5
  18164195.034   -31526989.251 7 -24394670.776 9
  18887248.042   -25086282.981 7 -18938447.395 8
 95  2 19 21 14 59.9910000  0  8 28 18 16 31  2 29 19 27
  21873737.081    -9789352.013 5   -289299.623 2
  18642580.675   -30232976.204 7 -22573328.486 8
  21585609.558    -5746182.646 3  -4350476.902 2
  19297189.745   -19832045.204 6 -15287097.819 7
  19906070.464   -16082687.430 6 -12442264.549 6
  20878475.300   -11151709.824 5  -8629568.301 5
  18160849.261   -31544569.902 7 -24408369.968 9
  18872799.214   -25162216.884 7 -18997616.635 8
 95  2 19 21 15 29.9910000  0  8 28 18 16 31  2 29 19 27
  21884353.808    -9733552.718 3   -245819.702 4
  18652008.089   -30183439.462 7 -22534728.457 8
  21579209.675    -5779846.270 3  -4376708.260 4
  19298033.159   -19827607.641 6 -15283639.963 7
  19890936.355   -16162227.067 6 -12504243.437 7
  20893733.566   -11071555.917 5  -8567110.808 4
  18157544.370   -31561948.055 7 -24421911.367 9
  18858373.909   -25238017.030 7 -19056681.651 8
 95  2 19 21 15 59.9910000  0  8 28 18 16 31  2 29 19 27
  21895043.214    -9677382.524 4   -202050.727 1
  18661515.222   -30133478.101 7 -22495797.559 8
  21572898.792    -5812978.818 3  -4402525.805 4
  19298994.862   -19822565.017 6 -15279710.644 7
  19875850.542   -16241511.214 6 -12566023.241 6
  20909027.933   -10991183.674 5  -8504483.185 4
  18154274.144   -31579114.471 7 -24435287.778 8
  18843975.933   -25313671.355 7 -19115633.037 8
 95  2 19 21 16 29.9910000  0  8 28 18 16 31  2 29 19 27
  21905800.683    -9620854.360 3   -158002.845 3
  18671103.566   -30083095.495 7 -22456538.414 8
  21566699.644    -5845604.799 3  -4427948.636 3
  19300062.823   -19816939.267 6 -15275326.941 7
  19860809.019   -16320540.157 6 -12627604.179 7
  20924364.534   -10910594.781 5  -8441686.747 3
  18151045.995   -31596080.733 7 -24448508.231 9
  18829603.315   -25389208.160 7 -19174492.847 8
 95  2 19 21 16 59.9910000  0  8 28 18 16 31  2 29 19 27
  21916625.401    -9563960.759 3   -113670.147 1
  18680772.245   -30032286.202 7 -22416946.788 8
  21560586.698    -5877726.578 3  -4452978.560 2
  19301244.245   -19810731.738 6 -15270489.896 7
  19845817.940   -16399313.534 6 -12688985.980 7
  20939744.198   -10829790.035 5  -8378722.114 4
  18147857.698   -31612833.254 7 -24461562.125 9
  18815253.339   -25464618.417 7 -19233254.054 8
 95  2 19 21 17 29.9910000  0  8 28 18 16 31  2 29 19 27
  21927518.941    -9506706.933 3    -69056.830 2
  18690520.995   -29981051.493 7 -22377023.666 8
  21554562.558    -5909366.816 3  -4477633.259 3
  19302535.855   -19803947.806 6 -15265203.707 7
  19830879.425   -16477828.773 6 -12750166.634 7
  20955156.526   -10748782.258 5  -8315599.271 5
  18144712.667   -31629365.389 7 -24474444.303 9
  18800928.511   -25539890.920 7 -19291907.916 8
 95  2 19 21 17 59.9910000  0  8 28 18 16 31  2 29 19 27
  21938481.980    -9449097.990 3    -24166.757 2
  18700348.636   -29929409.235 7 -22336782.981 8
  21548629.847    -5940521.834 3  -4501909.888 4
  19303937.269   -19796584.982 6 -15259466.433 7
  19815987.745   -16556079.813 6 -12811141.416 7
  20970605.980   -10667579.999 5  -8252324.898 4
  18141610.534   -31645664.835 7 -24487145.153 9
  18786631.644   -25615025.142 7 -19350454.026 8
 95  2 19 21 18 29.9910000  0  8 28 18 16 31  2 29 19 27
  21949514.753    -9391130.106 4     21003.044 3
  18710254.761   -29877353.210 7 -22296219.875 8
  21542798.011    -5971177.233 3  -4525797.190 2
  19305452.144   -19788627.726 6 -15253265.969 7
  19801145.066   -16634071.477 6 -12871914.089 6
  20986101.464   -10586187.374 5  -8188902.183 4
  18138554.972   -31661730.772 7 -24499664.052 9
  18772360.503   -25690020.822 7 -19408892.181 8
 95  2 19 21 18 59.9910000  0  8 28 18 16 31  2 29 19 27
  21960607.144    -9332816.467 2     66442.181 5
  18720238.003   -29824888.241 7 -22255338.120 7
  21537059.315    -6001338.231 3  -4549299.252 3
  19307077.425   -19780089.452 6 -15246612.755 7
  19786350.159   -16711821.064 6 -12932498.137 6
  21001617.175   -10504622.496 5  -8125345.239 4
  18135540.097   -31677574.929 7 -24512010.138 9
  18758116.191   -25764880.538 7 -19467224.387 8
 95  2 19 21 19 29.9910000  0  8 28 18 16 31  2 29 19 27
  21971780.409    -9274135.016 5    112167.998 2
  18730304.636   -29771987.191 7 -22214116.556 7
  21531418.214    -6030977.902 3  -4572395.091 3
  19308812.862   -19770945.656 6 -15239487.713 7
  19771607.097   -16789298.680 6 -12992870.261 7
  21017178.667   -10422855.475 5  -8061630.782 4
  18132571.198   -31693174.803 7 -24524165.873 9
  18743898.948   -25839585.884 7 -19525436.307 8
 95  2 19 21 19 59.9910000  0  8 28 18 16 31  2 29 19 27
  21983010.995    -9215094.786 3    158173.340 5
  18740452.730   -29718656.988 7 -22172560.589 7
  21525881.081    -6060094.843 3  -4595083.575 3
  19310669.956   -19761207.040 6 -15231899.175 7
  19756915.237   -16866518.819 6 -13053041.757 7
  21032766.956   -10340901.727 5  -7997770.829 4
  18129645.042   -31708543.584 7 -24536141.534 9
  18729708.347   -25914160.857 7 -19583546.641 8
 95  2 19 21 20 29.9910000  0  8 28 18 16 31  2 29 19 27
  21994314.003    -9155708.601 4    204448.205 2
  18750682.995   -29664900.458 7 -22130672.420 7
  21520435.714    -6088702.569 3  -4617375.308 5
  19312633.675   -19750888.850 6 -15223859.016 7
  19742266.581   -16943482.917 6 -13113013.736 7
  21048404.917   -10258771.973 5  -7933773.717 5
  18126760.253   -31723708.768 7 -24547958.553 9
  18715537.909   -25988617.487 7 -19641564.758 8
 95  2 19 21 20 59.9910000  0  8 28 18 16 31  2 29 19 27
  22005681.558    -9095973.051 3    250995.465 5
  18760993.386   -29610718.891 7 -22088453.048 7
  21515084.964    -6116795.263 3  -4639265.689 3
  19314709.776   -19739986.393 6 -15215363.583 7
  19727672.269   -17020174.067 6 -13172773.032 7
  21064069.323   -10176450.117 5  -7869626.922 4
  18123914.487   -31738651.971 7 -24559602.595 9
  18701396.198   -26062931.030 7 -19699471.376 8
 95  2 19 21 21 29.9910000  0  8 28 18 16 31  2 29 19 27
  22017114.519    -9035894.175 5    297810.089 3
  18771382.042   -29556124.005 7 -22045911.611 7
  21509842.003    -6144375.681 3  -4660756.898 4
  19316896.370   -19728490.886 6 -15206406.035 7
  19713130.714   -17096591.925 6 -13232319.373 6
  21079771.511   -10093935.469 5  -7805329.905 5
  18121116.815   -31753357.917 7 -24571061.767 9
  18687285.440   -26137088.983 7 -19757256.754 8
 95  2 19 21 21 59.9910000  0  8 28 18 16 31  2 29 19 27
  22028612.636    -8975482.188 3    344884.379 2
  18781847.855   -29501132.691 7 -22003061.270 7
  21504687.269    -6171449.623 3  -4681853.462 2
  19319194.612   -19716402.162 6 -15196986.236 7
  19698642.050   -17172741.316 6 -13291656.515 7
  21095505.315   -10011239.142 5  -7740891.309 4
  18118365.339   -31767828.341 7 -24582337.415 9
  18673205.441   -26211080.051 7 -19814912.097 8
 95  2 19 21 22 29.9910000  0  8 28 18 16 31  2 29 19 27
  22040169.980    -8914730.975 5    392222.973 5
  18792386.198   -29445745.392 7 -21959902.370 7
  21499634.894    -6198012.095 3  -4702551.476 3
  19321608.815   -19703718.534 6 -15187102.876 7
  19684201.409   -17248607.363 6 -13350772.866 7
  21111279.464    -9928334.766 4  -7676290.606 4
  18115657.573   -31782047.458 7 -24593417.238 9
  18659161.042   -26284890.622 7 -19872426.795 8
 95  2 19 21 22 59.9910000  0  8 28 18 16 31  2 29 19 27
  22051799.081    -8853639.324 3    439826.786 4
  18802999.675   -29389970.269 6 -21916441.264 7
  21494673.034    -6224075.105 3  -4722860.271 3
  19324136.980   -19690431.697 6 -15176749.487 7
  19669819.003   -17324196.784 6 -13409673.666 7
  21127097.237    -9845226.848 4  -7611531.296 5
  18113005.144   -31795999.893 7 -24604289.262 9
  18645150.581   -26358512.221 7 -19929794.238 8
 95  2 19 21 23 29.9910000  0  8 28 18 16 31  2 29 19 27
  22063488.206    -8792202.514 5    487699.699 4
  18813688.956   -29333797.534 6 -21872670.337 7
  21489810.933    -6249637.898 3  -4742779.327 3
  19326778.980   -19676541.907 6 -15165926.264 7
  19655490.144   -17399506.447 6 -13468356.473 7
  21142956.011    -9761941.171 5  -7546633.472 4
  18110397.190   -31809692.385 7 -24614958.734 9
  18631172.589   -26431956.734 7 -19987023.692 8
 95  2 19 21 23 59.9910000  0  8 28 18 16 31  2 29 19 27
  22075238.948    -8730430.117 3    535833.934 5
  18824455.198   -29277227.975 6 -21828590.194 7
  21485040.823    -6274705.085 3  -4762312.181 3
  19329531.230   -19662075.139 6 -15154653.446 7
  19641212.214   -17474539.799 6 -13526823.976 7
  21158822.464    -9678496.904 5  -7481612.082 4
  18107835.183   -31823160.105 7 -24625453.055 9
  18617225.284   -26505255.790 7 -20044139.808 8
 95  2 19 21 24 29.9910000  0  8 28 18 16 31  2 29 19 27
  22087060.792    -8668326.221 3    584226.624 3
  18835295.995   -29220258.319 6 -21784198.286 7
  21480368.448    -6299265.533 3  -4781450.167 4
  19332398.526   -19647040.026 6 -15142937.759 7
  19626983.566   -17549306.229 6 -13585083.478 7
  21174733.300    -9594901.634 5  -7416473.017 4
  18105308.565   -31836425.848 7 -24635789.992 9
  18603301.597   -26578422.561 7 -20101152.841 8
 95  2 19 21 24 59.9910000  0  7 18 16 31  2 29 19 27
  18846215.855   -29162880.635 6 -21739488.437 7
  21475790.987    -6323308.727 3  -4800185.108 3
  19335366.683   -19631425.496 6 -15130770.573 7
  19612808.761   -17623804.255 6 -13643133.832 7
  21190669.315    -9511165.574 5  -7351224.255 3
  18102824.112   -31849496.308 7 -24645974.758 9
  18589406.151   -26651443.154 7 -20158051.969 8
 95  2 19 21 25 29.9910000  0  7 18 16 31  2 29 19 27
  18857210.667   -29105088.029 6 -21694455.273 7
  21471313.909    -6346825.131 3  -4818509.558 4
  19338443.495   -19615254.887 6 -15118170.081 7
  19598682.847   -17698032.361 6 -13700973.862 7
  21206637.753    -9427273.637 5  -7285854.006 4
  18100369.042   -31862387.380 7 -24656019.740 9
  18575537.120   -26724329.245 7 -20214846.285 8
 95  2 19 21 25 59.9910000  0  7 18 16 31  2 29 19 27
  18868282.636   -29046904.941 6 -21649117.835 7
  21466943.683    -6369823.974 3  -4836430.709 2
  19341627.464   -19598523.231 6 -15105132.413 7
  19584603.370   -17772002.864 6 -13758613.164 7
  21222631.612    -9343200.209 5  -7220342.341 2
  18097952.276   -31875094.793 7 -24665921.614 9
  18561693.144   -26797076.284 7 -20271532.253 8
 95  2 19 21 26 29.9910000  0  7 18 16 31  2 29 19 27
  18879428.253   -28988344.432 6 -21603486.311 7
  21462656.183    -6392322.144 3  -4853961.719 4
  19344926.237   -19581219.626 6 -15091649.077 7
  19570576.831   -17845719.798 6 -13816054.875 7
  21238662.612    -9258951.996 5  -7154694.488 2
  18095569.417   -31887599.678 7 -24675665.668 9
  18547879.995   -26869673.395 7 -20328101.390 8
 95  2 19 21 26 59.9910000  0  7 18 16 31  2 29 19 27
  18890642.776   -28929411.249 6 -21557564.383 7
  21458466.058    -6414343.913 3  -4871121.526 3
  19348321.464   -19563342.447 6 -15077718.799 7
  19556600.761   -17919174.749 6 -13873292.448 7
  21254724.159    -9174532.323 5  -7088913.031 2
  18093237.112   -31899876.178 7 -24685231.764 9
  18534092.269   -26942122.335 7 -20384555.076 8
 95  2 19 21 27 29.9910000  0  7 18 16 31  2 29 19 27
  18901928.089   -28870104.722 6 -21511351.544 7
  21454368.581    -6435893.983 3  -4887913.772 3
  19351834.933   -19544884.130 6 -15063335.683 7
  19542670.441   -17992365.231 6 -13930323.938 7
  21270824.511    -9089945.127 5  -7023001.024 4
  18090946.245   -31911913.023 7 -24694611.110 9
  18520334.183   -27014427.220 7 -20440896.501 8
 95  2 19 21 27 59.9910000  0  7 18 16 31  2 29 19 27
  18913283.894   -28810422.565 6 -21464846.001 7
  21450363.183    -6456957.235 3  -4904326.669 3
  19355461.511   -19525812.128 6 -15048474.382 7
  19528796.628   -18065279.186 6 -13987139.965 7
  21286951.698    -9005199.263 5  -6956965.389 5
  18088706.534   -31923677.317 7 -24703778.078 9
  18506602.933   -27086575.866 7 -20497116.183 8
 95  2 19 21 28 29.9910000  0  7 18 16 31  2 29 19 27
  18924720.847   -28750333.502 6 -21418023.392 7
  21446449.847    -6477518.646 3  -4920348.543 3
  19359206.589   -19506137.934 6 -15033143.828 7
  19514975.792   -18137904.575 6 -14043731.134 7
  21303105.417    -8920306.616 5  -6890815.390 3
  18086521.667   -31935167.058 7 -24712731.111 9
  18492906.675   -27158556.212 7 -20553204.734 8
 95  2 19 21 28 59.9910000  0  7 18 16 31  2 29 19 27
  18936230.769   -28689844.435 6 -21370889.088 7
  21442627.925    -6497581.930 3  -4935982.264 3
  19363062.659   -19485883.247 6 -15017360.952 7
  19501207.159   -18210266.148 6 -14100116.737 7
  21319284.776    -8835270.340 4  -6824553.442 4
  18084382.042   -31946401.222 7 -24721484.994 9
  18479240.597   -27230365.391 7 -20609159.898 8
 95  2 19 21 29 29.9910000  0  7 18 16 31  2 29 19 27
  18947819.440   -28628940.975 6 -21323431.888 7
  21438905.409    -6517122.111 3  -4951208.378 3
  19367028.784   -19465048.139 6 -15001125.804 7
  19487485.636   -18282360.342 6 -14156293.978 7
  21335495.933    -8750081.677 4  -6758172.782 2
  18082293.175   -31957381.139 7 -24730040.761 9
  18465613.972   -27301978.843 7 -20664962.548 8
 95  2 19 21 29 59.9910000  0  7 18 16 31  2 29 19 27
  18959489.151   -28567621.012 6 -21275650.138 7
  21435288.558    -6536131.754 3  -4966021.066 3
  19371097.917   -19443645.487 6 -14984448.418 7
  19473816.269   -18354193.422 6 -14212267.768 7
  21351736.230    -8664747.316 4  -6691678.562 2
  18080253.558   -31968104.847 7 -24738396.884 9
  18452026.573   -27373388.928 7 -20720606.732 8
 95  2 19 21 30 29.9910000  0  7 18 16 31  2 29 19 27
  18971231.644   -28505910.747 6 -21227564.255 7
  21431772.542    -6554630.125 3  -4980435.356 4
  19375276.261   -19421698.694 6 -14967347.020 7
  19460192.464   -18425781.843 6 -14268050.911 7
  21368009.722    -8579272.742 4  -6625075.112 3
  18078256.519   -31978599.329 7 -24746574.392 9
  18438474.737   -27444599.487 7 -20776095.438 9
 95  2 19 21 30 59.9910000  0  7 18 16 31  2 29 19 27
  18983042.894   -28443844.871 6 -21179201.276 7
  21428346.714    -6572635.656 4  -4994465.651 3
  19379554.237   -19399218.786 6 -14949830.215 7
  19446618.198   -18497132.893 6 -14323649.100 7
  21384292.816    -8493668.573 4  -6558370.683 2
  18076299.269   -31988869.792 7 -24754577.345 9
  18424953.659   -27515640.315 7 -20831451.898 9
 95  2 19 21 31 29.9910000  0  7 18 16 31  2 29 19 27
  18994919.698   -28381436.278 6 -21130571.237 7
  21425009.120    -6590139.877 3  -5008105.292 2
  19383933.753   -19376202.432 6 -14931895.397 7
  19433089.706   -18568224.208 6
  21400607.058    -8407930.492 4  -6491561.885 3
  18074392.323   -31998903.656 7 -24762395.933 9
  18411463.378   -27586537.547 7
 95  2 19 21 31 59.9910000  0  7 18 16 31  2 29 19 27
  19006852.167   -28318710.710 6 -21081694.216 7
  21421770.042    -6607158.739 3  -5021366.727 3
  19388416.425   -19352651.413 6 -14913543.954 7
  19419614.745   -18639052.615 6
  21416949.331    -8322052.574 4  -6424644.154 3
  18072525.667   -32008702.348 7 -24770031.268 9
  18397992.714   -27657309.021 7
 95  2 19 21 32 29.9910000  0  7 18 16 31  2 29 19 27
  19018850.167   -28255659.307 6 -21032563.294 7
  21418623.980    -6623703.773 3  -5034258.940 2
  19393000.300   -19328555.785 6 -14894768.132 6
  19406186.433   -18709602.316 6
  21433325.425    -8236013.335 4  -6357600.696 3
  18070705.870   -32018269.723 7 -24777486.357 9
  18384554.659   -27727944.596 7
 95  2 19 21 32 59.9910000  0  7 18 16 31  2 29 19 27
  19030916.761   -28192264.435 6 -20983164.737 7
  21415568.191    -6639765.654 3  -5046774.665 3
  19397691.550   -19303906.847 6 -14875561.169 7
  19392815.784   -18779866.452 6 -14543960.797 7
  21449723.605    -8149808.948 3  -6290428.566 2
  18068929.972   -32027597.487 7 -24784754.738 9
  18371139.706   -27798437.808 7 -21051813.430 9
 95  2 19 21 33 29.9910000  0  7 18 16 31  2 29 19 27
  19043049.464   -28128521.159 6 -20933494.694 7
  21412603.956    -6655350.972 3  -5058919.055 2
  19402490.730   -19278690.300 6 -14855911.911 7
  19379496.019   -18849855.051 6 -14598497.325 7
  21466159.698    -8063449.730 5  -6223135.764 3
  18067200.605   -32036697.174 7 -24791845.395 8
  18357757.237   -27868769.880 7 -21106617.606 9
 95  2 19 21 33 59.9910000  0  7 18 16 31  2 29 19 27
  19055245.933   -28064413.073 6 -20883540.388 7
  21409727.964    -6670456.797 3  -5070689.828 3
  19407398.409   -19252888.772 6 -14835806.814 7
  19366227.355   -18919574.713 6 -14652824.280 7
  21482622.433    -7976943.006 4  -6155728.042 3
  18065514.519   -32045559.644 7 -24798751.209 9
  18344413.987   -27938895.992 7 -21161261.301 9
 95  2 19 21 34 29.9910000  0  7 18 16 31  2 29 19 27
  19067515.167   -27999943.975 6 -20833304.779 7
  21406939.667    -6685092.234 3  -5082094.061 3
  19412416.081   -19226519.932 6 -14815259.659 7
  19353007.745   -18989052.941 6 -14706963.127 7
  21499102.456    -7890336.761 4  -6088242.742 2
  18063870.128   -32054199.609 7 -24805483.645 9
  18331102.136   -28008838.501 7 -21215761.920 9
 95  2 19 21 34 59.9910000  0  7 18 16 31  2 29 19 27
  19079849.550   -27935112.659 6 -20782786.910 7
  21404252.417    -6699237.972 3  -5093116.696 3
  19417544.784   -19199581.990 6 -14794269.050 7
  19339834.894   -19058275.944 6 -14760903.092 7
  21515602.050    -7803636.223 4  -6020684.026 2
  18062271.511   -32062594.438 7 -24812025.062 9
  18317825.925   -28078608.151 7 -21270127.852 9
 95  2 19 21 35 29.9910000  0  7 18 16 31  2 29 19 27
  19092253.831   -27869930.148 6 -20731995.395 7
  21401651.480    -6712908.242 3  -5103768.841 4
  19422772.112   -19172094.387 6 -14772850.129 7
  19326706.308   -19127248.528 6 -14814647.922 7
  21532114.855    -7716852.832 4  -5953060.700 1
  18060721.753   -32070742.796 7 -24818374.426 9
  18304583.237   -28148201.940 7 -21324356.750 9
 95  2 19 21 35 59.9910000  0  7 18 16 31  2 29 19 27
  19104729.909   -27804381.482 6 -20680918.563 7
  21399142.425    -6726099.941 3  -5114048.081 3
  19428111.019   -19144070.685 6 -14751013.479 6
  19313634.542   -19195964.845 6 -14868193.068 7
  21548646.620    -7629976.760 4  -5885365.183 1
  18059220.315   -32078627.915 7 -24824518.665 9
  18291369.136   -28217635.230 7 -21378460.587 9
 95  2 19 21 36 29.9910000  0  7 18 16 31  2 29 19 27
  19117267.683   -27738479.558 6 -20629566.465 7
  21396721.401    -6738814.777 3  -5123955.716 3
  19433538.175   -19115523.613 6 -14728768.998 7
  19300605.386   -19264415.794 6 -14921531.430 8
  21565201.800    -7542990.827 4  -5817584.042 2
  18057770.534   -32086259.117 7 -24830465.050 9
  18278185.222   -28286926.029 7 -21432453.394 9
 95  2 19 21 36 59.9910000  0  7 18 16 31  2 29 19 27
  19129873.323   -27672240.945 6 -20577952.003 7
  21394392.526    -6751060.804 3  -5133498.054 2
  19439072.362   -19086456.783 6 -14706119.506 7
  19287631.487          -0.95916
  21581777.198    -7455873.595 3  -5749700.601 1
  18056362.370   -32093642.362 7 -24836218.220 9
  18265028.698   -28356059.070 7 -21486323.274 9
 95  2 19 21 37 29.9910000  0  7 18 16 31  2 29 19 27
  19142541.347   -27605666.799 6 -20526076.090 7
  21392150.730    -6762835.812 3  -5142673.400 3
  19444704.417   -19056858.008 6 -14683055.531 6
  19274706.237      -67929.487 6        -0.30717
  21598382.409    -7368620.812 3  -5681711.531 1
  18055004.691   -32100774.487 7 -24841775.710 9
  18251905.605   -28425018.006 7 -21540057.484 9
 95  2 19 21 37 59.9910000  0  7 18 16 31  2 29 19 27
  19155273.526   -27538763.695 6 -20473943.847 7
  21390006.003    -6774120.152 3  -5151466.393 3
  19450442.526   -19026707.389 6 -14659561.550 7
  19261828.261     -135591.581 6    -52723.984 7
  21615014.151    -7281233.578 3  -5613617.667 1
  18053694.737   -32107658.234 7 -24847139.656 9
  18238819.800   -28493793.441 7 -21593648.716 9
 95  2 19 21 38 29.9910000  0  7 18 16 31  2 29 19 27
  19168064.105   -27471554.728 6 -20421573.265 7
  21387951.386    -6784919.472 3  -5159881.431 4
  19456280.214   -18996011.201 6 -14635642.447 6
  19249003.050     -202988.036 6   -105240.668 7
  21631661.183    -7193736.115 3  -5545438.001 2
  18052429.940   -32114307.255 7 -24852320.702 9
  18225768.987   -28562375.643 7 -21647089.365 9
 95  2 19 21 38 59.9910000  0  7 18 16 31  2 29 19 27
  19180912.511   -27404037.265 6 -20368962.305 7
  21385981.323    -6795243.251 3  -5167925.943 2
  19462227.823   -18964771.884 6 -14611300.114 7
  19236229.191     -270126.377 6   -157556.218 8
  21648330.026    -7106164.019 3  -5477200.114 1
  18051213.120   -32120715.129 7 -24857313.840 9
  18212756.815   -28630745.768 7 -21700364.765 9
 95  2 19 21 39 29.9910000  0  7 18 16 31  2 29 19 27
  19193825.628   -27336178.327 6 -20316085.247 7
  21384114.120    -6805069.243 3  -5175582.565 2
  19468278.901   -18932969.215 6 -14586518.839 7
  19223505.105     -336994.023 6   -209660.846 7
  21665003.386    -7018522.903 3  -5408908.478 1
  18050042.667   -32126857.814 7 -24862100.339 9
  18199789.003   -28698889.365 7 -21753463.648 9
 95  2 19 21 39 59.9910000  0  7 18 16 31  2 29 19 27
  19206804.722   -27267972.544 6 -20262937.921 7
  21382332.300    -6814411.830 3  -5182862.491 2
  19474437.792   -18900626.140 6 -14561316.449 7
  19210828.909     -403603.840 6   -261564.560 7
  21681694.230    -6930828.561 3  -5340575.280 1
  18048920.081   -32132751.247 7 -24866692.612 9
  18186862.011   -28766822.718 7 -21806398.708 9
 95  2 19 21 40 29.9910000  0  8  7 18 16 31  2 29 19 27
  21744105.058     -129893.269 2
  19219852.776   -27199396.826 6 -20209502.340 7
  21380646.151    -6823276.133 3  -5189769.742 3
  19480691.550   -18867739.459 6 -14535690.475 6
  19198202.058     -469951.744 6   -313264.191 7
  21698395.683    -6843052.689 4  -5272178.714 4
  18047852.136   -32138366.598 7 -24871068.199 9
  18173977.683   -28834536.836 7 -21859162.932 9
 95  2 19 21 40 59.9910000  0  8  7 18 16 31  2 29 19 27
  21719398.917     -259761.566 5        -0.48911
  19232972.651   -27130466.222 6 -20155790.215 7
  21379049.058    -6831671.493 3  -5196311.576 1
  19487048.909   -18834321.757 6 -14509650.719 7
  19185621.081     -536060.050 6   -364777.112 7
  21715117.347    -6755189.502 3  -5203714.031 1
  18046833.933   -32143713.572 7 -24875234.663 9
  18161128.292   -28902062.206 7 -21911780.083 9
 95  2 19 21 41 29.9910000  0  7  7 18 16 31  2 19 27
  21694688.776     -389601.011 3   -101174.004 1
  19246153.761   -27061188.167 6 -20101807.355 7
  21377540.901    -6839602.088 3  -5202491.272 2
  19493510.066   -18800380.347 6 -14483202.880 6
  19173084.300     -601939.847 6   -416111.974 8
  18045865.550   -32148806.414 7 -24879203.100 9
  18148311.534   -28969418.309 7 -21964265.338 9
 95  2 19 21 41 59.9910000  0  7  7 18 16 31  2 19 27
  21669978.589     -519430.673 3
  19259398.487   -26991580.463 6 -20047567.620 7
  21376119.995    -6847085.303 3  -5208322.338 2
  19500066.073   -18765927.770 6 -14456356.739 6
  19160592.761     -667584.662 6   -467263.733 8
  18044944.933   -32153649.796 7 -24882977.154 9
  18135524.026   -29036616.377 7 -22016627.445 9
 95  2 19 21 42 29.9910000  0  7  7 18 16 31  2 19 27
  21645282.675     -649249.634 5        -0.31311
  19272700.737   -26921667.729 6 -19993090.205 7
  21374781.433    -6854108.913 3  -5213795.280 2
  19506720.019   -18730959.594 6 -14429108.814 6
  19148146.690     -732989.526 6   -518228.512 7
  18044070.737   -32158235.123 7 -24886550.128 9
  18122769.034   -29103639.577 7 -22068853.297 9
 95  2 19 21 42 59.9900000  0  7  7 18 16 31  2 19 27
  21620572.717     -779073.834 3
  19286062.787   -26851455.879 6 -19938379.711 7
  21373537.787    -6860655.279 3  -5218896.362 2
  19513469.865   -18695479.457 6 -14401461.969 6
  19135751.084     -798136.775 6   -568992.549 8
  18043243.076   -32162576.905 7 -24889933.325 9
  18110047.857   -29170486.975 7 -22120942.154 9
 95  2 19 21 43 29.9900000  0  7  7 18 16 31  2 19 27
  21595864.381     -908918.489 3
  19299485.162   -26780930.846 6 -19883425.171 6
  21372380.123    -6866726.870 3  -5223627.466 2
  19520318.006   -18659497.884 6 -14373424.390 6
  19123406.123     -863026.760 6   -619556.123 8
  18042465.303   -32166678.647 7 -24893129.486 9
  18097359.811   -29237155.946 7 -22172891.971 9
 95  2 19 21 43 59.9900000  0  7  7 18 16 31  2 19 27
  21571160.139    -1038750.944 3        -0.32111
  19312964.147   -26710086.786 6 -19828222.046 6
  21371318.373    -6872297.423 3  -5227968.176 2
  19527265.850   -18622997.915 6 -14344982.871 6
  19111112.061     -927615.130 6   -669884.667 7
  18041735.350   -32170511.136 7 -24896115.831 9
  18084716.311   -29303608.732 7 -22224673.343 9
 95  2 19 21 44 29.9900000  0  7  7 18 16 31  2 19 27
  21546461.959    -1168554.327 4   -101145.630 1
  19326508.162   -26638937.572 6 -19772781.135 6
  21370357.287    -6877363.255 3  -5231915.584 2
  19534309.068   -18585983.254 6 -14316140.289 7
  19098877.428     -991900.501 6   -719977.110 8
  18041052.522   -32174088.985 7 -24898903.762 9
  18072114.568   -29369837.226 7 -22276279.937 9
 95  2 19 21 44 59.9900000  0  7  7 18 16 31  2 19 27
  21521768.467    -1298331.630 4   -202270.554 1
  19340103.725   -26567489.883 6 -19717107.647 6
  21369476.068    -6881959.773 3  -5235497.313 2
  19541446.834   -18548474.469 6 -14286912.660 6
  19086698.529    -1055902.348 6   -769848.628 8
  18040418.162   -32177431.159 7 -24901508.050 9
  18059548.443   -29435863.995 7 -22327729.345 9
 95  2 19 21 45 29.9900000  0  6 18 16 31  2 19 27
  19353751.100   -26495761.912 6 -19661215.758 6
  21368691.732    -6886126.337 3  -5238743.989 2
  19548674.920   -18510475.136 6 -14257302.802 6
  19074571.873    -1119645.553 6   -819518.611 8
  18039828.490   -32180535.935 7 -24903927.357 9
  18047023.029   -29501679.979 7 -22379014.502 9
 95  2 19 21 45 59.9900000  0  7  7 18 16 31  2 19 27
  21472396.115          -0.29913
  19367451.975   -26423768.058 6 -19605116.679 6
  21367971.607    -6889869.291 3  -5241660.608 1
  19556004.693   -18471964.595 6 -14227294.591 7
  19062485.959    -1183133.050 7   -868989.339 8
  18039284.943   -32183389.522 7 -24906150.931 9
  18034542.904   -29567274.540 7 -22430127.117 9
 95  2 19 21 46 29.9900000  0  7  7 18 16 31  2 19 27
  21447716.092     -129657.501 3        -0.29211
  19381204.803   -26351488.544 6 -19548795.020 6
  21367346.928    -6893193.522 3  -5244250.926 2
  19563432.014   -18432932.193 6 -14196879.733 6
  19050451.889    -1246386.163 7   -918277.436 8
  18038794.717   -32185976.188 7 -24908166.516 9
  18022102.967   -29632639.800 7 -22481061.063 9
 95  2 19 21 46 59.9900000  0  7  7 18 16 31  2 19 27
  21423053.897     -259274.995 3   -101000.735 2
  19395018.756   -26278897.832 6 -19492230.859 6
  21366794.022    -6896093.897 3  -5246510.934 1
  19570961.982   -18393362.692 6 -14166046.363 6
  19038459.826    -1309402.602 7   -967381.122 8
  18038358.607   -32188264.517 7 -24909949.634 9
  18009709.639   -29697766.110 7 -22531808.816 9
 95  2 19 21 47 29.9900000  0  7  7 18 16 31  2 19 27
  21398394.842     -388861.459 4   -201977.005 2
  19408886.326   -26205996.609 6 -19435424.746 6
  21366325.881    -6898560.108 3  -5248432.694 2
  19578595.373   -18353254.724 6 -14134793.408 6
  19026515.318    -1372167.163 7  -1016288.540 8
  18037974.162   -32190257.756 7 -24911502.809 9
  17997361.279   -29762660.682 7 -22582375.985 9
 95  2 19 21 47 59.9900000  0  7  7 18 16 31  2 19 27
  21373741.568     -518402.616 3   -302917.986 4
  19422828.420   -26132772.753 6 -19378367.232 6
  21365944.248    -6900562.804 3  -5249993.250 2
  19586328.225   -18312605.927 6 -14103119.031 6
  19014628.670    -1434650.317 6  -1064976.681 8
  18037658.287   -32191950.085 7 -24912821.505 9
  17985055.053   -29827322.225 7 -22632761.578 9
 95  2 19 21 48 29.9900000  0  7  7 18 16 31  2 19 27
  21349104.717     -647895.188 5   -403821.106 2
  19436820.131   -26059221.445 6 -19321054.561 6
  21365652.834    -6902107.662 3
  19594165.811   -18271443.495 6 -14071044.431 6
  19002788.045    -1496849.116 6  -1113443.245 8
  18037384.443   -32193356.706 7
  17972793.779   -29891765.398 7 -22682977.021 9
 95  2 19 21 48 59.9900000  0  7  7 18 16 31  2 19 27
  21324459.334     -777353.919 4   -504697.864 3
  19450876.279   -25985364.214 6 -19263503.511 6
  21365442.467    -6903206.584 3
  19602084.889   -18229800.896 6 -14038595.658 6
  18991009.162    -1558766.095 6  -1161690.206 8
  18037166.412   -32194515.505 7
  17960564.779   -29956018.138 7 -22733044.067 9
 95  2 19 21 49 29.9900000  0  7  7 18 16 31  2 19 27
  21299842.397     -906746.722 4   -605523.266 4
  19464989.936   -25911193.150 6 -19205707.919 6
  21365323.061    -6903845.834 4  -5252551.475 1
  19610102.615   -18187679.147 6 -14005773.539 6
  18979278.756    -1620389.288 7  -1209708.247 8
  18036997.951   -32195419.715 7 -24915525.120 9
  17948378.943   -30020073.094 7 -22782956.993 9
 95  2 19 21 49 59.9900000  0  7  7 18 16 31  2 19 27
  21275231.928    -1036079.069 4   -706301.572 3
  19479161.350   -25836729.727 6 -19147684.507 6
  21365279.358    -6904043.517 3
  19618205.967   -18145090.697 6 -13972587.747 6
  18967604.920    -1681756.033 7  -1257526.454 8
  18036868.990   -32196079.417 7 -24916039.176 9
  17936224.826   -30083931.088 7 -22832716.450 9
 95  2 19 21 50 29.9900000  0  7  7 18 16 31  2 19 27
  21250630.037    -1165351.474 4   -807033.158 4
  19493387.920   -25761974.682 6 -19089433.863 6
  21365325.428    -6903787.582 3
  19626400.654   -18102024.863 6 -13939029.972 6
  18955972.514    -1742876.949 7  -1305153.107 8
  18036792.639   -32196488.003 7
  17924112.483   -30147582.346 7 -22882314.817 9
 95  2 19 21 50 59.9900000  0  7  7 18 16 31  2 19 27
  21226046.943    -1294568.604 5   -907721.682 4
  19507660.264   -25686949.660 6 -19030972.848 6
  21365465.162    -6903073.668 4
  19634689.287   -18058473.024 6 -13905093.497 6
  18944385.897    -1803751.308 7  -1352587.637 8
  18036764.076   -32196644.362 7
  17912043.631   -30211017.180 7 -22931744.540 9
 95  2 19 21 51 29.9900000  0  7  7 18 16 31  2 19 27
  21201459.365    -1423738.420 3  -1008373.345 4
  19521984.154   -25611678.964 6 -18972320.394 6
  21365686.576    -6901920.066 3        -0.41512
  19643071.865   -18014433.956 6 -13870777.368 6
  18932849.803    -1864396.297 7  -1399843.439 8
  18036782.209   -32196540.470 7
  17900011.373   -30274234.727 7 -22981004.952 9
 95  2 19 21 51 59.9900000  0  7  7 18 16 31  2 19 27
  21176889.717    -1552867.428 3  -1108993.181 4
  19536354.990   -25536162.436 6 -18913476.386 6
  21365988.272    -6900325.044 3      1242.463 1
  19651546.084   -17969899.820 6 -13836075.464 6
  18921351.717    -1924806.526 7  -1446916.305 8
  18036854.920   -32196167.489 7
  17888024.928   -30337219.469 7 -23030083.960 9
 95  2 19 21 52 29.9900000  0  7  7 18 16 31  2 19 27
  21152323.334    -1681949.716 3  -1209576.625 5
  19550775.076   -25460392.079 6 -18854434.596 6
  21366377.928    -6898281.571 4      2834.764 2
  19660111.357   -17924882.790 6 -13800997.299 6
  18909903.795    -1984955.202 7  -1493785.364 8
  18036975.584   -32195515.022 7 -24915599.395 9
  17876088.201   -30399962.539 7 -23078974.643 9
 95  2 19 21 52 59.9900000  0  7  7 18 16 31  2 19 27
  21127770.029    -1810990.261 3  -1310127.538 3
  19565243.725   -25384362.186 6 -18795190.569 6
  21366850.662    -6895815.816 4      4756.125 2
  19668765.397   -17879410.297 6 -13765564.211 6
  18898508.381    -2044852.569 7  -1540458.596 8
  18037154.053   -32194582.849 7 -24914873.022 9
  17864189.342   -30462476.337 7 -23127686.676 9
 95  2 19 21 53 29.9900000  0  7  7 18 16 31  2 19 27
  21103222.264    -1939981.044 3  -1410639.666 3
  19579761.834   -25308056.819 6 -18735731.885 6
  21367393.225    -6892933.736 4      7001.877 2
  19677501.506   -17833487.071 6 -13729779.899 6
  18887156.662    -2104514.014 7  -1586947.994 8
  18037386.967   -32193358.121 7 -24913918.691 9
  17852336.529   -30524762.684 7 -23176221.472 9
 95  2 19 21 53 59.9900000  0  7  7 18 16 31  2 19 27
  21078685.654    -2068909.476 3  -1511103.224 2
  19594333.842   -25231472.263 6 -18676055.654 6
  21368032.240    -6889626.037 4      9579.314 2
  19686327.951   -17787116.346 6 -13693646.893 6
  18875844.490    -2163941.073 7  -1633254.756 8
  18037674.506   -32191846.757 7 -24912741.003 9
  17840529.998   -30586816.128 7 -23224574.782 9
 95  2 19 21 54 29.9900000  0  7  7 18 16 31  2 19 27
  21054174.912    -2197771.630 3  -1611515.093 2
  19608963.451   -25154617.220 6 -18616168.658 6
  21368736.147    -6885903.075 4     12480.303 1
  19695236.654   -17740293.538 6 -13657161.603 6
  18864577.303    -2223156.234 7  -1679396.399 8
  18038015.326   -32190059.280 7 -24911348.167 9
  17828764.607   -30648648.191 7 -23272755.586 9
 95  2 19 21 54 59.9900000  0  7  7 18 16 31  2 19 27
  21029661.420    -2326543.729 3  -1711856.856 3
  19623641.443   -25077485.691 6 -18556066.223 6
  21369518.873    -6881767.225 4     15703.041 2
  19704240.654   -17692985.874 6 -13620298.507 6
  18853351.850    -2282160.099 7  -1725373.395 8
  18038409.373   -32187977.775 7 -24909726.214 9
  17817039.365   -30710250.419 7 -23320757.294 9
 95  2 19 21 55 29.9900000  0  7  7 18 16 31  2 19 27
  21005172.514    -2455210.805 3  -1812116.757 3
  19638365.326   -25000091.111 6 -18495758.799 6
  21370386.897    -6877214.893 4     19250.285 1
  19713337.928   -17645172.110 6 -13583041.041 6
  18842163.162    -2340942.076 7  -1771177.493 8
  18038864.709   -32185610.406 7 -24907881.507 9
  17805362.443   -30771619.746 7 -23368577.529 9
 95  2 19 21 55 59.9900000  0  7  7 18 16 31  2 19 27
  20980710.029    -2583777.267 4  -1912298.282 2
  19653142.490   -24922443.310 6 -18435254.073 6
  21371329.803    -6872240.995 4     23126.026 2
  19722533.186   -17596849.941 6 -13545387.414 6
  18831020.967    -2399489.009 7  -1816798.444 8
  18039359.873   -32182989.001 7 -24905838.856 9
  17793730.022   -30832758.616 7 -23416218.184 9
 95  2 19 21 56 29.9900000  0  7  7 18 16 31  2 19 27
  20956266.553    -2712249.684 4  -2012406.500 4
  19667965.131   -24844540.667 6 -18374550.771 6
  21372357.381    -6866848.780 4     27327.747 1
  19731826.397   -17548021.194 6 -13507339.039 6
  18819932.983    -2457778.896 7  -1862219.094 8
  18039908.772   -32180104.858 7 -24903591.471 9
  17782136.490   -30893663.747 7 -23463676.704 9
 95  2 19 21 56 59.9900000  0  7  7 18 16 31  2 19 27
  20931833.139    -2840637.021 4  -2112448.426 3
  19682838.858   -24766391.939 6 -18313655.700 6
  21373468.647    -6861038.083 4     31855.524 3
  19741209.522   -17498715.536 6 -13468919.048 6
  18808892.631    -2515787.460 7  -1907420.534 8
  18040507.686   -32176965.037 7 -24901144.860 9
  17770591.662   -30954336.348 7 -23510954.036 9
 95  2 19 21 57 29.9900000  0  7  7 18 16 31  2 19 27
  20907411.592    -2968951.612 4  -2212433.685 3
  19697759.201   -24687993.726 6 -18252566.239 6
  21374658.233    -6854789.882 4     36724.262 2
  19750677.818   -17448946.859 6 -13430138.267 6
  18797905.303    -2573513.600 7  -1952401.908 8
  18041152.209   -32173575.606 7 -24898503.742 9
  17759094.193   -31014767.500 7 -23558043.221 9
 95  2 19 21 57 59.9900000  0  7  7 18 16 31  2 19 27
  20883008.686    -3097200.771 4  -2312367.940 3
  19712726.545   -24609348.439 6 -18191284.241 6
  21375920.326    -6848103.640 4     41934.307 2
  19760232.123   -17398736.991 6 -13391013.699 6
  18786974.756    -2630963.682 7  -1997168.166 8
  18041846.334   -32169918.759 7 -24895654.245 9
  17747642.459   -31074943.009 7 -23604933.208 9
 95  2 19 21 58 29.9900000  0  7  7 18 16 31  2 19 27
  20858622.100    -3225386.665 5  -2412252.910 4
  19727735.725   -24530465.613 6 -18129817.157 6
  21377281.982    -6840993.099 4     47474.943 2
  19769869.014   -17348104.205 6 -13351559.584 6
  18776095.061    -2688142.748 7  -2041723.253 8
  18042603.108   -32165957.761 7 -24892567.763 9
  17736237.639   -31134865.845 7 -23651626.315 9
 95  2 19 21 58 59.9900000  0  7  7 18 16 31  2 19 27
  20834231.287    -3353508.006 4  -2512087.575 3
  19742787.803   -24451350.163 6 -18068168.802 6
  21378709.693    -6833465.126 4     53340.867 2
  19779579.279   -17297058.229 6 -13311783.504 6
  18765261.443    -2745072.206 7  -2086083.832 8
  18043412.131   -32161697.347 7 -24889247.967 9
  17724883.037   -31194534.409 7 -23698121.281 9
 95  2 19 21 59 29.9900000  0  7  7 18 16 31  2 19 27
  20809872.490    -3481560.139 5  -2611868.310 4
  19757889.389   -24372012.636 6 -18006347.403 6
  21380220.592    -6825545.226 4     59512.194 2
  19789374.342   -17245596.351 6 -13271683.355 6
  18754466.740    -2801779.028 7  -2130270.929 8
  18044276.904   -32157146.533 7 -24885701.880 8
  17713577.279   -31253956.271 7 -23744424.017 9
 95  2 19 21 59 59.9900000  0  7  7 18 16 31  2 19 27
  20785521.373    -3609519.531 5  -2711576.776 5
  19773032.498   -24292445.999 6 -17944347.474 6
  21381794.811    -6817244.731 4     65980.075 3
  19799249.709   -17193713.646 6 -13231255.285 6
  18743721.639    -2858250.429 7  -2174274.589 8
  18045197.037   -32152308.563 7 -24881932.039 9
  17702314.764   -31313138.395 7 -23790539.945 9
 95  2 19 22  0 29.9900000  0  7  7 18 16 31  2 19 27
  20761194.928    -3737365.486 5  -2811196.853 4
  19788220.748   -24212636.941 6 -17882158.647 5
  21383454.522    -6808549.563 4     72755.515 2
  19809206.498   -17141382.479 6 -13190477.770 6
  18733026.592    -2914465.061 7  -2218078.172 8
  18046171.951   -32147187.230 7 -24877941.396 8
  17691099.303   -31372070.471 7 -23836461.029 9
 95  2 19 22  0 59.9900000  0  7  7 18 16 31  2 19 27
  20736888.240    -3865104.435 5  -2910733.539 5
  19803448.920   -24132594.591 6 -17819788.047 6
  21385175.904    -6799487.317 4     79816.984 3
  19819249.584   -17088610.019 6 -13149356.394 6
  18722373.334    -2970453.480 7  -2261705.482 8
  18047192.514   -32141826.203 7 -24873763.975 9
  17679928.615   -31430771.123 7 -23882201.780 9
 95  2 19 22  1 29.9900000  0  7  7 18 16 31  2 19 27
  20712604.029    -3992724.921 5  -3010177.923 4
  19818727.240   -24052316.402 6 -17757233.666 6
  21386976.264    -6790051.615 4     87169.423 2
  19829376.701   -17035388.822 6 -13107885.363 6
  18711760.170    -3026211.311 7  -2305153.115 8
  18048258.279   -32136232.867 7 -24869405.538 8
  17668800.006   -31489258.544 7 -23927776.373 9
 95  2 19 22  1 59.9900000  0  7  7 18 16 31  2 19 27
  20688341.131    -4120222.830 5  -3109526.786 4
  19834050.350   -23971802.887 6 -17694495.919 5
  21388843.647    -6780214.019 4     94835.059 3
  19839591.881   -16981707.941 6 -13066056.134 6
  18701196.967    -3081722.787 7  -2348408.781 8
  18049370.490   -32130390.055 7 -24864852.706 8
  17657715.654   -31547516.505 7 -23973172.178 9
 95  2 19 22  2 29.9900000  0  7  7 18 16 31  2 19 27
  20664098.975    -4247605.803 5  -3208786.081 4
  19849412.584   -23891059.516 6 -17631579.061 5
  21390796.318    -6769963.870 4    102822.132 1
  19849890.975   -16927574.173 6 -13023874.007 6
  18690678.381    -3137003.421 7  -2391484.576 8
  18050532.248   -32124283.512 7 -24860094.359 9
  17646675.170   -31605529.969 7 -24018377.456 9
 95  2 19 22  2 59.9900000  0  7  7 18 16 31  2 19 27
  20639877.147    -4374868.558 5  -3307951.699 5
  19864821.904   -23810091.274 6 -17568486.980 5
  21392823.654    -6759307.781 4    111125.554 3
  19860278.100   -16872993.501 6 -12981343.642 6
  18680202.139    -3192060.539 7  -2434386.203 8
  18051745.522   -32117899.945 7 -24855120.158 9
  17635677.873   -31663303.267 7 -24063395.599 9
 95  2 19 22  3 29.9900000  0  7  7 18 16 31  2 19 27
  20615688.904    -4502023.598 5  -3407033.378 4
  19880264.170   -23728930.419 6 -17505244.819 6
  21394924.178    -6748251.989 4    119740.405 3
  19870745.467   -16817995.221 6 -12938487.873 6
  18669766.482    -3246893.997 7  -2477113.552 8
  18053014.592   -32111242.489 7 -24849932.535 8
  17624732.506   -31720829.840 7 -24108221.480 9
 95  2 19 22  3 59.9900000  0  7  7 18 16 31  2 19 27
  20591508.756    -4629073.022 5  -3506032.739 4
  19895749.475   -23647566.146 6 -17441844.148 6
  21397101.873    -6736802.987 4    128661.681 3
  19881290.264   -16762584.188 6 -12895310.495 6
  18659373.631    -3301500.349 7  -2519663.929 8
  18054336.795   -32104286.045 7 -24844511.938 8
  17613839.522   -31778084.199 7 -24152835.246 9
 95  2 19 22  4 29.9900000  0  7  7 18 16 31  2 19 27
  20567346.811    -4756006.976 5  -3604942.144 5
  19911272.318   -23565984.425 6 -17378274.037 5
  21399352.584    -6724977.127 4    137876.583 3
  19891911.951   -16706761.914 6 -12851812.656 6
  18649029.740    -3355871.888 7  -2562031.339 8
  18055720.287   -32097020.837 7 -24838850.742 8
  17602994.201   -31835065.600 7 -24197236.320 9
 95  2 19 22  4 59.9900000  0  7  7 18 16 31  2 19 27
  20543223.943    -4882806.131 5  -3703746.486 5
  19926836.506   -23484188.565 6 -17314537.063 6
  21401677.428    -6712776.559 4    147383.504 2
  19902610.373   -16650526.703 6 -12807993.047 6
  18638733.889    -3409974.605 7  -2604189.275 8
  18057162.295   -32089440.295 7 -24832943.828 8
  17592203.295   -31891766.256 7 -24241418.624 9
 95  2 19 22  5 29.9900000  0  7  7 18 16 31  2 19 27
  20519111.201    -5009477.441 5  -3802451.230 4
  19942433.459   -23402188.429 6 -17250640.910 5
  21404065.678    -6700204.856 4    157179.572 1
  19913390.459   -16593898.077 6 -12763866.892 6
  18628485.732    -3463814.998 7  -2646142.803 8
  18058659.131   -32081562.082 7 -24826804.975 8
  17581468.178   -31948195.311 7 -24285389.297 9
 95  2 19 22  5 59.9900000  0  7  7 18 16 31  2 19 27
  20495036.264    -5136023.161 5  -3901058.102 4
  19958084.014   -23319981.378 6 -17186583.526 5
  21406530.936    -6687261.389 3    167265.350 2
  19924242.068   -16536871.357 6 -12719430.533 6
  18618289.600    -3517407.781 7  -2687903.381 8
  18060216.795   -32073391.077 7 -24820437.963 8
  17570777.045   -32004371.929 7 -24329163.264 9
 95  2 19 22  6 29.9900000  0  7  7 18 16 31  2 19 27
  20470979.365    -5262443.384 5  -3999567.194 4
  19973760.568   -23237602.928 6 -17122392.582 5
  21409064.639    -6673948.163 3    177639.259 4
  19935166.568   -16479458.471 6 -12674693.260 6
  18608137.647    -3570760.167 7  -2729476.640 8
  18061823.162   -32064951.338 7 -24813861.553 8
  17560133.303   -32060296.897 7 -24372741.139 9
 95  2 19 22  6 59.9900000  0  7  7 18 16 31  2 19 27
  20446947.693    -5388709.867 5  -4097956.490 3
  19989472.654   -23155029.605 6 -17058049.800 5
  21411680.131    -6660233.931 4    188325.624 3
  19946170.740   -16421634.063 6 -12629635.323 6
  18598029.959    -3623860.062 7  -2770853.148 8
  18063481.568   -32056227.101 7 -24807063.453 8
  17549546.522   -32115944.943 7 -24416103.230 9
 95  2 19 22  7 29.9900000  0  7  7 18 16 31  2 19 27
  20422940.779    -5514844.177 5  -4196242.806 5
  20005224.686   -23072257.252 6 -16993551.920 5
  21414363.084    -6646134.072 3    199312.467 2
  19957251.764   -16363406.329 6 -12584263.094 6
  18587969.654    -3676741.679 7  -2812059.572 8
  18065195.022   -32047226.860 7 -24800050.284 8
  17539004.818   -32171329.361 7 -24459259.896 9
 95  2 19 22  7 59.9900000  0  7  7 18 16 31  2 19 27
  20398970.412    -5640847.520 5  -4294427.059 4
  20021014.451   -22989286.667 6 -16928899.577 5
  21417112.818    -6631662.755 3    210588.773 4
  19968410.233   -16304767.651 6 -12538570.670 5
  18577947.568    -3729402.118 7  -2853093.645 8
  18066960.256   -32037944.817 7 -24792817.529 8
  17528518.006   -32226440.056 7 -24502203.274 9
 95  2 19 22  8 29.9900000  0  7  7 18 16 31  2 19 27
  20375021.006    -5766708.171 5  -4392500.134 4
  20036839.287   -22906120.253 6 -16864094.634 5
  21419940.561    -6616828.036 3    222148.240 3
  19979646.764   -16245711.587 6 -12492553.012 6
  18567971.818    -3781823.474 7  -2893941.424 8
  18068785.108   -32028373.232 7 -24785359.165 8
  17518085.873   -32281269.743 7 -24544927.688 9
 95  2 19 22  8 59.9900000  0  7  7 18 16 31  2 19 27
  20351100.162    -5892429.060 5  -4490464.308 5
  20052700.483   -22822755.690 6 -16799135.299 5
  21422830.623    -6601642.639 3    233980.985 1
  19990963.904   -16186252.656 6 -12446221.420 6
  18558041.232    -3834019.269 7  -2934613.439 8
  18070660.568   -32018509.255 7 -24777672.959 8
  17507699.357   -32335835.953 7 -24587446.794 9
 95  2 19 22  9 29.9900000  0  7  7 18 16 31  2 19 27
  20327200.717    -6018008.516 5  -4588318.284 5
  20068601.490   -22739205.719 6 -16734031.484 5
  21425784.334    -6586101.599 3    246090.849 3
  20002355.217   -16126388.725 6 -12399574.259 5
  18548149.998    -3885982.948 7  -2975104.589 8
  18072594.920   -32008340.445 7 -24769749.220 8
  17497371.061   -32390126.551 7 -24629751.142 9
 95  2 19 22  9 59.9900000  0  7  7 18 16 31  2 19 27
  20303334.662    -6143426.384 5  -4686046.344 5
  20084532.717   -22655484.287 6 -16668794.062 5
  21428801.654    -6570197.446 3    258483.650 1
  20013821.506   -16066119.893 6 -12352611.572 6
  18538310.943    -3937700.609 7  -3015404.037 8
  18074588.162   -31997867.805 7 -24761588.736 8
  17487091.787   -32444130.006 7 -24671831.741 9
 95  2 19 22 10 29.9900000  0  7  7 18 16 31  2 19 27
  20279493.373    -6268702.206 5  -4783663.734 5
  20100497.365   -22571607.032 6 -16603435.224 5
  21431907.279    -6553942.152 3    271150.083 3
  20025362.568   -16005478.629 6 -12305358.696 5
  18528508.865    -3989197.355 7  -3055531.335 8
  18076635.451   -31987108.076 7 -24753204.537 8
  17476870.983   -32497854.296 7 -24713694.806 9
 95  2 19 22 10 59.9900000  0  7  7 18 16 31  2 19 27
  20255683.725    -6393829.499 5  -4881165.389 5
  20116488.264   -22487559.909 5 -16537944.016 5
  21435063.576    -6537330.495 3    284094.162 2
  20036971.732   -15944468.973 6 -12257818.750 5
  18518750.686    -4040477.203 7  -3095489.627 8
  18078738.381   -31976054.056 7 -24744591.025 8
  17466705.100   -32551275.678 7 -24755321.842 9
 95  2 19 22 11 29.9900000  0  7  7 18 16 31  2 19 27
  20231902.889    -6518802.681 5  -4978546.956 5
  20132521.615   -22403325.671 6 -16472307.013 5
  21438291.631    -6520351.924 3    297324.180 4
  20048654.928   -15883071.767 6 -12209976.825 5
  18509041.576    -4091515.878 7  -3135259.993 8
  18080898.631   -31964711.907 7 -24735752.992 8
  17456596.678   -32604380.875 7 -24796702.501 9
 95  2 19 22 11 59.9900000  0  7  7 18 16 31  2 19 27
  20208142.201    -6643634.041 5  -5075818.019 5
  20148583.920   -22318909.125 5 -16406527.947 5
  21441592.990    -6503029.147 3    310822.395 3
  20060408.373   -15821308.129 6 -12161849.373 6
  18499369.014    -4142332.198 7  -3174857.093 8
  18083105.811   -31953113.218 7 -24726715.065 8
  17446552.154   -32657186.166 7 -24837849.467 9
 95  2 19 22 12 29.9900000  0  7  7 18 16 31  2 19 27
  20184413.209    -6768332.569 5  -5172985.588 5
  20164683.951   -22234313.346 5 -16340609.232 5
  21444960.115    -6485367.159 3    324584.917 2
  20072229.803   -15759184.086 6 -12113441.082 6
  18489736.740    -4192945.659 7  -3214296.129 8
  18085359.834   -31941260.327 7 -24717479.049 8
  17436556.553   -32709711.413 7 -24878778.224 9
 95  2 19 22 12 59.9900000  0  7  7 18 16 31  2 19 27
  20160721.068    -6892878.377 5  -5270034.153 5
  20180817.756   -22149533.306 5 -16274546.932 5
  21448372.858    -6467355.970 3    338619.574 3
  20084124.279   -15696674.970 6 -12064732.719 5
  18480146.764    -4243345.707 7  -3253568.863 8
  18087666.725   -31929148.276 7 -24708041.095 8
  17426608.865   -32761972.429 7 -24919501.083 9
 95  2 19 22 13 29.9900000  0  7  7 18 16 31  2 19 27
  20137036.365    -7017273.959 5  -5366965.640 5
  20196981.928   -22064577.154 5 -16208347.395 5
  21451874.967    -6449002.836 3    352920.657 3
  20096094.576   -15633773.820 6 -12015718.899 6
  18470598.936    -4293531.209 7  -3292674.424 8
  18090018.756   -31916776.280 7 -24698400.586 8
  17416710.561   -32813981.708 7 -24960027.789 9
 95  2 19 22 13 59.9900000  0  7  7 18 16 31  2 19 27
  20113405.443    -7141501.584 5  -5463766.271 5
  20213176.600   -21979457.616 5 -16142020.555 5
  21455430.256    -6430311.648 3    367485.164 3
  20108139.607   -15570483.652 6 -11966401.939 5
  18461089.108    -4343504.031 7  -3331614.262 8
  18092429.897   -31904108.786 7 -24688529.813 8
  17406863.076   -32865736.101 7 -25000355.868 9
 95  2 19 22 14 29.9900000  0  7  7 18 16 31  2 19 27
  20089804.022    -7265545.748 5  -5560423.944 5
  20229406.193   -21894179.943 5 -16075570.478 5
  21459051.537    -6411273.901 3    382319.732 2
  20120258.342   -15506793.375 6 -11916773.192 5
  18451624.256    -4393236.447 7  -3370366.770 8
  18094903.389   -31891113.639 7 -24678403.725 8
  17397068.108   -32917224.569 7 -25040476.737 9
 95  2 19 22 14 59.9900000  0  7  7 18 16 31  2 19 27
  20066230.912    -7389397.659 5  -5656931.818 5
  20245666.420   -21808745.929 5 -16008998.582 5
  21462740.779    -6391890.899 3    397423.297 2
  20132454.522   -15442703.777 6 -11866833.297 5
  18442208.092    -4442711.199 7  -3408918.506 8
  18097442.420   -31877780.602 7 -24668014.353 8
  17387325.732   -32968426.932 7 -25080374.672 9
 95  2 19 22 15 29.9900000  0  7  7 18 16 31  2 19 27
  20042695.912    -7513067.225 5  -5753297.590 5
  20261944.873   -21723171.728 5 -15942317.447 5
  21466489.420    -6372180.908 3    412781.683 2
  20144722.014   -15378246.936 6 -11816607.230 5
  18432839.897    -4491942.646 7  -3447280.652 8
  18100041.357   -31864108.376 7 -24657360.669 8
  17377638.600   -33019329.030 7 -25120038.632 9
 95  2 19 22 15 59.9900000  0  7  7 18 16 31  2 19 27
  20019197.748    -7636545.848 5  -5849514.598 5
  20278258.092   -21637465.943 5 -15875533.792 5
  21470306.529    -6352143.849 3    428394.917 2
  20157050.545   -15313447.597 6 -11766114.273 5
  18423514.162    -4540940.544 7  -3485460.814 8
  18102708.686   -31850101.353 7 -24646446.109 8
  17368010.826   -33069924.826 7 -25159463.917 9
 95  2 19 22 16 29.9900000  0  7  7 18 16 31  2 19 27
  19995737.545    -7759842.960 5  -5945590.151 5
  20294594.006   -21551625.567 5 -15808645.254 5
  21474183.451    -6331794.568 3    444251.447 2
  20169444.514   -15248315.197 5 -11715361.791 6
  18414230.740    -4589726.432 7  -3523475.768 9
  18105427.811   -31835792.184 7 -24635296.110 8
  17358441.522   -33120209.536 7 -25198646.797 9
 95  2 19 22 16 59.9900000  0  7  7 18 16 31  2 19 27
  19972311.139    -7882943.137 5  -6041512.256 5
  20310954.897   -21465620.626 5 -15741628.493 5
  21478102.061    -6311124.651 2    460357.805 1
  20181903.014   -15182847.954 5 -11664348.392 5
  18404986.201    -4638310.789 7  -3561333.691 8
  18108211.482   -31821180.690 7 -24623910.535 8
  17348933.912   -33170168.235 7 -25237575.641 9
 95  2 19 22 17 29.9900000  0  7  7 18 16 31  2 19 27
  19948926.232    -8005840.635 5  -6137276.438 5
  20327359.318   -21379446.651 5 -15674480.003 5
  21482109.967    -6290133.995 3    476714.102 2
  20194425.029   -15117046.746 6 -11613074.764 5
  18395780.568    -4686695.962 7  -3599036.401 9
  18111045.670   -31806268.316 7 -24612290.506 8
  17339488.412   -33219797.309 7 -25276247.628 9
 95  2 19 22 17 59.9900000  0  7  7 18 16 31  2 19 27
  19925578.553    -8128541.874 5  -6232887.673 5
  20343779.545   -21293109.023 5 -15607204.003 5
  21486162.225    -6268818.824 3    493323.265 3
  20207009.545   -15050904.160 5 -11561535.120 5
  18386615.584    -4734870.538 7  -3636575.009 8
  18113941.139   -31791071.719 7 -24600449.013 8
  17330103.498   -33269105.858 7 -25314669.856 9
 95  2 19 22 18 29.9900000  0  7  7 18 16 31  2 19 27
  19902259.529    -8251057.418 5  -6328354.215 5
  20360241.451   -21206614.465 5 -15539805.702 5
  21490280.662    -6247173.191 3    510189.923 1
  20219664.139   -14984420.891 6 -11509730.010 5
  18377485.178    -4782828.069 7  -3673944.496 8
  18116883.022   -31775597.231 7 -24588390.980 8
  17320784.123   -33318101.510 7 -25352848.272 9
 95  2 19 22 18 59.9900000  0  7  7 18 16 31  2 19 27
  19878984.154    -8373386.586 5  -6423675.530 5
  20376734.615   -21119984.565 5 -15472301.946 5
  21494465.295    -6225186.779 3    527322.134 1
  20232378.006   -14917615.374 5 -11457673.814 5
  18368405.436    -4830551.109 7  -3711131.259 8
  18119884.498   -31759836.161 7 -24576109.638 8
  17311518.365   -33366783.961 7 -25390782.637 9
 95  2 19 22 19 29.9890000  0  7  7 18 16 31  2 19 27
  19855731.462    -8495544.871 5  -6518863.688 5
  20393237.095   -21033260.400 5 -15404724.755 5
  21498717.204    -6202881.870 3    544702.541 1
  20245147.095   -14850504.710 5 -11405379.818 5
  18359368.735    -4878037.876 7  -3748133.917 9
  18122934.946   -31743805.262 7 -24563618.038 8
  17302310.993   -33415165.326 7 -25428482.384 9
 95  2 19 22 19 59.9890000  0  7  7 18 16 31  2 19 27
  19832527.431    -8617532.517 5  -6613918.884 6
  20409759.899   -20946429.595 5 -15337064.453 5
  21503015.048    -6180250.178 3    562337.563 2
  20257980.775   -14783068.222 5 -11352831.946 5
  18350379.431    -4925274.959 7  -3784942.007 9
  18126037.853   -31727488.144 7 -24550903.415 8
  17293164.392   -33463241.690 7 -25465944.472 9
 95  2 19 22 20 29.9890000  0  7  7 18 16 31  2 19 27
  19809342.173    -8739340.968 5  -6708834.452 6
  20426301.907   -20859492.325 5 -15269321.183 4
  21507386.493    -6157307.217 3    580215.117 1
  20270876.173   -14715298.842 5 -11300024.685 5
  18341438.196    -4972269.216 7  -3821560.888 9
  18129201.399   -31710872.912 7 -24537956.494 8
  17284072.235   -33511008.195 7 -25503165.112 9
 95  2 19 22 20 59.9890000  0  8  7 18 16 31  2 15 19 27
  19786199.392    -8860964.897 5  -6803606.235 6
  20442866.579   -20772434.445 5 -15201483.952 5
  21511804.728    -6134076.014 3    598317.305 2
  20283836.829   -14647176.854 5 -11246942.650 5
  18332540.040    -5019019.900 7  -3857989.971 9
  21656139.290          -0.74913
  18132423.946   -31693943.922 7 -24524765.087 8
  17275043.790   -33558463.933 7 -25540143.597 9
 95  2 19 22 21 29.9890000  0  8  7 18 16 31  2 15 19 27
  19763090.407    -8982397.324 5  -6898228.800 6
  20459457.954   -20685231.171 5 -15133533.417 5
  21516276.493    -6110560.760 3    616640.811 1
  20296873.657   -14578664.971 5 -11193556.792 5
  18323688.235    -5065535.003 7  -3894235.489 9
  21639858.939      -85530.409 3
  18135704.274   -31676697.097 7 -24511326.007 8
  17266070.126   -33605612.433 7 -25576882.679 9
 95  2 19 22 21 59.9890000  0  8  7 18 16 31  2 15 19 27
  19740025.407    -9103614.604 6  -6992683.711 6
  20476079.993   -20597869.288 5 -15065459.305 5
  21520804.439    -6086750.799 3    635193.960 1
  20309990.876   -14509750.011 5 -11139856.868 5
  18314885.243    -5111811.003 7  -3930294.686 9
  21623623.368     -170863.186 3        -0.35712
  18139048.876   -31659128.068 7 -24497635.879 8
  17257156.720   -33652446.969 7 -25613377.111 9
 95  2 19 22 22 29.9890000  0  8  7 18 16 31  2 15 19 27
  19717004.462    -9224609.159 6  -7086965.069 6
  20492739.212   -20510354.784 5 -14997266.256 5
  21525390.329    -6062658.204 3    653967.365 1
  20323175.009   -14440461.149 5 -11085865.604 5
  18306119.626    -5157859.991 7  -3966176.996 9
  21607422.985     -256005.389 3    -66344.873 1
  18142451.329   -31641250.495 7 -24483705.325 8
  17248306.579   -33698970.038 7 -25649628.838 9
 95  2 19 22 22 59.9890000  0  8  7 18 16 31  2 15 19 27
  19694018.407    -9345366.110 5  -7181061.298 6
  20509424.501   -20422699.249 5 -14928963.320 5
  21530027.962    -6038276.676 3    672965.882 1
  20336424.462   -14370825.331 5 -11031603.967 5
  18297398.454    -5203686.690 7  -4001886.092 8
  21591257.978     -340953.726 4   -132538.287 1
  18145910.423   -31623074.659 7 -24469542.340 8
  17239511.204   -33745182.644 7 -25685638.645 9
 95  2 19 22 23 29.9890000  0  8  7 18 16 31  2 15 19 27
  19671087.220    -9465867.707 6  -7274958.537 6
  20526121.110   -20334914.262 5 -14860559.501 5
  21534738.540    -6013581.225 3    692209.018 1
  20349742.064   -14300862.166 5 -10977087.265 5
  18288721.774    -5249295.902 7  -4037425.721 9
  21575133.204     -425701.542 5   -198575.458 2
  18149423.360   -31604610.444 7 -24455154.657 8
  17230779.399   -33791064.171 7 -25721390.472 9
 95  2 19 22 23 59.9890000  0  8  7 18 16 31  2 15 19 27
  19648202.439    -9586116.612 5  -7368658.875 6
  20542849.298   -20247014.975 5 -14792066.634 5
  21539491.876    -5988579.638 3    711690.717 1
  20363106.603   -14230615.394 5 -10922349.574 5
  18280084.673    -5294689.900 7
  21559041.274     -510250.621 4   -264457.811 1
  18152990.290   -31585855.357 7 -24440540.314 8
  17222109.837   -33836614.077 7
 95  2 19 22 24 29.9890000  0  8  7 18 16 31  2 15 19 27
  19625369.821    -9706128.045 6  -7462174.174 6
  20559597.235   -20159007.177 5 -14723489.211 5
  21544308.392    -5963278.121 4    731406.093 1
  20376524.470   -14160107.021 5 -10867408.030 5
  18271483.845    -5339890.970 7
  21542988.423     -594599.741 5   -330184.285 2
  18156615.532   -31566802.892 7 -24425694.252 8
  17213504.251   -33881840.899 7
 95  2 19 22 24 59.9890000  0  8  7 18 16 31  2 15 19 27
  19602570.087    -9825911.751 5  -7555512.024 6
  20576367.564   -20070893.360 5 -14654829.171 5
  21549176.353    -5937671.324 3
  20389996.149   -14089324.460 5 -10812252.837 5
  18262915.532    -5384913.407 7
  21526976.415     -678745.684 4   -395752.442 2
  18160302.118   -31547451.065 7 -24410614.917 8
  17204958.829   -33926748.043 7
 95  2 19 22 25 29.9890000  0  8  7 18 16 31  2 15 19 27
  19579824.915    -9945477.871 6  -7648680.323 6
  20593153.642   -19982663.956 5 -14586079.060 4
  21554118.696    -5911763.077 4        -0.43411
  20403519.337   -14018251.378 5 -10756871.264 5
  18254380.423    -5429754.111 7  -4178042.429 8
  21510998.173     -762681.193 3   -461156.654 2
  18164044.431   -31527787.019 7 -24395292.307 8
  17196475.509   -33971334.202 7 -25861860.565 9
 95  2 19 22 25 59.9890000  0  8  7 18 16 31  2 15 19 27
  19557110.173   -10064844.438 6  -7741693.126 6
  20609962.728   -19894339.584 5 -14517254.964 4
  21559096.173    -5885581.898 4     20400.399 1
  20417100.400   -13946889.419 5 -10701264.593 5
  18245880.360    -5474414.375 7  -4212842.614 9
  21495067.610     -846415.034 3   -526403.639 1
  18167842.439   -31507820.131 7 -24379733.699 8
  17188048.298   -34015633.556 7 -25896379.528 9
 95  2 19 22 26 29.9890000  0  8  7 18 16 31  2 15 19 27
  19534436.915   -10183981.961 6  -7834527.463 6
  20626793.556   -19805913.234 5 -14448351.391 4
  21564124.337    -5859106.483 3     41030.548 1
  20430742.353   -13875198.217 5 -10645401.419 5
  18237424.095    -5518867.575 7  -4247481.450 9
  21479175.626     -929923.708 3   -591475.214 2
  18171701.189   -31487541.216 7 -24363931.965 8
  17179674.696   -34059619.442 7 -25930654.228 9
 95  2 19 22 26 59.9890000  0  8  7 18 16 31  2 15 19 27
  19511806.939   -10302907.572 6  -7927196.672 6
  20643634.751   -19717412.540 5 -14379389.896 4
  21569216.931    -5832356.907 3     61874.282 1
  20444443.532   -13803192.548 5 -10589293.147 5
  18229005.056    -5563106.231 7  -4281953.105 9
  21463326.259    -1013221.901 4   -656382.781 4
  18175616.298   -31466972.824 7 -24347904.665 8
  17171365.454   -34103289.318 7 -25964682.688 9
 95  2 19 22 27 29.9890000  0  8  7 18 16 31  2 15 19 27
  19489214.829   -10421610.246 6  -8019692.167 6
  20660475.345   -19628842.744 5 -14310374.554 4
  21574360.665    -5805337.463 3     82928.316 1
  20458203.525   -13730880.248 5 -10532945.938 5
  18220630.735    -5607105.245 7  -4316238.031 9
  21447515.384    -1096303.604 3   -721121.594 3
  18179586.407   -31446108.672 7 -24331646.899 8
  17163120.587   -34146624.806 7 -25998450.586 9
 95  2 19 22 27 59.9890000  0  8  7 18 16 31  2 15 19 27
  19466676.126   -10540067.828 6  -8111996.680 6
  20677357.235   -19540195.277 5 -14241298.697 4
  21579556.962    -5778043.068 3    104196.622 1
  20472025.931   -13658266.616 5 -10476363.966 5
  18212311.501    -5650837.958 7  -4350315.449 8
  21431750.579    -1179152.719 3   -785679.288 2
  18183613.790   -31424935.987 7 -24315148.723 8
  17154941.251   -34189593.478 7 -26031932.656 9
